Darstellungsparameter: Aktuell verwendete Einstellungen:
Skalierung der Graphiken ... ?
xyx+y,   Skalierungsfaktor:      Skalierung: Modus: x, Faktor: 1
Darstellungszeitraum ... ?
Vom - - bis: - -   Zeitraum: 27.07.2019 - 26.07.2020
Min/Max/Avg-Anzeige ... ?
Zeige MMA aktuell
Zeige MMA Monat
Zeige MMA alles
Zeige --A aktuell
Zeige --A Monat
Zeige --A alles
Keine MMA-Anzeige
MMA:
Keine MMA-Graphiken
MMA-Basis: 27.07.2019 - 26.07.2020
Quicknavigation für Darstellung... ?
Tage:      1T, 2T, 3T, 5T -1T -2T -3T -5T +1T +2T +3T +5T
Wochen: 1W, 2W, 3W -1W -2W -3W +1W +2W +3W
Monate: 1M, 3M, 6M -1M -3M -6M +1M +3M +6M
Jahre:    1J, 3J, 5J, 10J -1J -3J -5J -10J +1J +3J +5J +10J
Nutze für die Darstellung ... ?
Originaldaten oder ...
Mittelwerte Minima Maxima auf...
Stundenbasis Tagesbasis Wochenbasis
Monatsbasis Jahresbasis      Datenbasis: Mittelwerte auf Stundenbasis
Darstellen als:
Statistik (Auto) Statistik J:M      Darstellung:
Zur Graphik,    zurück zur Übersicht aller Sensoren.
 
Tabellarische Datenbersicht: ?
 
Sensor: Nr:Datum:Temp:Abs-Feuchte:Windchill:Wind:
Aussen-T/F 1 27-07-2019 00:00:00 23.15 C 14.56 g/m*3 23.15 C 0.53333 km/h
2 27-07-2019 01:00:00 22.63333 C 14.74 g/m*3 22.63 C 0 km/h
3 27-07-2019 02:00:00 22.33333 C 14.87 g/m*3 22.33 C 0 km/h
4 27-07-2019 03:00:00 22.59167 C 15.01 g/m*3 22.59 C 1.2 km/h
5 27-07-2019 04:00:00 20.9 C 15.74 g/m*3 20.9 C 0 km/h
6 27-07-2019 05:00:00 20.275 C 15.59 g/m*3 20.27 C 0 km/h
7 27-07-2019 06:00:00 20.525 C 15.79 g/m*3 20.53 C 0.26667 km/h
8 27-07-2019 07:00:00 21.25 C 16.39 g/m*3 21.25 C 0 km/h
9 27-07-2019 08:00:00 22.575 C 16.33 g/m*3 22.58 C 1.6 km/h
10 27-07-2019 09:00:00 24.725 C 16.66 g/m*3 24.73 C 3.6 km/h
11 27-07-2019 10:00:00 24.64167 C 18.42 g/m*3 24.64 C 2.55 km/h
12 27-07-2019 11:00:00 23.94167 C 18.78 g/m*3 23.94 C 0.53333 km/h
13 27-07-2019 12:00:00 23.75 C 17.91 g/m*3 23.75 C 2 km/h
14 27-07-2019 13:00:00 26 C 17.97 g/m*3 26 C 5.89167 km/h
15 27-07-2019 14:00:00 25.725 C 17.04 g/m*3 25.73 C 4.675 km/h
16 27-07-2019 15:00:00 25.04167 C 17.09 g/m*3 25.04 C 7.26667 km/h
17 27-07-2019 16:00:00 25.96667 C 16.65 g/m*3 25.97 C 11.56667 km/h
18 27-07-2019 17:00:00 24.49167 C 16.98 g/m*3 24.49 C 7.91667 km/h
19 27-07-2019 18:00:00 24.90833 C 17.35 g/m*3 24.91 C 6.28333 km/h
20 27-07-2019 19:00:00 23.84167 C 17.41 g/m*3 23.84 C 6.98333 km/h
21 27-07-2019 20:00:00 22.88333 C 17.34 g/m*3 22.88 C 5.74167 km/h
22 27-07-2019 21:00:00 22.075 C 16.7 g/m*3 22.08 C 6.975 km/h
23 27-07-2019 22:00:00 21.45 C 16.39 g/m*3 21.45 C 7.93333 km/h
24 27-07-2019 23:00:00 21.14167 C 16.39 g/m*3 21.14 C 3.21667 km/h
25 28-07-2019 00:00:00 20.83333 C 16.31 g/m*3 20.83 C 2.8 km/h
Sensor: Nr:Datum:Temp:Abs-Feuchte:Windchill:Wind:
Aussen-T/F 26 28-07-2019 01:00:00 20.70833 C 16.21 g/m*3 20.71 C 2.8 km/h
27 28-07-2019 02:00:00 20.7 C 16.2 g/m*3 20.7 C 1.73333 km/h
28 28-07-2019 03:00:00 20.68333 C 16.19 g/m*3 20.68 C 0.4 km/h
29 28-07-2019 04:00:00 20.60833 C 16.26 g/m*3 20.61 C 0.93333 km/h
30 28-07-2019 05:00:00 20.55 C 16.24 g/m*3 20.55 C 2.26667 km/h
31 28-07-2019 06:00:00 20.54167 C 16.23 g/m*3 20.54 C 2.13333 km/h
32 28-07-2019 07:00:00 20.69167 C 16.19 g/m*3 20.69 C 7.65 km/h
33 28-07-2019 08:00:00 20.71667 C 16.05 g/m*3 20.72 C 8.34167 km/h
34 28-07-2019 09:00:00 20.425 C 16 g/m*3 20.43 C 8.34167 km/h
35 28-07-2019 10:00:00 20.025 C 15.89 g/m*3 20.02 C 8.05833 km/h
36 28-07-2019 11:00:00 20.08333 C 15.95 g/m*3 20.08 C 5.89167 km/h
37 28-07-2019 12:00:00 20.50833 C 15.64 g/m*3 20.51 C 7.8 km/h
38 28-07-2019 13:00:00 20.30833 C 15.37 g/m*3 20.31 C 6.45 km/h
39 28-07-2019 14:00:00 19.98333 C 15.41 g/m*3 19.98 C 6.56667 km/h
40 28-07-2019 15:00:00 19.90833 C 15.16 g/m*3 19.91 C 7.79167 km/h
41 28-07-2019 16:00:00 19.81667 C 14.99 g/m*3 19.82 C 5.9 km/h
42 28-07-2019 17:00:00 19.45833 C 15.04 g/m*3 19.46 C 3.625 km/h
43 28-07-2019 18:00:00 19.175 C 14.89 g/m*3 19.18 C 3.475 km/h
44 28-07-2019 19:00:00 18.875 C 14.81 g/m*3 18.88 C 0.26667 km/h
45 28-07-2019 20:00:00 18.5 C 14.67 g/m*3 18.5 C 0 km/h
46 28-07-2019 21:00:00 18.175 C 14.56 g/m*3 18.18 C 0 km/h
47 28-07-2019 22:00:00 17.90833 C 14.47 g/m*3 17.91 C 0.4 km/h
48 28-07-2019 23:00:00 17.6 C 14.25 g/m*3 17.6 C 0 km/h
49 29-07-2019 00:00:00 17.325 C 14.02 g/m*3 17.33 C 0.13333 km/h
50 29-07-2019 01:00:00 17.10833 C 13.84 g/m*3 17.11 C 1.33333 km/h
Sensor: Nr:Datum:Temp:Abs-Feuchte:Windchill:Wind:
Aussen-T/F 51 29-07-2019 02:00:00 16.975 C 13.83 g/m*3 16.98 C 0 km/h
52 29-07-2019 03:00:00 16.84167 C 13.76 g/m*3 16.84 C 0 km/h
53 29-07-2019 04:00:00 16.80833 C 13.73 g/m*3 16.81 C 0 km/h
54 29-07-2019 05:00:00 16.74167 C 13.68 g/m*3 16.74 C 0 km/h
55 29-07-2019 06:00:00 16.725 C 13.66 g/m*3 16.73 C 0 km/h
56 29-07-2019 07:00:00 16.99167 C 13.85 g/m*3 16.99 C 2.13333 km/h
57 29-07-2019 08:00:00 17.46667 C 13.78 g/m*3 17.47 C 1.33333 km/h
58 29-07-2019 09:00:00 18.49167 C 13.65 g/m*3 18.49 C 6.04167 km/h
59 29-07-2019 10:00:00 19.39167 C 13.23 g/m*3 19.39 C 6.01667 km/h
60 29-07-2019 11:00:00 20.475 C 13.1 g/m*3 20.48 C 6.84167 km/h
61 29-07-2019 12:00:00 21.95 C 12.85 g/m*3 21.95 C 7.94167 km/h
62 29-07-2019 13:00:00 23.25 C 12.93 g/m*3 23.25 C 8.2 km/h
63 29-07-2019 14:00:00 24.41667 C 12.81 g/m*3 24.42 C 6.58333 km/h
64 29-07-2019 15:00:00 25.83333 C 12.4 g/m*3 25.83 C 10.88333 km/h
65 29-07-2019 16:00:00 27.6 C 12.17 g/m*3 27.6 C 7.79167 km/h
66 29-07-2019 17:00:00 28.23333 C 11.91 g/m*3 28.23 C 7.79167 km/h
67 29-07-2019 18:00:00 27.70833 C 11.64 g/m*3 27.71 C 4.94167 km/h
68 29-07-2019 19:00:00 28.1 C 11.85 g/m*3 28.1 C 6.29167 km/h
69 29-07-2019 20:00:00 26.33333 C 12.19 g/m*3 26.33 C 3.475 km/h
70 29-07-2019 21:00:00 23.05833 C 12.72 g/m*3 23.06 C 0 km/h
71 29-07-2019 22:00:00 20.75833 C 12.58 g/m*3 20.76 C 0 km/h
72 29-07-2019 23:00:00 19.34167 C 12.57 g/m*3 19.34 C 0 km/h
73 30-07-2019 00:00:00 17.95 C 12.42 g/m*3 17.95 C 0 km/h
74 30-07-2019 01:00:00 17.425 C 12.39 g/m*3 17.43 C 0 km/h
75 30-07-2019 02:00:00 16.6 C 12.08 g/m*3 16.6 C 0 km/h
Sensor: Nr:Datum:Temp:Abs-Feuchte:Windchill:Wind:
Aussen-T/F 76 30-07-2019 03:00:00 15.875 C 11.92 g/m*3 15.88 C 0 km/h
77 30-07-2019 04:00:00 15.4 C 11.84 g/m*3 15.4 C 0 km/h
78 30-07-2019 05:00:00 15.03333 C 11.76 g/m*3 15.03 C 0 km/h
79 30-07-2019 06:00:00 14.725 C 11.71 g/m*3 14.73 C 0 km/h
80 30-07-2019 07:00:00 14.93333 C 11.98 g/m*3 14.93 C 0 km/h
81 30-07-2019 08:00:00 15.88333 C 12.71 g/m*3 15.88 C 0 km/h
82 30-07-2019 09:00:00 17.4 C 13.61 g/m*3 17.4 C 0 km/h
83 30-07-2019 10:00:00 20.275 C 14.44 g/m*3 20.27 C 0 km/h
84 30-07-2019 11:00:00 24.96667 C 13.31 g/m*3 24.97 C 9.80833 km/h
85 30-07-2019 12:00:00 27.025 C 11.73 g/m*3 27.03 C 13.3 km/h
86 30-07-2019 13:00:00 28.24167 C 10.82 g/m*3 28.24 C 11.43333 km/h
87 30-07-2019 14:00:00 29.49167 C 11.11 g/m*3 29.49 C 13.43333 km/h
88 30-07-2019 15:00:00 30.69167 C 11.36 g/m*3 30.69 C 15.83333 km/h
89 30-07-2019 16:00:00 31.20833 C 11.08 g/m*3 31.21 C 16.5 km/h
90 30-07-2019 17:00:00 29.30833 C 11.05 g/m*3 29.31 C 17.56667 km/h
91 30-07-2019 18:00:00 26.625 C 10.27 g/m*3 26.63 C 12.48333 km/h
92 30-07-2019 19:00:00 24.55833 C 11.47 g/m*3 24.56 C 10.21667 km/h
93 30-07-2019 20:00:00 24.09167 C 12.06 g/m*3 24.09 C 6.16667 km/h
94 30-07-2019 21:00:00 23.675 C 12.12 g/m*3 23.68 C 0 km/h
95 30-07-2019 22:00:00 22.20833 C 12.33 g/m*3 22.21 C 0 km/h
96 30-07-2019 23:00:00 21.175 C 12.58 g/m*3 21.18 C 0 km/h
97 31-07-2019 00:00:00 20.55 C 12.46 g/m*3 20.55 C 0 km/h
98 31-07-2019 01:00:00 20.325 C 12.51 g/m*3 20.33 C 1.06667 km/h
99 31-07-2019 02:00:00 19.70833 C 12.18 g/m*3 19.71 C 0 km/h
100 31-07-2019 03:00:00 18.63333 C 11.97 g/m*3 18.63 C 0.26667 km/h
Sensor: Nr:Datum:Temp:Abs-Feuchte:Windchill:Wind:
Aussen-T/F 101 31-07-2019 04:00:00 18.575 C 12.24 g/m*3 18.58 C 0.93333 km/h
102 31-07-2019 05:00:00 17.83333 C 11.86 g/m*3 17.83 C 0 km/h
103 31-07-2019 06:00:00 17.64167 C 11.79 g/m*3 17.64 C 0 km/h
104 31-07-2019 07:00:00 17.375 C 11.83 g/m*3 17.38 C 0.26667 km/h
105 31-07-2019 08:00:00 18.44167 C 11.89 g/m*3 18.44 C 4.825 km/h
106 31-07-2019 09:00:00 20.01667 C 11.71 g/m*3 20.02 C 10.74167 km/h
107 31-07-2019 10:00:00 21.35833 C 10.99 g/m*3 21.36 C 13.16667 km/h
108 31-07-2019 11:00:00 21.60833 C 10.48 g/m*3 21.61 C 13.55833 km/h
109 31-07-2019 12:00:00 22.66667 C 10.25 g/m*3 22.67 C 16.63333 km/h
110 31-07-2019 13:00:00 23.69167 C 10.05 g/m*3 23.69 C 15.3 km/h
111 31-07-2019 14:00:00 24.76667 C 9.64 g/m*3 24.77 C 14.23333 km/h
112 31-07-2019 15:00:00 25.55 C 9.52 g/m*3 25.55 C 14.09167 km/h
113 31-07-2019 16:00:00 24.95833 C 9.72 g/m*3 24.96 C 13.7 km/h
114 31-07-2019 17:00:00 25.25 C 10.02 g/m*3 25.25 C 14.23333 km/h
115 31-07-2019 18:00:00 23.875 C 10.17 g/m*3 23.88 C 8.06667 km/h
116 31-07-2019 19:00:00 23.49167 C 10.25 g/m*3 23.49 C 6.975 km/h
117 31-07-2019 20:00:00 22.09167 C 10.88 g/m*3 22.09 C 1.46667 km/h
118 31-07-2019 21:00:00 19.925 C 10.27 g/m*3 19.93 C 0 km/h
119 31-07-2019 22:00:00 18.68333 C 9.76 g/m*3 18.68 C 0.4 km/h
120 31-07-2019 23:00:00 18.45 C 9.95 g/m*3 18.45 C 0.4 km/h
121 01-08-2019 00:00:00 16.88333 C 10.09 g/m*3 16.88 C 0.4 km/h
122 01-08-2019 01:00:00 15.525 C 9.93 g/m*3 15.53 C 0.13333 km/h
123 01-08-2019 02:00:00 14.73333 C 9.96 g/m*3 14.73 C 0.4 km/h
124 01-08-2019 03:00:00 14.15833 C 9.87 g/m*3 14.16 C 0.26667 km/h
125 01-08-2019 04:00:00 12.95833 C 9.61 g/m*3 12.96 C 0.66667 km/h
Sensor: Nr:Datum:Temp:Abs-Feuchte:Windchill:Wind:
Aussen-T/F 126 01-08-2019 05:00:00 12.625 C 9.62 g/m*3 12.63 C 0.4 km/h
127 01-08-2019 06:00:00 12.125 C 9.51 g/m*3 12.13 C 0 km/h
128 01-08-2019 07:00:00 12.55833 C 9.84 g/m*3 12.56 C 0.4 km/h
129 01-08-2019 08:00:00 15.175 C 10.56 g/m*3 15.18 C 0.93333 km/h
130 01-08-2019 09:00:00 17.56667 C 11.01 g/m*3 17.57 C 5.075 km/h
131 01-08-2019 10:00:00 20.3 C 10.98 g/m*3 20.3 C 10.5 km/h
132 01-08-2019 11:00:00 21.775 C 10.68 g/m*3 21.78 C 11.825 km/h
133 01-08-2019 12:00:00 22.45 C 10.66 g/m*3 22.45 C 9.275 km/h
134 01-08-2019 13:00:00 23.16667 C 11 g/m*3 23.17 C 6.43333 km/h
135 01-08-2019 14:00:00 24.15 C 10.84 g/m*3 24.15 C 8.60833 km/h
136 01-08-2019 15:00:00 24.575 C 10.99 g/m*3 24.58 C 8.45833 km/h
137 01-08-2019 16:00:00 24.4 C 11.13 g/m*3 24.4 C 7.375 km/h
138 01-08-2019 17:00:00 25.13333 C 11.06 g/m*3 25.13 C 6.28333 km/h
139 01-08-2019 18:00:00 26.35 C 11.11 g/m*3 26.35 C 7.53333 km/h
140 01-08-2019 19:00:00 26.26667 C 11.16 g/m*3 26.27 C 6.025 km/h
141 01-08-2019 20:00:00 24.10833 C 11.78 g/m*3 24.11 C 2.53333 km/h
142 01-08-2019 21:00:00 21.15 C 11.58 g/m*3 21.15 C 0 km/h
143 01-08-2019 22:00:00 19.76667 C 11.54 g/m*3 19.77 C 0 km/h
144 01-08-2019 23:00:00 19.24167 C 11.5 g/m*3 19.24 C 0 km/h
145 02-08-2019 00:00:00 18.81667 C 11.81 g/m*3 18.82 C 0 km/h
146 02-08-2019 01:00:00 18.34167 C 11.86 g/m*3 18.34 C 0 km/h
147 02-08-2019 02:00:00 17.86667 C 11.71 g/m*3 17.87 C 0 km/h
148 02-08-2019 03:00:00 16.94167 C 11.49 g/m*3 16.94 C 0 km/h
149 02-08-2019 04:00:00 16.31667 C 11.46 g/m*3 16.32 C 0 km/h
150 02-08-2019 05:00:00 16.2 C 11.54 g/m*3 16.2 C 0 km/h
Sensor: Nr:Datum:Temp:Abs-Feuchte:Windchill:Wind:
Aussen-T/F 151 02-08-2019 06:00:00 16.25 C 11.76 g/m*3 16.25 C 0 km/h
152 02-08-2019 07:00:00 16.925 C 12.17 g/m*3 16.93 C 0 km/h
153 02-08-2019 08:00:00 17.93333 C 12.6 g/m*3 17.93 C 0 km/h
154 02-08-2019 09:00:00 19.35 C 12.96 g/m*3 19.35 C 0 km/h
155 02-08-2019 10:00:00 20.71667 C 13 g/m*3 20.72 C 0 km/h
156 02-08-2019 11:00:00 22.16667 C 12.7 g/m*3 22.17 C 4.96667 km/h
157 02-08-2019 12:00:00 21.275 C 14.05 g/m*3 21.28 C 4.03333 km/h
158 02-08-2019 13:00:00 21.125 C 13.15 g/m*3 21.13 C 2.94167 km/h
159 02-08-2019 14:00:00 23.16667 C 12.81 g/m*3 23.17 C 5.625 km/h
160 02-08-2019 15:00:00 24.58333 C 12.67 g/m*3 24.58 C 7.38333 km/h
161 02-08-2019 16:00:00 25.59167 C 12.16 g/m*3 25.59 C 5.24167 km/h
162 02-08-2019 17:00:00 26.725 C 11.66 g/m*3 26.73 C 7.925 km/h
163 02-08-2019 18:00:00 25.00833 C 12.3 g/m*3 25.01 C 11.95833 km/h
164 02-08-2019 19:00:00 23.7 C 11.73 g/m*3 23.7 C 8.45833 km/h
165 02-08-2019 20:00:00 22.45833 C 12.04 g/m*3 22.46 C 1.6 km/h
166 02-08-2019 21:00:00 21.275 C 11.83 g/m*3 21.28 C 4.425 km/h
167 02-08-2019 22:00:00 20.95 C 11.93 g/m*3 20.95 C 9.80833 km/h
168 02-08-2019 23:00:00 18.975 C 12.83 g/m*3 18.98 C 4.96667 km/h
169 03-08-2019 00:00:00 17.75833 C 12.77 g/m*3 17.76 C 5.91667 km/h
170 03-08-2019 01:00:00 18.28333 C 12.89 g/m*3 18.28 C 10.89167 km/h
171 03-08-2019 02:00:00 18.24167 C 13.15 g/m*3 18.24 C 11.29167 km/h
172 03-08-2019 03:00:00 18.2 C 13.32 g/m*3 18.2 C 8.05833 km/h
173 03-08-2019 04:00:00 18.15 C 13.47 g/m*3 18.15 C 7.225 km/h
174 03-08-2019 05:00:00 18.14167 C 13.48 g/m*3 18.14 C 6.31667 km/h
175 03-08-2019 06:00:00 17.89167 C 13.32 g/m*3 17.89 C 5.75833 km/h
Sensor: Nr:Datum:Temp:Abs-Feuchte:Windchill:Wind:
Aussen-T/F 176 03-08-2019 07:00:00 17.84167 C 13.03 g/m*3 17.84 C 6.84167 km/h
177 03-08-2019 08:00:00 17.95 C 12.94 g/m*3 17.95 C 8.60833 km/h
178 03-08-2019 09:00:00 18.6 C 12.61 g/m*3 18.6 C 11.96667 km/h
179 03-08-2019 10:00:00 19.61667 C 12.76 g/m*3 19.62 C 11.3 km/h
180 03-08-2019 11:00:00 20.35833 C 12.91 g/m*3 20.36 C 11.16667 km/h
181 03-08-2019 12:00:00 21.55833 C 12.66 g/m*3 21.56 C 10.76667 km/h
182 03-08-2019 13:00:00 22.05 C 12.91 g/m*3 22.05 C 11.00833 km/h
183 03-08-2019 14:00:00 22.20833 C 12.93 g/m*3 22.21 C 10.49167 km/h
184 03-08-2019 15:00:00 23.80833 C 12.48 g/m*3 23.81 C 12.35833 km/h
185 03-08-2019 16:00:00 25.16667 C 12.35 g/m*3 25.17 C 12.36667 km/h
186 03-08-2019 17:00:00 25.49167 C 12.07 g/m*3 25.49 C 12.63333 km/h
187 03-08-2019 18:00:00 25.46667 C 12.05 g/m*3 25.47 C 11.825 km/h
188 03-08-2019 19:00:00 24.30833 C 12.07 g/m*3 24.31 C 11.15833 km/h
189 03-08-2019 20:00:00 22.61667 C 12.03 g/m*3 22.62 C 7.39167 km/h
190 03-08-2019 21:00:00 20.55833 C 11.74 g/m*3 20.56 C 3.875 km/h
191 03-08-2019 22:00:00 18.10833 C 11.47 g/m*3 18.11 C 0.13333 km/h
192 03-08-2019 23:00:00 17.05 C 11.51 g/m*3 17.05 C 0 km/h
193 04-08-2019 00:00:00 16.225 C 11.3 g/m*3 16.23 C 0 km/h
194 04-08-2019 01:00:00 15.125 C 11.05 g/m*3 15.13 C 0 km/h
195 04-08-2019 02:00:00 14 C 10.71 g/m*3 14 C 0 km/h
196 04-08-2019 03:00:00 13.3 C 10.5 g/m*3 13.3 C 0 km/h
197 04-08-2019 04:00:00 12.88333 C 10.37 g/m*3 12.88 C 0 km/h
198 04-08-2019 05:00:00 12.49167 C 10.22 g/m*3 12.49 C 0 km/h
199 04-08-2019 06:00:00 12.34167 C 10.22 g/m*3 12.34 C 0 km/h
200 04-08-2019 07:00:00 12.725 C 10.53 g/m*3 12.73 C 0 km/h
Sensor: Nr:Datum:Temp:Abs-Feuchte:Windchill:Wind:
Aussen-T/F 201 04-08-2019 08:00:00 13.73333 C 11.27 g/m*3 13.73 C 0 km/h
202 04-08-2019 09:00:00 15.34167 C 12.19 g/m*3 15.34 C 0.66667 km/h
203 04-08-2019 10:00:00 18.10833 C 12.88 g/m*3 18.11 C 3.33333 km/h
204 04-08-2019 11:00:00 21.31667 C 12.59 g/m*3 21.32 C 5.34167 km/h
205 04-08-2019 12:00:00 23.3 C 12.44 g/m*3 23.3 C 7.23333 km/h
206 04-08-2019 13:00:00 24.75 C 12.18 g/m*3 24.75 C 6.01667 km/h
207 04-08-2019 14:00:00 25.86667 C 11.74 g/m*3 25.87 C 6.7 km/h
208 04-08-2019 15:00:00 28.225 C 11.2 g/m*3 28.23 C 8.45833 km/h
209 04-08-2019 16:00:00 30.03333 C 10.48 g/m*3 30.03 C 9.4 km/h
210 04-08-2019 17:00:00 30.95833 C 10.24 g/m*3 30.96 C 8.45833 km/h
211 04-08-2019 18:00:00 30.79167 C 10.68 g/m*3 30.79 C 7.25 km/h
212 04-08-2019 19:00:00 28.75833 C 11.81 g/m*3 28.76 C 2.00833 km/h
213 04-08-2019 20:00:00 25.78333 C 12.49 g/m*3 25.78 C 0 km/h
214 04-08-2019 21:00:00 22.51667 C 12.06 g/m*3 22.52 C 0.26667 km/h
215 04-08-2019 22:00:00 21.95833 C 12.33 g/m*3 21.96 C 1.06667 km/h
216 04-08-2019 23:00:00 22.39167 C 12.16 g/m*3 22.39 C 2.53333 km/h
217 05-08-2019 00:00:00 22.875 C 11.8 g/m*3 22.88 C 1.46667 km/h
218 05-08-2019 01:00:00 21.65833 C 11.88 g/m*3 21.66 C 0 km/h
219 05-08-2019 02:00:00 20.28333 C 11.74 g/m*3 20.28 C 0 km/h
220 05-08-2019 03:00:00 19.6 C 11.76 g/m*3 19.6 C 0.26667 km/h
221 05-08-2019 04:00:00 19.31667 C 12.58 g/m*3 19.32 C 0 km/h
222 05-08-2019 05:00:00 19.325 C 12.96 g/m*3 19.33 C 1.74167 km/h
223 05-08-2019 06:00:00 18.28333 C 13.64 g/m*3 18.28 C 1.06667 km/h
224 05-08-2019 07:00:00 17.53333 C 13.79 g/m*3 17.53 C 1.46667 km/h
225 05-08-2019 08:00:00 17.64167 C 14.21 g/m*3 17.64 C 0.53333 km/h
Sensor: Nr:Datum:Temp:Abs-Feuchte:Windchill:Wind:
Aussen-T/F 226 05-08-2019 09:00:00 18.75 C 15.24 g/m*3 18.75 C 0.66667 km/h
227 05-08-2019 10:00:00 20.08333 C 16.08 g/m*3 20.08 C 1.06667 km/h
228 05-08-2019 11:00:00 21.99167 C 16.31 g/m*3 21.99 C 1.86667 km/h
229 05-08-2019 12:00:00 24.25 C 15.17 g/m*3 24.25 C 12.89167 km/h
230 05-08-2019 13:00:00 26 C 14.55 g/m*3 26 C 12.5 km/h
231 05-08-2019 14:00:00 27.11667 C 14.16 g/m*3 27.12 C 11.56667 km/h
232 05-08-2019 15:00:00 28.375 C 12.91 g/m*3 28.38 C 10.9 km/h
233 05-08-2019 16:00:00 28.875 C 11.79 g/m*3 28.88 C 12.23333 km/h
234 05-08-2019 17:00:00 28.225 C 11.59 g/m*3 28.23 C 11.43333 km/h
235 05-08-2019 18:00:00 27.7 C 11.28 g/m*3 27.7 C 9.15833 km/h
236 05-08-2019 19:00:00 26.7 C 11.75 g/m*3 26.7 C 5.89167 km/h
237 05-08-2019 20:00:00 25.1 C 12.4 g/m*3 25.1 C 1.6 km/h
238 05-08-2019 21:00:00 22.075 C 11.92 g/m*3 22.08 C 0 km/h
239 05-08-2019 22:00:00 20.53333 C 12.36 g/m*3 20.53 C 0 km/h
240 05-08-2019 23:00:00 19.28333 C 12.26 g/m*3 19.28 C 0 km/h
241 06-08-2019 00:00:00 18.00833 C 12.02 g/m*3 18.01 C 0 km/h
242 06-08-2019 01:00:00 17.10833 C 11.86 g/m*3 17.11 C 0 km/h
243 06-08-2019 02:00:00 17.00833 C 12 g/m*3 17.01 C 0 km/h
244 06-08-2019 03:00:00 17.45833 C 12.36 g/m*3 17.46 C 0.8 km/h
245 06-08-2019 04:00:00 17.20833 C 12.28 g/m*3 17.21 C 0.26667 km/h
246 06-08-2019 05:00:00 16.60833 C 12.11 g/m*3 16.61 C 0.13333 km/h
247 06-08-2019 06:00:00 16.66667 C 12.28 g/m*3 16.67 C 0.13333 km/h
248 06-08-2019 07:00:00 17.83333 C 12.66 g/m*3 17.83 C 2.40833 km/h
249 06-08-2019 08:00:00 18.675 C 12.96 g/m*3 18.68 C 3.475 km/h
250 06-08-2019 09:00:00 20.1 C 13.3 g/m*3 20.1 C 6.29167 km/h
Sensor: Nr:Datum:Temp:Abs-Feuchte:Windchill:Wind:
Aussen-T/F 251 06-08-2019 10:00:00 19.91667 C 14.4 g/m*3 19.92 C 2.14167 km/h
252 06-08-2019 11:00:00 19.65 C 15.1 g/m*3 19.65 C 0.8 km/h
253 06-08-2019 12:00:00 21.31667 C 15.35 g/m*3 21.32 C 4.40833 km/h
254 06-08-2019 13:00:00 22.325 C 15.31 g/m*3 22.33 C 7.66667 km/h
255 06-08-2019 14:00:00 23.61667 C 14.87 g/m*3 23.62 C 13.43333 km/h
256 06-08-2019 15:00:00 24.725 C 14.68 g/m*3 24.73 C 11.825 km/h
257 06-08-2019 16:00:00 25.39167 C 14.57 g/m*3 25.39 C 10.63333 km/h
258 06-08-2019 17:00:00 26.4 C 14.31 g/m*3 26.4 C 10.09167 km/h
259 06-08-2019 18:00:00 25.20833 C 14.4 g/m*3 25.21 C 4.84167 km/h
260 06-08-2019 19:00:00 22.54167 C 15.37 g/m*3 22.54 C 6.16667 km/h
261 06-08-2019 20:00:00 19.05 C 14.78 g/m*3 19.05 C 0.13333 km/h
262 06-08-2019 21:00:00 18.00833 C 14.32 g/m*3 18.01 C 0.53333 km/h
263 06-08-2019 22:00:00 17.51667 C 14.03 g/m*3 17.52 C 0.13333 km/h
264 06-08-2019 23:00:00 17.08333 C 13.8 g/m*3 17.08 C 1.075 km/h
265 07-08-2019 00:00:00 16.68333 C 13.49 g/m*3 16.68 C 0.13333 km/h
266 07-08-2019 01:00:00 16.3 C 13.25 g/m*3 16.3 C 0 km/h
267 07-08-2019 02:00:00 16.45833 C 13.45 g/m*3 16.46 C 1.2 km/h
268 07-08-2019 03:00:00 16.58333 C 13.58 g/m*3 16.58 C 0 km/h
269 07-08-2019 04:00:00 16.63333 C 13.73 g/m*3 16.63 C 0 km/h
270 07-08-2019 05:00:00 16.66667 C 13.76 g/m*3 16.67 C 0 km/h
271 07-08-2019 06:00:00 16.875 C 13.93 g/m*3 16.88 C 0.13333 km/h
272 07-08-2019 07:00:00 17.25 C 14.25 g/m*3 17.25 C 0.26667 km/h
273 07-08-2019 08:00:00 17.75833 C 14.69 g/m*3 17.76 C 0.66667 km/h
274 07-08-2019 09:00:00 18.25 C 15.12 g/m*3 18.25 C 4.15 km/h
275 07-08-2019 10:00:00 18.96667 C 15.68 g/m*3 18.97 C 1.6 km/h
Sensor: Nr:Datum:Temp:Abs-Feuchte:Windchill:Wind:
Aussen-T/F 276 07-08-2019 11:00:00 19.725 C 15.83 g/m*3 19.73 C 2.275 km/h
277 07-08-2019 12:00:00 20.83333 C 15.33 g/m*3 20.83 C 3.88333 km/h
278 07-08-2019 13:00:00 21.85833 C 14.69 g/m*3 21.86 C 5.76667 km/h
279 07-08-2019 14:00:00 22.525 C 15.07 g/m*3 22.53 C 7.375 km/h
280 07-08-2019 15:00:00 22.59167 C 14.64 g/m*3 22.59 C 10.48333 km/h
281 07-08-2019 16:00:00 22.08333 C 14.2 g/m*3 22.08 C 9.7 km/h
282 07-08-2019 17:00:00 22.53333 C 14.26 g/m*3 22.53 C 8.35 km/h
283 07-08-2019 18:00:00 23.35833 C 14.35 g/m*3 23.36 C 8.75 km/h
284 07-08-2019 19:00:00 22.38333 C 14.63 g/m*3 22.38 C 4.03333 km/h
285 07-08-2019 20:00:00 20.05833 C 14.48 g/m*3 20.06 C 2.55 km/h
286 07-08-2019 21:00:00 18.05 C 13.36 g/m*3 18.05 C 0.8 km/h
287 07-08-2019 22:00:00 16.74167 C 12.79 g/m*3 16.74 C 0.53333 km/h
288 07-08-2019 23:00:00 16.64167 C 12.63 g/m*3 16.64 C 1.06667 km/h
289 08-08-2019 00:00:00 15.76667 C 12.28 g/m*3 15.77 C 1.88333 km/h
290 08-08-2019 01:00:00 16.35 C 12.8 g/m*3 16.35 C 1.6 km/h
291 08-08-2019 02:00:00 16.45 C 12.88 g/m*3 16.45 C 0.66667 km/h
292 08-08-2019 03:00:00 16.44167 C 12.86 g/m*3 16.44 C 2.00833 km/h
293 08-08-2019 04:00:00 16.06667 C 12.68 g/m*3 16.07 C 0.13333 km/h
294 08-08-2019 05:00:00 15.31667 C 12.19 g/m*3 15.32 C 0.53333 km/h
295 08-08-2019 06:00:00 15.7 C 12.58 g/m*3 15.7 C 4.40833 km/h
296 08-08-2019 07:00:00 15.95 C 12.71 g/m*3 15.95 C 1.73333 km/h
297 08-08-2019 08:00:00 17.05833 C 13.24 g/m*3 17.06 C 8.75833 km/h
298 08-08-2019 09:00:00 18.55833 C 13.35 g/m*3 18.56 C 8.20833 km/h
299 08-08-2019 10:00:00 20.05833 C 12.66 g/m*3 20.06 C 11.29167 km/h
300 08-08-2019 11:00:00 21.74167 C 12.57 g/m*3 21.74 C 11.825 km/h
Sensor: Nr:Datum:Temp:Abs-Feuchte:Windchill:Wind:
Aussen-T/F 301 08-08-2019 12:00:00 22.99167 C 12.57 g/m*3 22.99 C 15.56667 km/h
302 08-08-2019 13:00:00 24.025 C 12.51 g/m*3 24.03 C 11.95833 km/h
303 08-08-2019 14:00:00 24.20833 C 12.62 g/m*3 24.21 C 10.1 km/h
304 08-08-2019 15:00:00 24.51667 C 12.81 g/m*3 24.52 C 7.51667 km/h
305 08-08-2019 16:00:00 26.58333 C 12.93 g/m*3 26.58 C 12.1 km/h
306 08-08-2019 17:00:00 27.18333 C 12.52 g/m*3 27.18 C 11.15833 km/h
307 08-08-2019 18:00:00 27.46667 C 12.5 g/m*3 27.47 C 8.875 km/h
308 08-08-2019 19:00:00 25.43333 C 14.64 g/m*3 25.43 C 0.94167 km/h
309 08-08-2019 20:00:00 23.575 C 14.35 g/m*3 23.58 C 0 km/h
310 08-08-2019 21:00:00 20.625 C 13.7 g/m*3 20.63 C 0 km/h
311 08-08-2019 22:00:00 19.15833 C 13.68 g/m*3 19.16 C 0 km/h
312 08-08-2019 23:00:00 18.16667 C 13.57 g/m*3 18.17 C 0 km/h
313 09-08-2019 00:00:00 17.15833 C 13.06 g/m*3 17.16 C 0 km/h
314 09-08-2019 01:00:00 16.25833 C 12.63 g/m*3 16.26 C 0 km/h
315 09-08-2019 02:00:00 15.875 C 12.44 g/m*3 15.88 C 0 km/h
316 09-08-2019 03:00:00 15.21667 C 12.05 g/m*3 15.22 C 0 km/h
317 09-08-2019 04:00:00 14.725 C 11.81 g/m*3 14.73 C 0 km/h
318 09-08-2019 05:00:00 14.44167 C 11.66 g/m*3 14.44 C 0 km/h
319 09-08-2019 06:00:00 14.56667 C 11.86 g/m*3 14.57 C 0 km/h
320 09-08-2019 07:00:00 15.40833 C 12.53 g/m*3 15.41 C 0 km/h
321 09-08-2019 08:00:00 16.44167 C 13.04 g/m*3 16.44 C 0.53333 km/h
322 09-08-2019 09:00:00 18.26667 C 13.71 g/m*3 18.27 C 0 km/h
323 09-08-2019 10:00:00 20.60833 C 14.46 g/m*3 20.61 C 0 km/h
324 09-08-2019 11:00:00 23.8 C 15.4 g/m*3 23.8 C 0.26667 km/h
325 09-08-2019 12:00:00 25.26667 C 15.38 g/m*3 25.27 C 0.26667 km/h
Sensor: Nr:Datum:Temp:Abs-Feuchte:Windchill:Wind:
Aussen-T/F 326 09-08-2019 13:00:00 25.275 C 15.53 g/m*3 25.28 C 0.13333 km/h
327 09-08-2019 14:00:00 24.75 C 17.55 g/m*3 24.75 C 0 km/h
328 09-08-2019 15:00:00 24.43333 C 18.3 g/m*3 24.43 C 0.26667 km/h
329 09-08-2019 16:00:00 27.25 C 18.24 g/m*3 27.25 C 4.55833 km/h
330 09-08-2019 17:00:00 25.45 C 19.24 g/m*3 25.45 C 0.8 km/h
331 09-08-2019 18:00:00 22.78333 C 18.05 g/m*3 22.78 C 1.33333 km/h
332 09-08-2019 19:00:00 21.5 C 17.55 g/m*3 21.5 C 8.59167 km/h
333 09-08-2019 20:00:00 19.63333 C 15.91 g/m*3 19.63 C 0.93333 km/h
334 09-08-2019 21:00:00 19.31667 C 15.86 g/m*3 19.32 C 0.93333 km/h
335 09-08-2019 22:00:00 19.30833 C 15.93 g/m*3 19.31 C 0.26667 km/h
336 09-08-2019 23:00:00 18.86667 C 15.52 g/m*3 18.87 C 0.13333 km/h
337 10-08-2019 00:00:00 18.775 C 15.53 g/m*3 18.77 C 0.26667 km/h
338 10-08-2019 01:00:00 18.73333 C 15.55 g/m*3 18.73 C 0 km/h
339 10-08-2019 02:00:00 18.50833 C 15.35 g/m*3 18.51 C 0 km/h
340 10-08-2019 03:00:00 18.29167 C 15.16 g/m*3 18.29 C 0.4 km/h
341 10-08-2019 04:00:00 18.11667 C 15 g/m*3 18.12 C 0 km/h
342 10-08-2019 05:00:00 17.53333 C 14.49 g/m*3 17.53 C 0 km/h
343 10-08-2019 06:00:00 17.45 C 14.42 g/m*3 17.45 C 0 km/h
344 10-08-2019 07:00:00 17.33333 C 14.32 g/m*3 17.33 C 4.96667 km/h
345 10-08-2019 08:00:00 17.41667 C 14.11 g/m*3 17.42 C 11.01667 km/h
346 10-08-2019 09:00:00 19.125 C 14.12 g/m*3 19.13 C 14.76667 km/h
347 10-08-2019 10:00:00 20.36667 C 14.04 g/m*3 20.37 C 14.36667 km/h
348 10-08-2019 11:00:00 21.43333 C 13.96 g/m*3 21.43 C 13.7 km/h
349 10-08-2019 12:00:00 22.38333 C 13.69 g/m*3 22.38 C 16.23333 km/h
350 10-08-2019 13:00:00 23.26667 C 13.23 g/m*3 23.27 C 16.76667 km/h
Sensor: Nr:Datum:Temp:Abs-Feuchte:Windchill:Wind:
Aussen-T/F 351 10-08-2019 14:00:00 23.83333 C 13.09 g/m*3 23.83 C 17.43333 km/h
352 10-08-2019 15:00:00 24.99167 C 12.75 g/m*3 24.99 C 17.43333 km/h
353 10-08-2019 16:00:00 25.24167 C 12.48 g/m*3 25.24 C 15.29167 km/h
354 10-08-2019 17:00:00 26.29167 C 12.19 g/m*3 26.29 C 15.3 km/h
355 10-08-2019 18:00:00 25.99167 C 11.94 g/m*3 25.99 C 13.43333 km/h
356 10-08-2019 19:00:00 25.00833 C 11.44 g/m*3 25.01 C 10.89167 km/h
357 10-08-2019 20:00:00 22.63333 C 12.33 g/m*3 22.63 C 2.275 km/h
358 10-08-2019 21:00:00 19.41667 C 12.14 g/m*3 19.42 C 0.26667 km/h
359 10-08-2019 22:00:00 17.71667 C 11.89 g/m*3 17.72 C 0 km/h
360 10-08-2019 23:00:00 16.45833 C 11.49 g/m*3 16.46 C 0.13333 km/h
361 11-08-2019 00:00:00 15.75833 C 11.39 g/m*3 15.76 C 0 km/h
362 11-08-2019 01:00:00 15.375 C 11.46 g/m*3 15.38 C 0 km/h
363 11-08-2019 02:00:00 15.7 C 11.57 g/m*3 15.7 C 0 km/h
364 11-08-2019 03:00:00 15.20833 C 11.23 g/m*3 15.21 C 0 km/h
365 11-08-2019 04:00:00 14.43333 C 10.94 g/m*3 14.43 C 0 km/h
366 11-08-2019 05:00:00 13.58333 C 10.6 g/m*3 13.58 C 0 km/h
367 11-08-2019 06:00:00 13.40833 C 10.78 g/m*3 13.41 C 0.26667 km/h
368 11-08-2019 07:00:00 14.04167 C 11.16 g/m*3 14.04 C 0 km/h
369 11-08-2019 08:00:00 14.9 C 11.64 g/m*3 14.9 C 0 km/h
370 11-08-2019 09:00:00 16.21667 C 12.02 g/m*3 16.22 C 0.53333 km/h
371 11-08-2019 10:00:00 19.375 C 11.62 g/m*3 19.38 C 9.00833 km/h
372 11-08-2019 11:00:00 21.26667 C 11.02 g/m*3 21.27 C 11.825 km/h
373 11-08-2019 12:00:00 22.09167 C 10.89 g/m*3 22.09 C 10.75833 km/h
374 11-08-2019 13:00:00 22.775 C 10.37 g/m*3 22.78 C 14.5 km/h
375 11-08-2019 14:00:00 22.89167 C 10.74 g/m*3 22.89 C 9.14167 km/h
Sensor: Nr:Datum:Temp:Abs-Feuchte:Windchill:Wind:
Aussen-T/F 376 11-08-2019 15:00:00 21.50833 C 11.57 g/m*3 21.51 C 3.2 km/h
377 11-08-2019 16:00:00 20.05 C 12.13 g/m*3 20.05 C 3.34167 km/h
378 11-08-2019 17:00:00 17.18333 C 12.7 g/m*3 17.18 C 2.26667 km/h
379 11-08-2019 18:00:00 16.475 C 12.68 g/m*3 16.48 C 1.73333 km/h
380 11-08-2019 19:00:00 16.075 C 12.27 g/m*3 16.08 C 1.06667 km/h
381 11-08-2019 20:00:00 15.775 C 12.23 g/m*3 15.78 C 0.26667 km/h
382 11-08-2019 21:00:00 15.23333 C 11.93 g/m*3 15.23 C 0.8 km/h
383 11-08-2019 22:00:00 14.3 C 11.28 g/m*3 14.3 C 0.66667 km/h
384 11-08-2019 23:00:00 14.24167 C 11.43 g/m*3 14.24 C 1.46667 km/h
385 12-08-2019 00:00:00 14.85833 C 11.77 g/m*3 14.86 C 2.4 km/h
386 12-08-2019 01:00:00 14.325 C 11.33 g/m*3 14.33 C 1.33333 km/h
387 12-08-2019 02:00:00 13.66667 C 11.04 g/m*3 13.67 C 0.26667 km/h
388 12-08-2019 03:00:00 13.125 C 10.74 g/m*3 13.13 C 0 km/h
389 12-08-2019 04:00:00 12.89167 C 10.7 g/m*3 12.89 C 0 km/h
390 12-08-2019 05:00:00 12.675 C 10.56 g/m*3 12.68 C 0 km/h
391 12-08-2019 06:00:00 12.69167 C 10.63 g/m*3 12.69 C 0 km/h
392 12-08-2019 07:00:00 13.05833 C 10.93 g/m*3 13.06 C 0 km/h
393 12-08-2019 08:00:00 13.5 C 11.23 g/m*3 13.5 C 0 km/h
394 12-08-2019 09:00:00 15.05 C 11.91 g/m*3 15.05 C 3.075 km/h
395 12-08-2019 10:00:00 17.65 C 12.41 g/m*3 17.65 C 6.58333 km/h
396 12-08-2019 11:00:00 20.08333 C 12.61 g/m*3 20.08 C 7.525 km/h
397 12-08-2019 12:00:00 21.275 C 12.22 g/m*3 21.28 C 8.60833 km/h
398 12-08-2019 13:00:00 21.775 C 11.64 g/m*3 21.78 C 10.89167 km/h
399 12-08-2019 14:00:00 22.55 C 12.07 g/m*3 22.55 C 11.3 km/h
400 12-08-2019 15:00:00 23.475 C 11.74 g/m*3 23.48 C 12.625 km/h
Sensor: Nr:Datum:Temp:Abs-Feuchte:Windchill:Wind:
Aussen-T/F 401 12-08-2019 16:00:00 22.54167 C 11.71 g/m*3 22.54 C 14.5 km/h
402 12-08-2019 17:00:00 17.89167 C 11.79 g/m*3 17.89 C 5.89167 km/h
403 12-08-2019 18:00:00 15.925 C 12.21 g/m*3 15.93 C 0.4 km/h
404 12-08-2019 19:00:00 15.925 C 12.48 g/m*3 15.93 C 0.53333 km/h
405 12-08-2019 20:00:00 15.54167 C 12.21 g/m*3 15.54 C 0.26667 km/h
406 12-08-2019 21:00:00 15.19167 C 12.14 g/m*3 15.19 C 0.26667 km/h
407 12-08-2019 22:00:00 14.975 C 12.04 g/m*3 14.98 C 0.66667 km/h
408 12-08-2019 23:00:00 14.01667 C 11.19 g/m*3 14.02 C 0.53333 km/h
409 13-08-2019 00:00:00 13.55833 C 11.06 g/m*3 13.56 C 0.26667 km/h
410 13-08-2019 01:00:00 13.025 C 10.71 g/m*3 13.03 C 0.26667 km/h
411 13-08-2019 02:00:00 12.83333 C 10.69 g/m*3 12.83 C 0.53333 km/h
412 13-08-2019 03:00:00 12.9 C 10.77 g/m*3 12.9 C 0 km/h
413 13-08-2019 04:00:00 13.275 C 11.05 g/m*3 13.28 C 2.14167 km/h
414 13-08-2019 05:00:00 13.18333 C 10.9 g/m*3 13.18 C 1.475 km/h
415 13-08-2019 06:00:00 12.75 C 10.63 g/m*3 12.75 C 0.53333 km/h
416 13-08-2019 07:00:00 12.9 C 10.74 g/m*3 12.9 C 2.13333 km/h
417 13-08-2019 08:00:00 13.39167 C 10.78 g/m*3 13.39 C 6.85 km/h
418 13-08-2019 09:00:00 14.85 C 11.03 g/m*3 14.85 C 6.96667 km/h
419 13-08-2019 10:00:00 16.225 C 10.31 g/m*3 16.23 C 10.08333 km/h
420 13-08-2019 11:00:00 17.175 C 9.83 g/m*3 17.18 C 10.625 km/h
421 13-08-2019 12:00:00 18.13333 C 9.82 g/m*3 18.13 C 11.15833 km/h
422 13-08-2019 13:00:00 19.025 C 9.08 g/m*3 19.02 C 10.76667 km/h
423 13-08-2019 14:00:00 19.875 C 9.06 g/m*3 19.88 C 11.01667 km/h
424 13-08-2019 15:00:00 21.275 C 9.37 g/m*3 21.28 C 13.56667 km/h
425 13-08-2019 16:00:00 21.38333 C 9.54 g/m*3 21.38 C 11.15833 km/h
Sensor: Nr:Datum:Temp:Abs-Feuchte:Windchill:Wind:
Aussen-T/F 426 13-08-2019 17:00:00 21.25833 C 9.39 g/m*3 21.26 C 9.41667 km/h
427 13-08-2019 18:00:00 21.175 C 9.59 g/m*3 21.18 C 8.73333 km/h
428 13-08-2019 19:00:00 18.53333 C 10.26 g/m*3 18.53 C 9.39167 km/h
429 13-08-2019 20:00:00 14.91667 C 11.06 g/m*3 14.92 C 0.93333 km/h
430 13-08-2019 21:00:00 13.99167 C 11.01 g/m*3 13.99 C 0 km/h
431 13-08-2019 22:00:00 13.63333 C 10.92 g/m*3 13.63 C 0 km/h
432 13-08-2019 23:00:00 13.36667 C 10.79 g/m*3 13.37 C 0 km/h
433 14-08-2019 00:00:00 13.05 C 10.59 g/m*3 13.05 C 0 km/h
434 14-08-2019 01:00:00 12.61667 C 10.32 g/m*3 12.62 C 0 km/h
435 14-08-2019 02:00:00 12.10833 C 10 g/m*3 12.11 C 0 km/h
436 14-08-2019 03:00:00 11.93333 C 9.98 g/m*3 11.93 C 0 km/h
437 14-08-2019 04:00:00 11.43333 C 9.68 g/m*3 11.43 C 0 km/h
438 14-08-2019 05:00:00 11.00833 C 9.51 g/m*3 11.01 C 0 km/h
439 14-08-2019 06:00:00 10.61667 C 9.3 g/m*3 10.62 C 0 km/h
440 14-08-2019 07:00:00 10.61667 C 9.38 g/m*3 10.62 C 0 km/h
441 14-08-2019 08:00:00 11.4 C 9.89 g/m*3 11.4 C 2.01667 km/h
442 14-08-2019 09:00:00 13.28333 C 10.79 g/m*3 13.28 C 5.625 km/h
443 14-08-2019 10:00:00 14.26667 C 11.26 g/m*3 14.27 C 0.13333 km/h
444 14-08-2019 11:00:00 15.66667 C 11.12 g/m*3 15.67 C 2 km/h
445 14-08-2019 12:00:00 18.1 C 9.7 g/m*3 18.1 C 8.70833 km/h
446 14-08-2019 13:00:00 19.59167 C 9.28 g/m*3 19.59 C 9.00833 km/h
447 14-08-2019 14:00:00 21.08333 C 9.23 g/m*3 21.08 C 11.00833 km/h
448 14-08-2019 15:00:00 22.60833 C 9.9 g/m*3 22.61 C 10.475 km/h
449 14-08-2019 16:00:00 23.74167 C 9.92 g/m*3 23.74 C 11.69167 km/h
450 14-08-2019 17:00:00 24.44167 C 9.98 g/m*3 24.44 C 13.43333 km/h
Sensor: Nr:Datum:Temp:Abs-Feuchte:Windchill:Wind:
Aussen-T/F 451 14-08-2019 18:00:00 24 C 10.17 g/m*3 24 C 11.96667 km/h
452 14-08-2019 19:00:00 22.31667 C 11.17 g/m*3 22.32 C 5.1 km/h
453 14-08-2019 20:00:00 19.675 C 11.46 g/m*3 19.68 C 0 km/h
454 14-08-2019 21:00:00 18.1 C 11.45 g/m*3 18.1 C 0 km/h
455 14-08-2019 22:00:00 17.63333 C 11.45 g/m*3 17.63 C 0 km/h
456 14-08-2019 23:00:00 17.4 C 11.34 g/m*3 17.4 C 0 km/h
457 15-08-2019 00:00:00 17.35833 C 11.32 g/m*3 17.36 C 0.26667 km/h
458 15-08-2019 01:00:00 17.38333 C 11.47 g/m*3 17.38 C 0.13333 km/h
459 15-08-2019 02:00:00 16.2 C 12.19 g/m*3 16.2 C 0.66667 km/h
460 15-08-2019 03:00:00 15.275 C 12.05 g/m*3 15.28 C 0 km/h
461 15-08-2019 04:00:00 14.90833 C 11.94 g/m*3 14.91 C 0.13333 km/h
462 15-08-2019 05:00:00 14.84167 C 11.96 g/m*3 14.84 C 0 km/h
463 15-08-2019 06:00:00 14.96667 C 12.14 g/m*3 14.97 C 0.4 km/h
464 15-08-2019 07:00:00 15.6 C 12.28 g/m*3 15.6 C 3.35833 km/h
465 15-08-2019 08:00:00 17.59167 C 12.58 g/m*3 17.59 C 11.025 km/h
466 15-08-2019 09:00:00 18.48333 C 12.88 g/m*3 18.48 C 11.025 km/h
467 15-08-2019 10:00:00 19.14167 C 13.31 g/m*3 19.14 C 12.76667 km/h
468 15-08-2019 11:00:00 19.28333 C 13.52 g/m*3 19.28 C 12.49167 km/h
469 15-08-2019 12:00:00 19.90833 C 13.69 g/m*3 19.91 C 12.89167 km/h
470 15-08-2019 13:00:00 18.94167 C 14.4 g/m*3 18.94 C 8.73333 km/h
471 15-08-2019 14:00:00 19.73333 C 14.63 g/m*3 19.73 C 10.20833 km/h
472 15-08-2019 15:00:00 20.79167 C 14.72 g/m*3 20.79 C 12.88333 km/h
473 15-08-2019 16:00:00 19.325 C 14.88 g/m*3 19.33 C 11.95833 km/h
474 15-08-2019 17:00:00 17.3 C 13.69 g/m*3 17.3 C 4.41667 km/h
475 15-08-2019 18:00:00 16.975 C 13.61 g/m*3 16.98 C 2.66667 km/h
Sensor: Nr:Datum:Temp:Abs-Feuchte:Windchill:Wind:
Aussen-T/F 476 15-08-2019 19:00:00 17.25 C 13.89 g/m*3 17.25 C 1.2 km/h
477 15-08-2019 20:00:00 17.09167 C 13.76 g/m*3 17.09 C 1.33333 km/h
478 15-08-2019 21:00:00 16.40833 C 13.23 g/m*3 16.41 C 2.54167 km/h
479 15-08-2019 22:00:00 15.93333 C 12.83 g/m*3 15.93 C 1.46667 km/h
480 15-08-2019 23:00:00 15.54167 C 12.59 g/m*3 15.54 C 1.06667 km/h
481 16-08-2019 00:00:00 15.29167 C 12.41 g/m*3 15.29 C 0.53333 km/h
482 16-08-2019 01:00:00 14.63333 C 11.94 g/m*3 14.63 C 0.13333 km/h
483 16-08-2019 02:00:00 14.575 C 11.99 g/m*3 14.58 C 0.8 km/h
484 16-08-2019 03:00:00 14.64167 C 12.04 g/m*3 14.64 C 0.4 km/h
485 16-08-2019 04:00:00 14.08333 C 11.64 g/m*3 14.08 C 0 km/h
486 16-08-2019 05:00:00 13.575 C 11.31 g/m*3 13.58 C 0.66667 km/h
487 16-08-2019 06:00:00 13.69167 C 11.48 g/m*3 13.69 C 2.26667 km/h
488 16-08-2019 07:00:00 14.18333 C 11.78 g/m*3 14.18 C 2.54167 km/h
489 16-08-2019 08:00:00 14.45833 C 11.8 g/m*3 14.46 C 5.1 km/h
490 16-08-2019 09:00:00 15.54167 C 11.89 g/m*3 15.54 C 9.29167 km/h
491 16-08-2019 10:00:00 16.26667 C 11.87 g/m*3 16.27 C 12.36667 km/h
492 16-08-2019 11:00:00 17.1 C 12 g/m*3 17.1 C 11.56667 km/h
493 16-08-2019 12:00:00 18.43333 C 12.04 g/m*3 18.43 C 12.9 km/h
494 16-08-2019 13:00:00 19.65 C 11.98 g/m*3 19.65 C 16.5 km/h
495 16-08-2019 14:00:00 20.4 C 11.97 g/m*3 20.4 C 12.76667 km/h
496 16-08-2019 15:00:00 21.90833 C 11.78 g/m*3 21.91 C 10.9 km/h
497 16-08-2019 16:00:00 23.63333 C 11.61 g/m*3 23.63 C 11.03333 km/h
498 16-08-2019 17:00:00 24.475 C 11.58 g/m*3 24.48 C 11.41667 km/h
499 16-08-2019 18:00:00 24.43333 C 11.61 g/m*3 24.43 C 9.94167 km/h
500 16-08-2019 19:00:00 23.41667 C 12.24 g/m*3 23.42 C 6.325 km/h
Sensor: Nr:Datum:Temp:Abs-Feuchte:Windchill:Wind:
Aussen-T/F 501 16-08-2019 20:00:00 20.075 C 12.43 g/m*3 20.08 C 0.13333 km/h
502 16-08-2019 21:00:00 17.75833 C 12.16 g/m*3 17.76 C 0 km/h
503 16-08-2019 22:00:00 16.88333 C 12.19 g/m*3 16.88 C 0 km/h
504 16-08-2019 23:00:00 16.23333 C 11.96 g/m*3 16.23 C 0 km/h
505 17-08-2019 00:00:00 15.69167 C 11.75 g/m*3 15.69 C 0 km/h
506 17-08-2019 01:00:00 15.86667 C 11.93 g/m*3 15.87 C 0 km/h
507 17-08-2019 02:00:00 15.76667 C 11.91 g/m*3 15.77 C 0 km/h
508 17-08-2019 03:00:00 15.76667 C 12.24 g/m*3 15.77 C 0 km/h
509 17-08-2019 04:00:00 15.69167 C 12.47 g/m*3 15.69 C 0 km/h
510 17-08-2019 05:00:00 15.63333 C 12.53 g/m*3 15.63 C 0 km/h
511 17-08-2019 06:00:00 15.65833 C 12.55 g/m*3 15.66 C 0 km/h
512 17-08-2019 07:00:00 16.13333 C 12.91 g/m*3 16.13 C 0.26667 km/h
513 17-08-2019 08:00:00 16.95833 C 13.1 g/m*3 16.96 C 3.075 km/h
514 17-08-2019 09:00:00 18.66667 C 12.81 g/m*3 18.67 C 7.76667 km/h
515 17-08-2019 10:00:00 19.01667 C 13.23 g/m*3 19.02 C 2.13333 km/h
516 17-08-2019 11:00:00 18.59167 C 13.81 g/m*3 18.59 C 1.60833 km/h
517 17-08-2019 12:00:00 19.275 C 14.11 g/m*3 19.27 C 2.14167 km/h
518 17-08-2019 13:00:00 20.68333 C 13.73 g/m*3 20.68 C 12.625 km/h
519 17-08-2019 14:00:00 21 C 13.72 g/m*3 21 C 10.35 km/h
520 17-08-2019 15:00:00 21.31667 C 13.96 g/m*3 21.32 C 8.34167 km/h
521 17-08-2019 16:00:00 21 C 13.91 g/m*3 21 C 8.85833 km/h
522 17-08-2019 17:00:00 20.44167 C 13.82 g/m*3 20.44 C 4.55833 km/h
523 17-08-2019 18:00:00 19.975 C 14.34 g/m*3 19.98 C 0.93333 km/h
524 17-08-2019 19:00:00 19.125 C 14.49 g/m*3 19.13 C 0.4 km/h
525 17-08-2019 20:00:00 18.325 C 14.26 g/m*3 18.33 C 0.13333 km/h
Sensor: Nr:Datum:Temp:Abs-Feuchte:Windchill:Wind:
Aussen-T/F 526 17-08-2019 21:00:00 17.84167 C 14.1 g/m*3 17.84 C 0.26667 km/h
527 17-08-2019 22:00:00 17.74167 C 14.22 g/m*3 17.74 C 0.4 km/h
528 17-08-2019 23:00:00 17.525 C 14.13 g/m*3 17.52 C 0.13333 km/h
529 18-08-2019 00:00:00 17.4 C 14.08 g/m*3 17.4 C 0 km/h
530 18-08-2019 01:00:00 17.38333 C 14.15 g/m*3 17.38 C 0 km/h
531 18-08-2019 02:00:00 17.225 C 14.08 g/m*3 17.23 C 0 km/h
532 18-08-2019 03:00:00 17.2 C 14.06 g/m*3 17.2 C 0 km/h
533 18-08-2019 04:00:00 17.18333 C 14.04 g/m*3 17.18 C 0 km/h
534 18-08-2019 05:00:00 17.3 C 14.25 g/m*3 17.3 C 0 km/h
535 18-08-2019 06:00:00 17.26667 C 14.26 g/m*3 17.27 C 0 km/h
536 18-08-2019 07:00:00 17.34167 C 14.33 g/m*3 17.34 C 0 km/h
537 18-08-2019 08:00:00 17.93333 C 14.84 g/m*3 17.93 C 0 km/h
538 18-08-2019 09:00:00 18.85833 C 15.72 g/m*3 18.86 C 0 km/h
539 18-08-2019 10:00:00 19.93333 C 16.77 g/m*3 19.93 C 1.33333 km/h
540 18-08-2019 11:00:00 22.19167 C 18.07 g/m*3 22.19 C 9.00833 km/h
541 18-08-2019 12:00:00 24.075 C 16.99 g/m*3 24.08 C 17.03333 km/h
542 18-08-2019 13:00:00 24.4 C 16.88 g/m*3 24.4 C 15.98333 km/h
543 18-08-2019 14:00:00 24.725 C 16.96 g/m*3 24.73 C 17.84167 km/h
544 18-08-2019 15:00:00 24.7 C 17.16 g/m*3 24.7 C 15.03333 km/h
545 18-08-2019 16:00:00 24.99167 C 16.74 g/m*3 24.99 C 14.9 km/h
546 18-08-2019 17:00:00 24.35 C 16.14 g/m*3 24.35 C 15.83333 km/h
547 18-08-2019 18:00:00 20.49167 C 16.3 g/m*3 20.49 C 1.33333 km/h
548 18-08-2019 19:00:00 20.00833 C 16.22 g/m*3 20.01 C 1.2 km/h
549 18-08-2019 20:00:00 19.45833 C 15.85 g/m*3 19.46 C 1.86667 km/h
550 18-08-2019 21:00:00 18.8 C 15.19 g/m*3 18.8 C 0.93333 km/h
Sensor: Nr:Datum:Temp:Abs-Feuchte:Windchill:Wind:
Aussen-T/F 551 18-08-2019 22:00:00 17.65 C 14.22 g/m*3 17.65 C 0.8 km/h
552 18-08-2019 23:00:00 16.59167 C 13.41 g/m*3 16.59 C 1.06667 km/h
553 19-08-2019 00:00:00 16.14167 C 13.19 g/m*3 16.14 C 0.53333 km/h
554 19-08-2019 01:00:00 16.10833 C 13.17 g/m*3 16.11 C 0.93333 km/h
555 19-08-2019 02:00:00 15.81667 C 12.94 g/m*3 15.82 C 0.26667 km/h
556 19-08-2019 03:00:00 15.38333 C 12.61 g/m*3 15.38 C 0 km/h
557 19-08-2019 04:00:00 14.78333 C 12.17 g/m*3 14.78 C 0 km/h
558 19-08-2019 05:00:00 15.125 C 12.53 g/m*3 15.13 C 0.13333 km/h
559 19-08-2019 06:00:00 14.61667 C 12.13 g/m*3 14.62 C 0 km/h
560 19-08-2019 07:00:00 15.025 C 12.48 g/m*3 15.03 C 2 km/h
561 19-08-2019 08:00:00 15.65833 C 12.95 g/m*3 15.66 C 0.93333 km/h
562 19-08-2019 09:00:00 15.89167 C 13.07 g/m*3 15.89 C 6.03333 km/h
563 19-08-2019 10:00:00 16.63333 C 12.41 g/m*3 16.63 C 7.79167 km/h
564 19-08-2019 11:00:00 18.55833 C 11.87 g/m*3 18.56 C 10.36667 km/h
565 19-08-2019 12:00:00 20.275 C 11.33 g/m*3 20.27 C 11.95833 km/h
566 19-08-2019 13:00:00 21.525 C 11.02 g/m*3 21.53 C 11.69167 km/h
567 19-08-2019 14:00:00 22.79167 C 10.93 g/m*3 22.79 C 13.7 km/h
568 19-08-2019 15:00:00 23.46667 C 10.69 g/m*3 23.47 C 13.55833 km/h
569 19-08-2019 16:00:00 23.78333 C 10.89 g/m*3 23.78 C 11.425 km/h
570 19-08-2019 17:00:00 24.025 C 10.55 g/m*3 24.03 C 11.68333 km/h
571 19-08-2019 18:00:00 23.51667 C 10.69 g/m*3 23.52 C 7.65 km/h
572 19-08-2019 19:00:00 22.95833 C 11.55 g/m*3 22.96 C 4.7 km/h
573 19-08-2019 20:00:00 19.71667 C 11.84 g/m*3 19.72 C 0.8 km/h
574 19-08-2019 21:00:00 17.30833 C 11.03 g/m*3 17.31 C 0 km/h
575 19-08-2019 22:00:00 16.51667 C 11.29 g/m*3 16.52 C 0 km/h
Sensor: Nr:Datum:Temp:Abs-Feuchte:Windchill:Wind:
Aussen-T/F 576 19-08-2019 23:00:00 15.21667 C 10.86 g/m*3 15.22 C 0.13333 km/h
577 20-08-2019 00:00:00 13.975 C 10.43 g/m*3 13.98 C 0 km/h
578 20-08-2019 01:00:00 13.21667 C 10.16 g/m*3 13.22 C 0.53333 km/h
579 20-08-2019 02:00:00 12.825 C 10.09 g/m*3 12.83 C 2.13333 km/h
580 20-08-2019 03:00:00 12.21667 C 9.79 g/m*3 12.22 C 0 km/h
581 20-08-2019 04:00:00 11.34167 C 9.46 g/m*3 11.34 C 0.4 km/h
582 20-08-2019 05:00:00 10.9 C 9.32 g/m*3 10.9 C 0.13333 km/h
583 20-08-2019 06:00:00 10.425 C 9.12 g/m*3 10.43 C 0.26667 km/h
584 20-08-2019 07:00:00 10.78333 C 9.41 g/m*3 10.78 C 0 km/h
585 20-08-2019 08:00:00 11.425 C 9.83 g/m*3 11.43 C 0.93333 km/h
586 20-08-2019 09:00:00 12.61667 C 10.53 g/m*3 12.62 C 1.06667 km/h
587 20-08-2019 10:00:00 15.26667 C 11.21 g/m*3 15.27 C 0.66667 km/h
588 20-08-2019 11:00:00 17.375 C 10.89 g/m*3 17.38 C 2.13333 km/h
589 20-08-2019 12:00:00 18.625 C 10.65 g/m*3 18.63 C 1.46667 km/h
590 20-08-2019 13:00:00 19.525 C 10.45 g/m*3 19.52 C 3.875 km/h
591 20-08-2019 14:00:00 20.43333 C 10.16 g/m*3 20.43 C 4.54167 km/h
592 20-08-2019 15:00:00 21.10833 C 10.37 g/m*3 21.11 C 5.08333 km/h
593 20-08-2019 16:00:00 21.41667 C 11.04 g/m*3 21.42 C 2.13333 km/h
594 20-08-2019 17:00:00 20.68333 C 11.59 g/m*3 20.68 C 2.40833 km/h
595 20-08-2019 18:00:00 20.375 C 13.06 g/m*3 20.38 C 0.26667 km/h
596 20-08-2019 19:00:00 18.88333 C 12.11 g/m*3 18.88 C 0.13333 km/h
597 20-08-2019 20:00:00 17.58333 C 11.35 g/m*3 17.58 C 0.8 km/h
598 20-08-2019 21:00:00 16.76667 C 11.4 g/m*3 16.77 C 0.26667 km/h
599 20-08-2019 22:00:00 15.925 C 11.36 g/m*3 15.93 C 0.4 km/h
600 20-08-2019 23:00:00 15.175 C 11.02 g/m*3 15.18 C 0.26667 km/h
Sensor: Nr:Datum:Temp:Abs-Feuchte:Windchill:Wind:
Aussen-T/F 601 21-08-2019 00:00:00 14.11667 C 10.59 g/m*3 14.12 C 0 km/h
602 21-08-2019 01:00:00 13.55833 C 10.42 g/m*3 13.56 C 0 km/h
603 21-08-2019 02:00:00 12.65833 C 10.08 g/m*3 12.66 C 0.13333 km/h
604 21-08-2019 03:00:00 11.99167 C 9.85 g/m*3 11.99 C 0.13333 km/h
605 21-08-2019 04:00:00 11.30833 C 9.54 g/m*3 11.31 C 0.13333 km/h
606 21-08-2019 05:00:00 10.73333 C 9.25 g/m*3 10.73 C 0 km/h
607 21-08-2019 06:00:00 10.325 C 9.1 g/m*3 10.33 C 0 km/h
608 21-08-2019 07:00:00 10.35833 C 9.16 g/m*3 10.36 C 0.26667 km/h
609 21-08-2019 08:00:00 10.85833 C 9.52 g/m*3 10.86 C 0.13333 km/h
610 21-08-2019 09:00:00 11.86667 C 10.15 g/m*3 11.87 C 0.66667 km/h
611 21-08-2019 10:00:00 13.33333 C 11.14 g/m*3 13.33 C 0 km/h
612 21-08-2019 11:00:00 15.80833 C 12.13 g/m*3 15.81 C 0.93333 km/h
613 21-08-2019 12:00:00 18.54167 C 11.58 g/m*3 18.54 C 1.46667 km/h
614 21-08-2019 13:00:00 20.375 C 10.25 g/m*3 20.38 C 5.38333 km/h
615 21-08-2019 14:00:00 21.79167 C 10.04 g/m*3 21.79 C 6.575 km/h
616 21-08-2019 15:00:00 22.95833 C 10.3 g/m*3 22.96 C 2.13333 km/h
617 21-08-2019 16:00:00 24.475 C 9.39 g/m*3 24.48 C 7.23333 km/h
618 21-08-2019 17:00:00 24.65 C 9.4 g/m*3 24.65 C 4.28333 km/h
619 21-08-2019 18:00:00 24.64167 C 10 g/m*3 24.64 C 4.94167 km/h
620 21-08-2019 19:00:00 23.46667 C 11.61 g/m*3 23.47 C 1.6 km/h
621 21-08-2019 20:00:00 19.875 C 11.09 g/m*3 19.88 C 0 km/h
622 21-08-2019 21:00:00 17.49167 C 9.97 g/m*3 17.49 C 0.4 km/h
623 21-08-2019 22:00:00 16.29167 C 9.59 g/m*3 16.29 C 0 km/h
624 21-08-2019 23:00:00 15.05833 C 9.99 g/m*3 15.06 C 0 km/h
625 22-08-2019 00:00:00 13.475 C 9.75 g/m*3 13.48 C 0 km/h
Sensor: Nr:Datum:Temp:Abs-Feuchte:Windchill:Wind:
Aussen-T/F 626 22-08-2019 01:00:00 12.41667 C 9.41 g/m*3 12.42 C 0 km/h
627 22-08-2019 02:00:00 11.66667 C 9.25 g/m*3 11.67 C 0 km/h
628 22-08-2019 03:00:00 11.125 C 9.12 g/m*3 11.13 C 0 km/h
629 22-08-2019 04:00:00 10.55833 C 8.92 g/m*3 10.56 C 0 km/h
630 22-08-2019 05:00:00 9.99167 C 8.7 g/m*3 9.99 C 0 km/h
631 22-08-2019 06:00:00 9.71667 C 8.65 g/m*3 9.72 C 0 km/h
632 22-08-2019 07:00:00 9.7 C 8.73 g/m*3 9.7 C 0 km/h
633 22-08-2019 08:00:00 10.30833 C 9.13 g/m*3 10.31 C 0 km/h
634 22-08-2019 09:00:00 11.525 C 9.93 g/m*3 11.53 C 0 km/h
635 22-08-2019 10:00:00 13.51667 C 11.07 g/m*3 13.52 C 0 km/h
636 22-08-2019 11:00:00 16.925 C 11.87 g/m*3 16.93 C 0 km/h
637 22-08-2019 12:00:00 20.11667 C 11.46 g/m*3 20.12 C 3.46667 km/h
638 22-08-2019 13:00:00 22.71667 C 10.89 g/m*3 22.72 C 5.09167 km/h
639 22-08-2019 14:00:00 24.08333 C 10.49 g/m*3 24.08 C 6.71667 km/h
640 22-08-2019 15:00:00 25.89167 C 9.9 g/m*3 25.89 C 6.84167 km/h
641 22-08-2019 16:00:00 27.33333 C 9.76 g/m*3 27.33 C 6.16667 km/h
642 22-08-2019 17:00:00 28.01667 C 9.41 g/m*3 28.02 C 6.16667 km/h
643 22-08-2019 18:00:00 28.38333 C 9.67 g/m*3 28.38 C 3.46667 km/h
644 22-08-2019 19:00:00 26.06667 C 11.97 g/m*3 26.07 C 0.26667 km/h
645 22-08-2019 20:00:00 21.49167 C 11.04 g/m*3 21.49 C 0.26667 km/h
646 22-08-2019 21:00:00 18.25 C 10.74 g/m*3 18.25 C 0 km/h
647 22-08-2019 22:00:00 16.40833 C 10.6 g/m*3 16.41 C 0 km/h
648 22-08-2019 23:00:00 14.90833 C 10.12 g/m*3 14.91 C 0 km/h
649 23-08-2019 00:00:00 13.94167 C 9.97 g/m*3 13.94 C 0 km/h
650 23-08-2019 01:00:00 13.26667 C 9.81 g/m*3 13.27 C 0 km/h
Sensor: Nr:Datum:Temp:Abs-Feuchte:Windchill:Wind:
Aussen-T/F 651 23-08-2019 02:00:00 12.775 C 9.72 g/m*3 12.78 C 0 km/h
652 23-08-2019 03:00:00 11.975 C 9.49 g/m*3 11.98 C 0 km/h
653 23-08-2019 04:00:00 11.56667 C 9.45 g/m*3 11.57 C 0 km/h
654 23-08-2019 05:00:00 11.06667 C 9.24 g/m*3 11.07 C 0 km/h
655 23-08-2019 06:00:00 10.66667 C 9.14 g/m*3 10.67 C 0 km/h
656 23-08-2019 07:00:00 10.7 C 9.25 g/m*3 10.7 C 0 km/h
657 23-08-2019 08:00:00 11.3 C 9.68 g/m*3 11.3 C 0 km/h
658 23-08-2019 09:00:00 12.35 C 10.35 g/m*3 12.35 C 0 km/h
659 23-08-2019 10:00:00 14.34167 C 11.59 g/m*3 14.34 C 0 km/h
660 23-08-2019 11:00:00 17.6 C 12.75 g/m*3 17.6 C 0 km/h
661 23-08-2019 12:00:00 21.16667 C 12.76 g/m*3 21.17 C 1.46667 km/h
662 23-08-2019 13:00:00 24.1 C 11.12 g/m*3 24.1 C 3.86667 km/h
663 23-08-2019 14:00:00 26.13333 C 10.36 g/m*3 26.13 C 7.925 km/h
664 23-08-2019 15:00:00 27.85833 C 10.32 g/m*3 27.86 C 6.84167 km/h
665 23-08-2019 16:00:00 29.15 C 10.11 g/m*3 29.15 C 9.28333 km/h
666 23-08-2019 17:00:00 29.375 C 9.97 g/m*3 29.38 C 12.5 km/h
667 23-08-2019 18:00:00 28.94167 C 9.47 g/m*3 28.94 C 12.36667 km/h
668 23-08-2019 19:00:00 27.20833 C 12.06 g/m*3 27.21 C 1.875 km/h
669 23-08-2019 20:00:00 23.01667 C 11.42 g/m*3 23.02 C 0.66667 km/h
670 23-08-2019 21:00:00 20.16667 C 11.34 g/m*3 20.17 C 0 km/h
671 23-08-2019 22:00:00 17.85 C 11.09 g/m*3 17.85 C 0 km/h
672 23-08-2019 23:00:00 16.23333 C 10.61 g/m*3 16.23 C 0 km/h
673 24-08-2019 00:00:00 14.96667 C 10.33 g/m*3 14.97 C 0 km/h
674 24-08-2019 01:00:00 14.05833 C 10.23 g/m*3 14.06 C 0 km/h
675 24-08-2019 02:00:00 13.425 C 10.07 g/m*3 13.43 C 0 km/h
Sensor: Nr:Datum:Temp:Abs-Feuchte:Windchill:Wind:
Aussen-T/F 676 24-08-2019 03:00:00 12.7 C 9.88 g/m*3 12.7 C 0 km/h
677 24-08-2019 04:00:00 12.06667 C 9.67 g/m*3 12.07 C 0 km/h
678 24-08-2019 05:00:00 11.66667 C 9.58 g/m*3 11.67 C 0 km/h
679 24-08-2019 06:00:00 11.425 C 9.54 g/m*3 11.43 C 0 km/h
680 24-08-2019 07:00:00 11.575 C 9.75 g/m*3 11.58 C 0 km/h
681 24-08-2019 08:00:00 12.06667 C 10.08 g/m*3 12.07 C 0 km/h
682 24-08-2019 09:00:00 13.23333 C 10.82 g/m*3 13.23 C 0 km/h
683 24-08-2019 10:00:00 15.5 C 12.09 g/m*3 15.5 C 0.4 km/h
684 24-08-2019 11:00:00 18.88333 C 12.89 g/m*3 18.88 C 0.66667 km/h
685 24-08-2019 12:00:00 22.24167 C 13.01 g/m*3 22.24 C 2.66667 km/h
686 24-08-2019 13:00:00 25.4 C 12.28 g/m*3 25.4 C 7.78333 km/h
687 24-08-2019 14:00:00 27.05 C 11.27 g/m*3 27.05 C 8.58333 km/h
688 24-08-2019 15:00:00 28.69167 C 10.64 g/m*3 28.69 C 8.875 km/h
689 24-08-2019 16:00:00 29.81667 C 10.33 g/m*3 29.82 C 11.69167 km/h
690 24-08-2019 17:00:00 30.29167 C 10.09 g/m*3 30.29 C 11.15833 km/h
691 24-08-2019 18:00:00 30.66667 C 10.95 g/m*3 30.67 C 9.55 km/h
692 24-08-2019 19:00:00 28.56667 C 13.72 g/m*3 28.57 C 1.6 km/h
693 24-08-2019 20:00:00 24.29167 C 13.11 g/m*3 24.29 C 0.66667 km/h
694 24-08-2019 21:00:00 22.01667 C 12.87 g/m*3 22.02 C 0.4 km/h
695 24-08-2019 22:00:00 19.78333 C 12.64 g/m*3 19.78 C 0.13333 km/h
696 24-08-2019 23:00:00 18.175 C 12.16 g/m*3 18.18 C 0 km/h
697 25-08-2019 00:00:00 17.35833 C 12.09 g/m*3 17.36 C 0 km/h
698 25-08-2019 01:00:00 16.96667 C 11.95 g/m*3 16.97 C 0.26667 km/h
699 25-08-2019 02:00:00 16.15833 C 11.73 g/m*3 16.16 C 0 km/h
700 25-08-2019 03:00:00 15.53333 C 11.66 g/m*3 15.53 C 0.26667 km/h
Sensor: Nr:Datum:Temp:Abs-Feuchte:Windchill:Wind:
Aussen-T/F 701 25-08-2019 04:00:00 15.19167 C 11.47 g/m*3 15.19 C 0.13333 km/h
702 25-08-2019 05:00:00 14.65833 C 11.28 g/m*3 14.66 C 0 km/h
703 25-08-2019 06:00:00 14.41667 C 11.24 g/m*3 14.42 C 0 km/h
704 25-08-2019 07:00:00 14.80833 C 11.59 g/m*3 14.81 C 0.26667 km/h
705 25-08-2019 08:00:00 15.84167 C 12.21 g/m*3 15.84 C 0 km/h
706 25-08-2019 09:00:00 17.2 C 12.94 g/m*3 17.2 C 0 km/h
707 25-08-2019 10:00:00 18.78333 C 13.62 g/m*3 18.78 C 0 km/h
708 25-08-2019 11:00:00 21.64167 C 14.72 g/m*3 21.64 C 1.46667 km/h
709 25-08-2019 12:00:00 24.54167 C 15.7 g/m*3 24.54 C 3.33333 km/h
710 25-08-2019 13:00:00 26.76667 C 15.98 g/m*3 26.77 C 3.33333 km/h
711 25-08-2019 14:00:00 28.375 C 15.82 g/m*3 28.38 C 4.28333 km/h
712 25-08-2019 15:00:00 30.28333 C 15.83 g/m*3 30.28 C 5.5 km/h
713 25-08-2019 16:00:00 31.18333 C 16.05 g/m*3 31.18 C 6.05833 km/h
714 25-08-2019 17:00:00 32.3 C 16.12 g/m*3 32.3 C 3.875 km/h
715 25-08-2019 18:00:00 30.05 C 16.09 g/m*3 30.05 C 4.425 km/h
716 25-08-2019 19:00:00 27.125 C 16.41 g/m*3 27.13 C 0.13333 km/h
717 25-08-2019 20:00:00 24.31667 C 15.82 g/m*3 24.32 C 0.13333 km/h
718 25-08-2019 21:00:00 22.98333 C 15.85 g/m*3 22.98 C 0 km/h
719 25-08-2019 22:00:00 21.19167 C 15.27 g/m*3 21.19 C 0 km/h
720 25-08-2019 23:00:00 20.10833 C 14.86 g/m*3 20.11 C 0 km/h
721 26-08-2019 00:00:00 19.475 C 14.76 g/m*3 19.48 C 0 km/h
722 26-08-2019 01:00:00 19.14167 C 14.65 g/m*3 19.14 C 0 km/h
723 26-08-2019 02:00:00 18.53333 C 14.39 g/m*3 18.53 C 0.13333 km/h
724 26-08-2019 03:00:00 18.025 C 14.1 g/m*3 18.02 C 0 km/h
725 26-08-2019 04:00:00 17.41667 C 13.8 g/m*3 17.42 C 0 km/h
Sensor: Nr:Datum:Temp:Abs-Feuchte:Windchill:Wind:
Aussen-T/F 726 26-08-2019 05:00:00 17.14167 C 13.74 g/m*3 17.14 C 0.13333 km/h
727 26-08-2019 06:00:00 16.76667 C 13.46 g/m*3 16.77 C 0 km/h
728 26-08-2019 07:00:00 16.71667 C 13.55 g/m*3 16.72 C 0 km/h
729 26-08-2019 08:00:00 17.475 C 14.29 g/m*3 17.48 C 0 km/h
730 26-08-2019 09:00:00 18.55 C 15.21 g/m*3 18.55 C 0 km/h
731 26-08-2019 10:00:00 20.15833 C 16.12 g/m*3 20.16 C 0.13333 km/h
732 26-08-2019 11:00:00 22.95 C 17.15 g/m*3 22.95 C 0.93333 km/h
733 26-08-2019 12:00:00 25.70833 C 17.45 g/m*3 25.71 C 1.86667 km/h
734 26-08-2019 13:00:00 28.3 C 16.68 g/m*3 28.3 C 5.075 km/h
735 26-08-2019 14:00:00 30.01667 C 15.99 g/m*3 30.02 C 5.08333 km/h
736 26-08-2019 15:00:00 30.85833 C 16.04 g/m*3 30.86 C 4.95 km/h
737 26-08-2019 16:00:00 28.55 C 16.58 g/m*3 28.55 C 2 km/h
738 26-08-2019 17:00:00 27.475 C 17.77 g/m*3 27.48 C 0 km/h
739 26-08-2019 18:00:00 27.10833 C 18.14 g/m*3 27.11 C 0 km/h
740 26-08-2019 19:00:00 28.06667 C 18.01 g/m*3 28.07 C 0 km/h
741 26-08-2019 20:00:00 24.69167 C 16.65 g/m*3 24.69 C 0 km/h
742 26-08-2019 21:00:00 22.45 C 16.03 g/m*3 22.45 C 0 km/h
743 26-08-2019 22:00:00 21.09167 C 15.61 g/m*3 21.09 C 0 km/h
744 26-08-2019 23:00:00 20.175 C 15.34 g/m*3 20.18 C 0.13333 km/h
745 27-08-2019 00:00:00 19.40833 C 15.01 g/m*3 19.41 C 0 km/h
746 27-08-2019 01:00:00 19.01667 C 15.01 g/m*3 19.02 C 0 km/h
747 27-08-2019 02:00:00 18.39167 C 14.59 g/m*3 18.39 C 0 km/h
748 27-08-2019 03:00:00 17.91667 C 14.38 g/m*3 17.92 C 0.13333 km/h
749 27-08-2019 04:00:00 17.55833 C 14.1 g/m*3 17.56 C 0 km/h
750 27-08-2019 05:00:00 17.15833 C 13.88 g/m*3 17.16 C 0 km/h
Sensor: Nr:Datum:Temp:Abs-Feuchte:Windchill:Wind:
Aussen-T/F 751 27-08-2019 06:00:00 16.79167 C 13.62 g/m*3 16.79 C 0 km/h
752 27-08-2019 07:00:00 16.85 C 13.77 g/m*3 16.85 C 0 km/h
753 27-08-2019 08:00:00 17.325 C 14.24 g/m*3 17.33 C 0 km/h
754 27-08-2019 09:00:00 18.4 C 15.26 g/m*3 18.4 C 0 km/h
755 27-08-2019 10:00:00 19.78333 C 16.4 g/m*3 19.78 C 0 km/h
756 27-08-2019 11:00:00 22.275 C 17.8 g/m*3 22.28 C 0 km/h
757 27-08-2019 12:00:00 25.41667 C 17.97 g/m*3 25.42 C 0 km/h
758 27-08-2019 13:00:00 28.99167 C 16.36 g/m*3 28.99 C 1.06667 km/h
759 27-08-2019 14:00:00 30.54167 C 15.38 g/m*3 30.54 C 2 km/h
760 27-08-2019 15:00:00 31.89167 C 14.46 g/m*3 31.89 C 4.95833 km/h
761 27-08-2019 16:00:00 33.23333 C 15.02 g/m*3 33.23 C 4.28333 km/h
762 27-08-2019 17:00:00 32.29167 C 16.29 g/m*3 32.29 C 1.46667 km/h
763 27-08-2019 18:00:00 29.55833 C 16.9 g/m*3 29.56 C 1.2 km/h
764 27-08-2019 19:00:00 27.7 C 17.08 g/m*3 27.7 C 5.23333 km/h
765 27-08-2019 20:00:00 23.50833 C 17.31 g/m*3 23.51 C 0.53333 km/h
766 27-08-2019 21:00:00 22.09167 C 16.5 g/m*3 22.09 C 0.4 km/h
767 27-08-2019 22:00:00 21.14167 C 15.96 g/m*3 21.14 C 0 km/h
768 27-08-2019 23:00:00 20.43333 C 15.63 g/m*3 20.43 C 0.13333 km/h
769 28-08-2019 00:00:00 19.9 C 15.48 g/m*3 19.9 C 0.4 km/h
770 28-08-2019 01:00:00 19.61667 C 15.5 g/m*3 19.62 C 0 km/h
771 28-08-2019 02:00:00 19.24167 C 15.32 g/m*3 19.24 C 0 km/h
772 28-08-2019 03:00:00 18.71667 C 14.98 g/m*3 18.72 C 0.4 km/h
773 28-08-2019 04:00:00 18.33333 C 14.71 g/m*3 18.33 C 0 km/h
774 28-08-2019 05:00:00 17.96667 C 14.47 g/m*3 17.97 C 0 km/h
775 28-08-2019 06:00:00 18.01667 C 14.62 g/m*3 18.02 C 0 km/h
Sensor: Nr:Datum:Temp:Abs-Feuchte:Windchill:Wind:
Aussen-T/F 776 28-08-2019 07:00:00 17.85833 C 14.51 g/m*3 17.86 C 0 km/h
777 28-08-2019 08:00:00 18.64167 C 15.28 g/m*3 18.64 C 0.93333 km/h
778 28-08-2019 09:00:00 19.75833 C 15.89 g/m*3 19.76 C 2.8 km/h
779 28-08-2019 10:00:00 22.45 C 15.49 g/m*3 22.45 C 7.4 km/h
780 28-08-2019 11:00:00 23.975 C 15.57 g/m*3 23.98 C 4.40833 km/h
781 28-08-2019 12:00:00 24.49167 C 15.85 g/m*3 24.49 C 4.025 km/h
782 28-08-2019 13:00:00 26.54167 C 14.76 g/m*3 26.54 C 7.66667 km/h
783 28-08-2019 14:00:00 29.44167 C 14.81 g/m*3 29.44 C 9.29167 km/h
784 28-08-2019 15:00:00 30.35833 C 13.68 g/m*3 30.36 C 11.43333 km/h
785 28-08-2019 16:00:00 31.55833 C 13.63 g/m*3 31.56 C 11.29167 km/h
786 28-08-2019 17:00:00 31.80833 C 14.03 g/m*3 31.81 C 7.39167 km/h
787 28-08-2019 18:00:00 31.18333 C 14.79 g/m*3 31.18 C 4.96667 km/h
788 28-08-2019 19:00:00 27.875 C 14.09 g/m*3 27.88 C 0.53333 km/h
789 28-08-2019 20:00:00 25.59167 C 13.46 g/m*3 25.59 C 0.4 km/h
790 28-08-2019 21:00:00 24.2 C 13.75 g/m*3 24.2 C 0.53333 km/h
791 28-08-2019 22:00:00 22.43333 C 13.94 g/m*3 22.43 C 0 km/h
792 28-08-2019 23:00:00 21.38333 C 13.92 g/m*3 21.38 C 0 km/h
793 29-08-2019 00:00:00 20.775 C 13.89 g/m*3 20.78 C 0 km/h
794 29-08-2019 01:00:00 20.10833 C 13.75 g/m*3 20.11 C 0 km/h
795 29-08-2019 02:00:00 19.2 C 13.55 g/m*3 19.2 C 0 km/h
796 29-08-2019 03:00:00 18.225 C 13.21 g/m*3 18.23 C 0 km/h
797 29-08-2019 04:00:00 17.53333 C 13.15 g/m*3 17.53 C 0 km/h
798 29-08-2019 05:00:00 17.78333 C 13.63 g/m*3 17.78 C 0 km/h
799 29-08-2019 06:00:00 18.34167 C 14.08 g/m*3 18.34 C 0.53333 km/h
800 29-08-2019 07:00:00 19.04167 C 14.58 g/m*3 19.04 C 2.4 km/h
Sensor: Nr:Datum:Temp:Abs-Feuchte:Windchill:Wind:
Aussen-T/F 801 29-08-2019 08:00:00 19.89167 C 14.95 g/m*3 19.89 C 3.06667 km/h
802 29-08-2019 09:00:00 20.7 C 15.27 g/m*3 20.7 C 2.4 km/h
803 29-08-2019 10:00:00 21.175 C 16.01 g/m*3 21.18 C 0.4 km/h
804 29-08-2019 11:00:00 22.13333 C 16.14 g/m*3 22.13 C 2.94167 km/h
805 29-08-2019 12:00:00 23.29167 C 16.23 g/m*3 23.29 C 5.075 km/h
806 29-08-2019 13:00:00 25.45 C 16.23 g/m*3 25.45 C 8.475 km/h
807 29-08-2019 14:00:00 26.78333 C 16.49 g/m*3 26.78 C 7.925 km/h
808 29-08-2019 15:00:00 27.53333 C 16.59 g/m*3 27.53 C 9.41667 km/h
809 29-08-2019 16:00:00 27.875 C 16.18 g/m*3 27.88 C 9.40833 km/h
810 29-08-2019 17:00:00 27.28333 C 15.75 g/m*3 27.28 C 8.74167 km/h
811 29-08-2019 18:00:00 26.44167 C 15.18 g/m*3 26.44 C 8.325 km/h
812 29-08-2019 19:00:00 24.73333 C 14.66 g/m*3 24.73 C 4.675 km/h
813 29-08-2019 20:00:00 22.80833 C 14.37 g/m*3 22.81 C 1.2 km/h
814 29-08-2019 21:00:00 20.89167 C 13.97 g/m*3 20.89 C 0.4 km/h
815 29-08-2019 22:00:00 20.525 C 14.05 g/m*3 20.53 C 0.13333 km/h
816 29-08-2019 23:00:00 20.48333 C 14.15 g/m*3 20.48 C 0.26667 km/h
817 30-08-2019 00:00:00 20.30833 C 13.9 g/m*3 20.31 C 2.4 km/h
818 30-08-2019 01:00:00 19.18333 C 13.66 g/m*3 19.18 C 0 km/h
819 30-08-2019 02:00:00 18.2 C 13.38 g/m*3 18.2 C 0 km/h
820 30-08-2019 03:00:00 17.48333 C 13.17 g/m*3 17.48 C 0 km/h
821 30-08-2019 04:00:00 16.65833 C 12.77 g/m*3 16.66 C 0 km/h
822 30-08-2019 05:00:00 15.975 C 12.62 g/m*3 15.98 C 0.13333 km/h
823 30-08-2019 06:00:00 15.91667 C 12.64 g/m*3 15.92 C 0.13333 km/h
824 30-08-2019 07:00:00 15.41667 C 12.32 g/m*3 15.42 C 0 km/h
825 30-08-2019 08:00:00 16.09167 C 12.94 g/m*3 16.09 C 0.26667 km/h
Sensor: Nr:Datum:Temp:Abs-Feuchte:Windchill:Wind:
Aussen-T/F 826 30-08-2019 09:00:00 17.96667 C 13.59 g/m*3 17.97 C 1.06667 km/h
827 30-08-2019 10:00:00 19.41667 C 13.65 g/m*3 19.42 C 1.2 km/h
828 30-08-2019 11:00:00 20.825 C 13.78 g/m*3 20.83 C 1.46667 km/h
829 30-08-2019 12:00:00 22.16667 C 14.24 g/m*3 22.17 C 3.86667 km/h
830 30-08-2019 13:00:00 23.59167 C 14.51 g/m*3 23.59 C 4.84167 km/h
831 30-08-2019 14:00:00 25 C 14 g/m*3 25 C 6.01667 km/h
832 30-08-2019 15:00:00 26.16667 C 12.59 g/m*3 26.17 C 5.75833 km/h
833 30-08-2019 16:00:00 27.98333 C 12.41 g/m*3 27.98 C 5.49167 km/h
834 30-08-2019 17:00:00 29.66667 C 11.27 g/m*3 29.67 C 3.73333 km/h
835 30-08-2019 18:00:00 29.54167 C 11.12 g/m*3 29.54 C 6.29167 km/h
836 30-08-2019 19:00:00 27.175 C 12.24 g/m*3 27.18 C 2.13333 km/h
837 30-08-2019 20:00:00 23 C 11.42 g/m*3 23 C 0.26667 km/h
838 30-08-2019 21:00:00 20.38333 C 11.5 g/m*3 20.38 C 0 km/h
839 30-08-2019 22:00:00 18.64167 C 11.58 g/m*3 18.64 C 0 km/h
840 30-08-2019 23:00:00 17.38333 C 11.44 g/m*3 17.38 C 0 km/h
841 31-08-2019 00:00:00 16.65 C 11.48 g/m*3 16.65 C 0 km/h
842 31-08-2019 01:00:00 15.825 C 11.35 g/m*3 15.83 C 0 km/h
843 31-08-2019 02:00:00 15.21667 C 11.21 g/m*3 15.22 C 0 km/h
844 31-08-2019 03:00:00 14.75 C 11.18 g/m*3 14.75 C 0 km/h
845 31-08-2019 04:00:00 14.31667 C 11.09 g/m*3 14.32 C 0 km/h
846 31-08-2019 05:00:00 14.15 C 11.15 g/m*3 14.15 C 0 km/h
847 31-08-2019 06:00:00 14.1 C 11.17 g/m*3 14.1 C 0 km/h
848 31-08-2019 07:00:00 14.10833 C 11.25 g/m*3 14.11 C 0 km/h
849 31-08-2019 08:00:00 14.76667 C 11.71 g/m*3 14.77 C 0 km/h
850 31-08-2019 09:00:00 15.89167 C 12.49 g/m*3 15.89 C 0 km/h
Sensor: Nr:Datum:Temp:Abs-Feuchte:Windchill:Wind:
Aussen-T/F 851 31-08-2019 10:00:00 17.8 C 13.51 g/m*3 17.8 C 0 km/h
852 31-08-2019 11:00:00 20.6 C 14.54 g/m*3 20.6 C 0 km/h
853 31-08-2019 12:00:00 23.625 C 15.57 g/m*3 23.63 C 0.675 km/h
854 31-08-2019 13:00:00 28.49167 C 15.25 g/m*3 28.49 C 7.24167 km/h
855 31-08-2019 14:00:00 30.36667 C 14.64 g/m*3 30.37 C 6.83333 km/h
856 31-08-2019 15:00:00 31.43333 C 14.19 g/m*3 31.43 C 8.2 km/h
857 31-08-2019 16:00:00 32.48333 C 14.66 g/m*3 32.48 C 6.16667 km/h
858 31-08-2019 17:00:00 33.89167 C 14.86 g/m*3 33.89 C 8.05 km/h
859 31-08-2019 18:00:00 33.71667 C 14.79 g/m*3 33.72 C 6.43333 km/h
860 31-08-2019 19:00:00 31.13333 C 15.74 g/m*3 31.13 C 0.8 km/h
861 31-08-2019 20:00:00 25.89167 C 14.52 g/m*3 25.89 C 0.4 km/h
862 31-08-2019 21:00:00 24.875 C 14.17 g/m*3 24.88 C 4.95833 km/h
863 31-08-2019 22:00:00 24.58333 C 15.85 g/m*3 24.58 C 4.81667 km/h
864 31-08-2019 23:00:00 20.69167 C 15.76 g/m*3 20.69 C 1.73333 km/h
865 01-09-2019 00:00:00 19.66667 C 15.46 g/m*3 19.67 C 0.66667 km/h
866 01-09-2019 01:00:00 19.34167 C 15.12 g/m*3 19.34 C 0.53333 km/h
867 01-09-2019 02:00:00 19.10833 C 14.09 g/m*3 19.11 C 0 km/h
868 01-09-2019 03:00:00 18.325 C 13.17 g/m*3 18.33 C 1.33333 km/h
869 01-09-2019 04:00:00 17.88333 C 12.23 g/m*3 17.88 C 2.66667 km/h
870 01-09-2019 05:00:00 17.84167 C 12.03 g/m*3 17.84 C 4.81667 km/h
871 01-09-2019 06:00:00 17.30833 C 11.73 g/m*3 17.31 C 2.80833 km/h
872 01-09-2019 07:00:00 16.1 C 11.74 g/m*3 16.1 C 0.53333 km/h
873 01-09-2019 08:00:00 17.48333 C 12.3 g/m*3 17.48 C 4.28333 km/h
874 01-09-2019 09:00:00 18.13333 C 12.46 g/m*3 18.13 C 5.75 km/h
875 01-09-2019 10:00:00 19.10833 C 12.55 g/m*3 19.11 C 7.65 km/h
Sensor: Nr:Datum:Temp:Abs-Feuchte:Windchill:Wind:
Aussen-T/F 876 01-09-2019 11:00:00 20.025 C 12.85 g/m*3 20.02 C 8.05833 km/h
877 01-09-2019 12:00:00 20.05 C 12.97 g/m*3 20.05 C 10.08333 km/h
878 01-09-2019 13:00:00 19.69167 C 13.22 g/m*3 19.69 C 11.29167 km/h
879 01-09-2019 14:00:00 20.075 C 13.13 g/m*3 20.08 C 8.04167 km/h
880 01-09-2019 15:00:00 20.61667 C 12.84 g/m*3 20.62 C 8.05 km/h
881 01-09-2019 16:00:00 20.38333 C 12.02 g/m*3 20.38 C 11.01667 km/h
882 01-09-2019 17:00:00 19.975 C 11.29 g/m*3 19.98 C 10.49167 km/h
883 01-09-2019 18:00:00 20.75833 C 10.94 g/m*3 20.76 C 10.1 km/h
884 01-09-2019 19:00:00 20.60833 C 10.37 g/m*3 20.61 C 6.725 km/h
885 01-09-2019 20:00:00 18.38333 C 10.45 g/m*3 18.38 C 1.475 km/h
886 01-09-2019 21:00:00 16.68333 C 10.27 g/m*3 16.68 C 0 km/h
887 01-09-2019 22:00:00 16.39167 C 9.96 g/m*3 16.39 C 0 km/h
888 01-09-2019 23:00:00 15.59167 C 9.97 g/m*3 15.59 C 0 km/h
889 02-09-2019 00:00:00 14.44167 C 9.36 g/m*3 14.44 C 0 km/h
890 02-09-2019 01:00:00 13.29167 C 8.99 g/m*3 13.29 C 0 km/h
891 02-09-2019 02:00:00 13.3 C 9.27 g/m*3 13.3 C 0 km/h
892 02-09-2019 03:00:00 13.025 C 9.37 g/m*3 13.03 C 0 km/h
893 02-09-2019 04:00:00 12 C 8.94 g/m*3 12 C 0.4 km/h
894 02-09-2019 05:00:00 11.21667 C 8.72 g/m*3 11.22 C 0 km/h
895 02-09-2019 06:00:00 10.15 C 8.45 g/m*3 10.15 C 0 km/h
896 02-09-2019 07:00:00 9.73333 C 8.47 g/m*3 9.73 C 0.53333 km/h
897 02-09-2019 08:00:00 10.03333 C 8.75 g/m*3 10.03 C 0 km/h
898 02-09-2019 09:00:00 10.83333 C 9.17 g/m*3 10.83 C 0 km/h
899 02-09-2019 10:00:00 12.85833 C 9.9 g/m*3 12.86 C 0.8 km/h
900 02-09-2019 11:00:00 16.2 C 9.16 g/m*3 16.2 C 7.93333 km/h
Sensor: Nr:Datum:Temp:Abs-Feuchte:Windchill:Wind:
Aussen-T/F 901 02-09-2019 12:00:00 17.53333 C 8.44 g/m*3 17.53 C 8.74167 km/h
902 02-09-2019 13:00:00 18.70833 C 7.96 g/m*3 18.71 C 9.95833 km/h
903 02-09-2019 14:00:00 19.83333 C 7.92 g/m*3 19.83 C 9.28333 km/h
904 02-09-2019 15:00:00 20.175 C 7.9 g/m*3 20.18 C 7.90833 km/h
905 02-09-2019 16:00:00 21.80833 C 7.98 g/m*3 21.81 C 9.68333 km/h
906 02-09-2019 17:00:00 23.09167 C 7.83 g/m*3 23.09 C 6.70833 km/h
907 02-09-2019 18:00:00 22.99167 C 7.67 g/m*3 22.99 C 5.48333 km/h
908 02-09-2019 19:00:00 20.575 C 8.35 g/m*3 20.58 C 1.2 km/h
909 02-09-2019 20:00:00 16.9 C 8.1 g/m*3 16.9 C 0.93333 km/h
910 02-09-2019 21:00:00 15.39167 C 7.97 g/m*3 15.39 C 0.26667 km/h
911 02-09-2019 22:00:00 13.475 C 8.19 g/m*3 13.48 C 0 km/h
912 02-09-2019 23:00:00 12.98333 C 8.24 g/m*3 12.98 C 0 km/h
913 03-09-2019 00:00:00 12.39167 C 8.17 g/m*3 12.39 C 0 km/h
914 03-09-2019 01:00:00 12.125 C 8.22 g/m*3 12.13 C 0 km/h
915 03-09-2019 02:00:00 10.89167 C 7.86 g/m*3 10.89 C 0 km/h
916 03-09-2019 03:00:00 10.175 C 7.75 g/m*3 10.18 C 0 km/h
917 03-09-2019 04:00:00 10.08333 C 7.92 g/m*3 10.08 C 0 km/h
918 03-09-2019 05:00:00 9.45 C 7.72 g/m*3 9.45 C 0 km/h
919 03-09-2019 06:00:00 8.91667 C 7.64 g/m*3 8.92 C 0 km/h
920 03-09-2019 07:00:00 8.65833 C 7.66 g/m*3 8.66 C 0.13333 km/h
921 03-09-2019 08:00:00 9.08333 C 7.95 g/m*3 9.08 C 0 km/h
922 03-09-2019 09:00:00 10.375 C 8.56 g/m*3 10.38 C 0.26667 km/h
923 03-09-2019 10:00:00 13.225 C 9.38 g/m*3 13.23 C 1.46667 km/h
924 03-09-2019 11:00:00 17.34167 C 9.34 g/m*3 17.34 C 5.90833 km/h
925 03-09-2019 12:00:00 19.95833 C 9.22 g/m*3 19.96 C 8.18333 km/h
Sensor: Nr:Datum:Temp:Abs-Feuchte:Windchill:Wind:
Aussen-T/F 926 03-09-2019 13:00:00 21.25 C 9.23 g/m*3 21.25 C 11.55833 km/h
927 03-09-2019 14:00:00 22.64167 C 9.16 g/m*3 22.64 C 10.35 km/h
928 03-09-2019 15:00:00 23.75 C 9.83 g/m*3 23.75 C 10.20833 km/h
929 03-09-2019 16:00:00 23.58333 C 10.59 g/m*3 23.58 C 10.75 km/h
930 03-09-2019 17:00:00 23.65 C 10.86 g/m*3 23.65 C 11.7 km/h
931 03-09-2019 18:00:00 23.225 C 10.95 g/m*3 23.23 C 10.63333 km/h
932 03-09-2019 19:00:00 21.11667 C 10.84 g/m*3 21.12 C 7.91667 km/h
933 03-09-2019 20:00:00 18.86667 C 10.66 g/m*3 18.87 C 2.40833 km/h
934 03-09-2019 21:00:00 16.325 C 10.42 g/m*3 16.33 C 0 km/h
935 03-09-2019 22:00:00 15.33333 C 10.37 g/m*3 15.33 C 0.13333 km/h
936 03-09-2019 23:00:00 14.05 C 10.08 g/m*3 14.05 C 0 km/h
937 04-09-2019 00:00:00 13.05 C 9.9 g/m*3 13.05 C 0 km/h
938 04-09-2019 01:00:00 12.35 C 9.74 g/m*3 12.35 C 0 km/h
939 04-09-2019 02:00:00 11.85833 C 9.58 g/m*3 11.86 C 0 km/h
940 04-09-2019 03:00:00 11.325 C 9.39 g/m*3 11.33 C 0 km/h
941 04-09-2019 04:00:00 10.74167 C 9.12 g/m*3 10.74 C 0 km/h
942 04-09-2019 05:00:00 10.36667 C 9 g/m*3 10.37 C 0 km/h
943 04-09-2019 06:00:00 10.15833 C 8.95 g/m*3 10.16 C 0 km/h
944 04-09-2019 07:00:00 10.09167 C 8.96 g/m*3 10.09 C 0 km/h
945 04-09-2019 08:00:00 10.675 C 9.35 g/m*3 10.68 C 0.4 km/h
946 04-09-2019 09:00:00 13.11667 C 10.54 g/m*3 13.12 C 4.26667 km/h
947 04-09-2019 10:00:00 14.875 C 10.87 g/m*3 14.88 C 3.73333 km/h
948 04-09-2019 11:00:00 18.09167 C 11.22 g/m*3 18.09 C 11.68333 km/h
949 04-09-2019 12:00:00 19.78333 C 11.25 g/m*3 19.78 C 12.1 km/h
950 04-09-2019 13:00:00 21.16667 C 11.47 g/m*3 21.17 C 12.63333 km/h
Sensor: Nr:Datum:Temp:Abs-Feuchte:Windchill:Wind:
Aussen-T/F 951 04-09-2019 14:00:00 22.59167 C 11.56 g/m*3 22.59 C 14.63333 km/h
952 04-09-2019 15:00:00 23.85 C 11.54 g/m*3 23.85 C 11.01667 km/h
953 04-09-2019 16:00:00 25.11667 C 11.74 g/m*3 25.12 C 11.825 km/h
954 04-09-2019 17:00:00 26.875 C 11.46 g/m*3 26.88 C 10.35 km/h
955 04-09-2019 18:00:00 25.04167 C 10.84 g/m*3 25.04 C 14.49167 km/h
956 04-09-2019 19:00:00 23.58333 C 11.1 g/m*3 23.58 C 9.65833 km/h
957 04-09-2019 20:00:00 19.81667 C 11.87 g/m*3 19.82 C 9.50833 km/h
958 04-09-2019 21:00:00 17.625 C 12.77 g/m*3 17.63 C 0.53333 km/h
959 04-09-2019 22:00:00 16.28333 C 12.52 g/m*3 16.28 C 0.53333 km/h
960 04-09-2019 23:00:00 15.64167 C 12.12 g/m*3 15.64 C 0.4 km/h
961 05-09-2019 00:00:00 15.6 C 12.1 g/m*3 15.6 C 0 km/h
962 05-09-2019 01:00:00 15.41667 C 11.73 g/m*3 15.42 C 1.33333 km/h
963 05-09-2019 02:00:00 14.29167 C 10.66 g/m*3 14.29 C 1.06667 km/h
964 05-09-2019 03:00:00 13.975 C 10.44 g/m*3 13.98 C 1.6 km/h
965 05-09-2019 04:00:00 14.075 C 10.3 g/m*3 14.08 C 3.06667 km/h
966 05-09-2019 05:00:00 13.48333 C 9.83 g/m*3 13.48 C 3.875 km/h
967 05-09-2019 06:00:00 12.56667 C 9.49 g/m*3 12.57 C 4.13333 km/h
968 05-09-2019 07:00:00 12.20833 C 9.38 g/m*3 12.21 C 5.49167 km/h
969 05-09-2019 08:00:00 12.58333 C 9.44 g/m*3 12.58 C 8.75833 km/h
970 05-09-2019 09:00:00 13.59167 C 9.67 g/m*3 13.59 C 7.65833 km/h
971 05-09-2019 10:00:00 15.475 C 10.21 g/m*3 15.48 C 9.95 km/h
972 05-09-2019 11:00:00 16.775 C 10.05 g/m*3 16.77 C 14.24167 km/h
973 05-09-2019 12:00:00 17.09167 C 9.8 g/m*3 17.09 C 10.48333 km/h
974 05-09-2019 13:00:00 18.1 C 9.41 g/m*3 18.1 C 10.225 km/h
975 05-09-2019 14:00:00 18.09167 C 9.72 g/m*3 18.09 C 13.03333 km/h
Sensor: Nr:Datum:Temp:Abs-Feuchte:Windchill:Wind:
Aussen-T/F 976 05-09-2019 15:00:00 18.5 C 9.11 g/m*3 18.5 C 11.15833 km/h
977 05-09-2019 16:00:00 18.91667 C 9.07 g/m*3 18.92 C 13.16667 km/h
978 05-09-2019 17:00:00 17.225 C 9.36 g/m*3 17.23 C 15.43333 km/h
979 05-09-2019 18:00:00 16.4 C 9.44 g/m*3 16.4 C 8.59167 km/h
980 05-09-2019 19:00:00 16.46667 C 9.02 g/m*3 16.47 C 6.325 km/h
981 05-09-2019 20:00:00 15.70833 C 9.25 g/m*3 15.71 C 6.71667 km/h
982 05-09-2019 21:00:00 14.93333 C 8.97 g/m*3 14.93 C 5.35833 km/h
983 05-09-2019 22:00:00 14.49167 C 9.01 g/m*3 14.49 C 2.53333 km/h
984 05-09-2019 23:00:00 13.94167 C 8.89 g/m*3 13.94 C 1.875 km/h
985 06-09-2019 00:00:00 12.025 C 8.52 g/m*3 12.03 C 0.4 km/h
986 06-09-2019 01:00:00 11.23333 C 8.41 g/m*3 11.23 C 1.73333 km/h
987 06-09-2019 02:00:00 10.40833 C 8.34 g/m*3 10.41 C 0 km/h
988 06-09-2019 03:00:00 9.875 C 8.21 g/m*3 9.88 C 0.13333 km/h
989 06-09-2019 04:00:00 9.00833 C 7.89 g/m*3 9.01 C 0 km/h
990 06-09-2019 05:00:00 8.075 C 7.6 g/m*3 8.07 C 0 km/h
991 06-09-2019 06:00:00 7.56667 C 7.46 g/m*3 7.57 C 0 km/h
992 06-09-2019 07:00:00 7.31667 C 7.41 g/m*3 7.32 C 0 km/h
993 06-09-2019 08:00:00 7.85 C 7.77 g/m*3 7.85 C 0 km/h
994 06-09-2019 09:00:00 8.75 C 8.25 g/m*3 8.75 C 0 km/h
995 06-09-2019 10:00:00 10.175 C 9.03 g/m*3 10.18 C 0.13333 km/h
996 06-09-2019 11:00:00 12.55833 C 9.18 g/m*3 12.56 C 1.73333 km/h
997 06-09-2019 12:00:00 15.03333 C 8.28 g/m*3 15.03 C 4.00833 km/h
998 06-09-2019 13:00:00 16.51667 C 8.14 g/m*3 16.52 C 4.4 km/h
999 06-09-2019 14:00:00 18.3 C 7.75 g/m*3 18.3 C 8.325 km/h
1000 06-09-2019 15:00:00 19.475 C 7.53 g/m*3 19.48 C 9.26667 km/h
Sensor: Nr:Datum:Temp:Abs-Feuchte:Windchill:Wind:
Aussen-T/F 1001 06-09-2019 16:00:00 20.7 C 7.17 g/m*3 20.7 C 7.24167 km/h
1002 06-09-2019 17:00:00 22.36667 C 7.38 g/m*3 22.37 C 7.79167 km/h
1003 06-09-2019 18:00:00 22.25 C 7.74 g/m*3 22.25 C 6.975 km/h
1004 06-09-2019 19:00:00 19.41667 C 8.07 g/m*3 19.42 C 0.8 km/h
1005 06-09-2019 20:00:00 16.04167 C 7.71 g/m*3 16.04 C 0 km/h
1006 06-09-2019 21:00:00 14.65 C 7.6 g/m*3 14.65 C 0 km/h
1007 06-09-2019 22:00:00 12.74167 C 7.65 g/m*3 12.74 C 0.26667 km/h
1008 06-09-2019 23:00:00 12.69167 C 7.95 g/m*3 12.69 C 2 km/h
1009 07-09-2019 00:00:00 12.25833 C 7.99 g/m*3 12.26 C 0.93333 km/h
1010 07-09-2019 01:00:00 12.41667 C 8.06 g/m*3 12.42 C 1.73333 km/h
1011 07-09-2019 02:00:00 12.19167 C 8.09 g/m*3 12.19 C 1.73333 km/h
1012 07-09-2019 03:00:00 12.375 C 8.15 g/m*3 12.38 C 3.33333 km/h
1013 07-09-2019 04:00:00 12.69167 C 8.26 g/m*3 12.69 C 3.89167 km/h
1014 07-09-2019 05:00:00 12.64167 C 8.27 g/m*3 12.64 C 1.075 km/h
1015 07-09-2019 06:00:00 12.29167 C 8.35 g/m*3 12.29 C 0 km/h
1016 07-09-2019 07:00:00 11.96667 C 9.01 g/m*3 11.97 C 0.13333 km/h
1017 07-09-2019 08:00:00 11.78333 C 9.52 g/m*3 11.78 C 0.13333 km/h
1018 07-09-2019 09:00:00 11.80833 C 9.78 g/m*3 11.81 C 0 km/h
1019 07-09-2019 10:00:00 12.225 C 10.16 g/m*3 12.23 C 0 km/h
1020 07-09-2019 11:00:00 12.80833 C 10.52 g/m*3 12.81 C 0.4 km/h
1021 07-09-2019 12:00:00 13.475 C 10.93 g/m*3 13.48 C 1.06667 km/h
1022 07-09-2019 13:00:00 14.19167 C 11.31 g/m*3 14.19 C 1.06667 km/h
1023 07-09-2019 14:00:00 14.46667 C 11.38 g/m*3 14.47 C 1.73333 km/h
1024 07-09-2019 15:00:00 14.93333 C 11.53 g/m*3 14.93 C 3.73333 km/h
1025 07-09-2019 16:00:00 15.25 C 11.63 g/m*3 15.25 C 0.93333 km/h
Sensor: Nr:Datum:Temp:Abs-Feuchte:Windchill:Wind:
Aussen-T/F 1026 07-09-2019 17:00:00 15.30833 C 11.66 g/m*3 15.31 C 3.21667 km/h
1027 07-09-2019 18:00:00 14.29167 C 11.14 g/m*3 14.29 C 0.93333 km/h
1028 07-09-2019 19:00:00 13.34167 C 10.59 g/m*3 13.34 C 0.66667 km/h
1029 07-09-2019 20:00:00 12.64167 C 10.32 g/m*3 12.64 C 0.13333 km/h
1030 07-09-2019 21:00:00 12.00833 C 9.95 g/m*3 12.01 C 0 km/h
1031 07-09-2019 22:00:00 11.8 C 9.94 g/m*3 11.8 C 0 km/h
1032 07-09-2019 23:00:00 11.725 C 9.95 g/m*3 11.73 C 0 km/h
1033 08-09-2019 00:00:00 11.7 C 9.94 g/m*3 11.7 C 0 km/h
1034 08-09-2019 01:00:00 11.75833 C 10.04 g/m*3 11.76 C 0 km/h
1035 08-09-2019 02:00:00 11.29167 C 9.74 g/m*3 11.29 C 0 km/h
1036 08-09-2019 03:00:00 11.3 C 9.79 g/m*3 11.3 C 0 km/h
1037 08-09-2019 04:00:00 11.7 C 10.08 g/m*3 11.7 C 0 km/h
1038 08-09-2019 05:00:00 11.90833 C 10.17 g/m*3 11.91 C 0 km/h
1039 08-09-2019 06:00:00 12.075 C 10.36 g/m*3 12.08 C 0.13333 km/h
1040 08-09-2019 07:00:00 12.20833 C 10.41 g/m*3 12.21 C 0.4 km/h
1041 08-09-2019 08:00:00 12.31667 C 10.43 g/m*3 12.32 C 1.46667 km/h
1042 08-09-2019 09:00:00 12.325 C 10.38 g/m*3 12.33 C 4.13333 km/h
1043 08-09-2019 10:00:00 12.575 C 10.57 g/m*3 12.58 C 0 km/h
1044 08-09-2019 11:00:00 12.625 C 10.64 g/m*3 12.63 C 0.4 km/h
1045 08-09-2019 12:00:00 12.81667 C 10.75 g/m*3 12.82 C 2.53333 km/h
1046 08-09-2019 13:00:00 13.94167 C 11.24 g/m*3 13.94 C 1.6 km/h
1047 08-09-2019 14:00:00 14.875 C 11.24 g/m*3 14.88 C 3.6 km/h
1048 08-09-2019 15:00:00 15.73333 C 11.27 g/m*3 15.73 C 1.6 km/h
1049 08-09-2019 16:00:00 15.65833 C 11.32 g/m*3 15.66 C 1.46667 km/h
1050 08-09-2019 17:00:00 13.49167 C 10.83 g/m*3 13.49 C 2.53333 km/h
Sensor: Nr:Datum:Temp:Abs-Feuchte:Windchill:Wind:
Aussen-T/F 1051 08-09-2019 18:00:00 12.8 C 10.56 g/m*3 12.8 C 0.8 km/h
1052 08-09-2019 19:00:00 12.96667 C 10.8 g/m*3 12.97 C 0 km/h
1053 08-09-2019 20:00:00 12.56667 C 10.5 g/m*3 12.57 C 3.35 km/h
1054 08-09-2019 21:00:00 12.1 C 10.23 g/m*3 12.1 C 0.53333 km/h
1055 08-09-2019 22:00:00 11.81667 C 10.11 g/m*3 11.82 C 0 km/h
1056 08-09-2019 23:00:00 11.71667 C 10.05 g/m*3 11.72 C 0 km/h
1057 09-09-2019 00:00:00 11.45 C 9.88 g/m*3 11.45 C 0 km/h
1058 09-09-2019 01:00:00 11.26667 C 9.78 g/m*3 11.27 C 0.26667 km/h
1059 09-09-2019 02:00:00 11.29167 C 9.87 g/m*3 11.29 C 0 km/h
1060 09-09-2019 03:00:00 11.36667 C 9.94 g/m*3 11.37 C 0 km/h
1061 09-09-2019 04:00:00 11.36667 C 9.94 g/m*3 11.37 C 0 km/h
1062 09-09-2019 05:00:00 11.29167 C 9.89 g/m*3 11.29 C 0 km/h
1063 09-09-2019 06:00:00 11.3 C 9.89 g/m*3 11.3 C 0 km/h
1064 09-09-2019 07:00:00 11.275 C 9.88 g/m*3 11.28 C 0 km/h
1065 09-09-2019 08:00:00 11.39167 C 9.95 g/m*3 11.39 C 0 km/h
1066 09-09-2019 09:00:00 12.01667 C 10.35 g/m*3 12.02 C 0.26667 km/h
1067 09-09-2019 10:00:00 12.23333 C 10.49 g/m*3 12.23 C 0.13333 km/h
1068 09-09-2019 11:00:00 12.55833 C 10.62 g/m*3 12.56 C 2.66667 km/h
1069 09-09-2019 12:00:00 13.15 C 10.48 g/m*3 13.15 C 1.73333 km/h
1070 09-09-2019 13:00:00 14.2 C 10.57 g/m*3 14.2 C 2.4 km/h
1071 09-09-2019 14:00:00 14.81667 C 10.11 g/m*3 14.82 C 1.73333 km/h
1072 09-09-2019 15:00:00 15.175 C 10.39 g/m*3 15.18 C 0.8 km/h
1073 09-09-2019 16:00:00 15.475 C 10.21 g/m*3 15.48 C 1.06667 km/h
1074 09-09-2019 17:00:00 15.74167 C 9.89 g/m*3 15.74 C 1.33333 km/h
1075 09-09-2019 18:00:00 16.33333 C 10.25 g/m*3 16.33 C 1.46667 km/h
Sensor: Nr:Datum:Temp:Abs-Feuchte:Windchill:Wind:
Aussen-T/F 1076 09-09-2019 19:00:00 14.35 C 10.11 g/m*3 14.35 C 0.53333 km/h
1077 09-09-2019 20:00:00 12.00833 C 9.36 g/m*3 12.01 C 0.4 km/h
1078 09-09-2019 21:00:00 10.79167 C 8.96 g/m*3 10.79 C 0.13333 km/h
1079 09-09-2019 22:00:00 10.05 C 8.74 g/m*3 10.05 C 0 km/h
1080 09-09-2019 23:00:00 9.30833 C 8.44 g/m*3 9.31 C 0 km/h
1081 10-09-2019 00:00:00 8.75833 C 8.22 g/m*3 8.76 C 0 km/h
1082 10-09-2019 01:00:00 8.44167 C 8.09 g/m*3 8.44 C 0 km/h
1083 10-09-2019 02:00:00 8.3 C 8.07 g/m*3 8.3 C 0 km/h
1084 10-09-2019 03:00:00 8.625 C 8.26 g/m*3 8.63 C 0.53333 km/h
1085 10-09-2019 04:00:00 8.65 C 8.28 g/m*3 8.65 C 0.66667 km/h
1086 10-09-2019 05:00:00 8.55833 C 8.24 g/m*3 8.56 C 0.26667 km/h
1087 10-09-2019 06:00:00 8.2 C 8.1 g/m*3 8.2 C 0.8 km/h
1088 10-09-2019 07:00:00 8.225 C 8.14 g/m*3 8.23 C 0.13333 km/h
1089 10-09-2019 08:00:00 8.21667 C 8.13 g/m*3 8.22 C 2.26667 km/h
1090 10-09-2019 09:00:00 8.45833 C 8.26 g/m*3 8.46 C 2.13333 km/h
1091 10-09-2019 10:00:00 9.05 C 8.58 g/m*3 9.05 C 1.33333 km/h
1092 10-09-2019 11:00:00 9.94167 C 9.08 g/m*3 9.94 C 2.26667 km/h
1093 10-09-2019 12:00:00 11.78333 C 9.92 g/m*3 11.78 C 0.4 km/h
1094 10-09-2019 13:00:00 14.85833 C 9.92 g/m*3 14.86 C 1.6 km/h
1095 10-09-2019 14:00:00 17.25 C 9.44 g/m*3 17.25 C 3.60833 km/h
1096 10-09-2019 15:00:00 18.43333 C 9.19 g/m*3 18.43 C 5.36667 km/h
1097 10-09-2019 16:00:00 19.65 C 8.8 g/m*3 19.65 C 8.20833 km/h
1098 10-09-2019 17:00:00 18.38333 C 10.55 g/m*3 18.38 C 0.8 km/h
1099 10-09-2019 18:00:00 18.33333 C 10.97 g/m*3 18.33 C 0 km/h
1100 10-09-2019 19:00:00 16.4 C 10.1 g/m*3 16.4 C 0.13333 km/h
Sensor: Nr:Datum:Temp:Abs-Feuchte:Windchill:Wind:
Aussen-T/F 1101 10-09-2019 20:00:00 13.775 C 8.93 g/m*3 13.78 C 0 km/h
1102 10-09-2019 21:00:00 12.03333 C 8.86 g/m*3 12.03 C 0 km/h
1103 10-09-2019 22:00:00 10.66667 C 8.52 g/m*3 10.67 C 0 km/h
1104 10-09-2019 23:00:00 9.78333 C 8.23 g/m*3 9.78 C 0 km/h
1105 11-09-2019 00:00:00 9.2 C 8.04 g/m*3 9.2 C 0 km/h
1106 11-09-2019 01:00:00 8.61667 C 7.86 g/m*3 8.62 C 0 km/h
1107 11-09-2019 02:00:00 8.04167 C 7.69 g/m*3 8.04 C 0.13333 km/h
1108 11-09-2019 03:00:00 7.64167 C 7.55 g/m*3 7.64 C 0 km/h
1109 11-09-2019 04:00:00 7.26667 C 7.41 g/m*3 7.27 C 0 km/h
1110 11-09-2019 05:00:00 6.90833 C 7.3 g/m*3 6.91 C 0 km/h
1111 11-09-2019 06:00:00 6.65833 C 7.2 g/m*3 6.66 C 0 km/h
1112 11-09-2019 07:00:00 6.55 C 7.2 g/m*3 6.55 C 0.675 km/h
1113 11-09-2019 08:00:00 7.99167 C 7.97 g/m*3 7.99 C 1.60833 km/h
1114 11-09-2019 09:00:00 9.51667 C 8.59 g/m*3 9.52 C 2.8 km/h
1115 11-09-2019 10:00:00 10.85 C 9.29 g/m*3 10.85 C 0 km/h
1116 11-09-2019 11:00:00 13.10833 C 10.13 g/m*3 13.11 C 1.6 km/h
1117 11-09-2019 12:00:00 17.29167 C 9.85 g/m*3 17.29 C 9.41667 km/h
1118 11-09-2019 13:00:00 19.9 C 9.95 g/m*3 19.9 C 12.75833 km/h
1119 11-09-2019 14:00:00 20.58333 C 9.88 g/m*3 20.58 C 16.5 km/h
1120 11-09-2019 15:00:00 20.53333 C 10.07 g/m*3 20.53 C 10.225 km/h
1121 11-09-2019 16:00:00 20.03333 C 11.17 g/m*3 20.03 C 4.825 km/h
1122 11-09-2019 17:00:00 19.16667 C 10.86 g/m*3 19.17 C 8.45833 km/h
1123 11-09-2019 18:00:00 18.35833 C 10.7 g/m*3 18.36 C 3.75833 km/h
1124 11-09-2019 19:00:00 17.26667 C 10.41 g/m*3 17.27 C 3.20833 km/h
1125 11-09-2019 20:00:00 16.50833 C 10.64 g/m*3 16.51 C 0.93333 km/h
Sensor: Nr:Datum:Temp:Abs-Feuchte:Windchill:Wind:
Aussen-T/F 1126 11-09-2019 21:00:00 16.275 C 10.82 g/m*3 16.27 C 0.93333 km/h
1127 11-09-2019 22:00:00 16.41667 C 11.06 g/m*3 16.42 C 0.93333 km/h
1128 11-09-2019 23:00:00 15.7 C 11.15 g/m*3 15.7 C 0.93333 km/h
1129 12-09-2019 00:00:00 15.51667 C 10.97 g/m*3 15.52 C 1.86667 km/h
1130 12-09-2019 01:00:00 16.14167 C 11.09 g/m*3 16.14 C 1.74167 km/h
1131 12-09-2019 02:00:00 17.23333 C 10.81 g/m*3 17.23 C 6.975 km/h
1132 12-09-2019 03:00:00 17.24167 C 11 g/m*3 17.24 C 6.70833 km/h
1133 12-09-2019 04:00:00 17.05 C 11.08 g/m*3 17.05 C 2.93333 km/h
1134 12-09-2019 05:00:00 16.975 C 11.25 g/m*3 16.98 C 8.31667 km/h
1135 12-09-2019 06:00:00 16.9 C 11.4 g/m*3 16.9 C 5.75833 km/h
1136 12-09-2019 07:00:00 16.24167 C 11.53 g/m*3 16.24 C 0.8 km/h
1137 12-09-2019 08:00:00 16.83333 C 12.06 g/m*3 16.83 C 5.76667 km/h
1138 12-09-2019 09:00:00 17.40833 C 12.53 g/m*3 17.41 C 9.025 km/h
1139 12-09-2019 10:00:00 18.21667 C 13.08 g/m*3 18.22 C 11.15833 km/h
1140 12-09-2019 11:00:00 19.21667 C 13.52 g/m*3 19.22 C 9.01667 km/h
1141 12-09-2019 12:00:00 20.25833 C 13.93 g/m*3 20.26 C 10.34167 km/h
1142 12-09-2019 13:00:00 20.9 C 14.27 g/m*3 20.9 C 7.79167 km/h
1143 12-09-2019 14:00:00 21.38333 C 14.69 g/m*3 21.38 C 1.6 km/h
1144 12-09-2019 15:00:00 22.25833 C 14.77 g/m*3 22.26 C 4.025 km/h
1145 12-09-2019 16:00:00 22.95 C 14.67 g/m*3 22.95 C 7.91667 km/h
1146 12-09-2019 17:00:00 24.44167 C 14.46 g/m*3 24.44 C 11.83333 km/h
1147 12-09-2019 18:00:00 24.95833 C 14.66 g/m*3 24.96 C 6.56667 km/h
1148 12-09-2019 19:00:00 22.86667 C 14.23 g/m*3 22.87 C 0.53333 km/h
1149 12-09-2019 20:00:00 19.11667 C 13.29 g/m*3 19.12 C 0.4 km/h
1150 12-09-2019 21:00:00 18.225 C 13.19 g/m*3 18.23 C 0.26667 km/h
Sensor: Nr:Datum:Temp:Abs-Feuchte:Windchill:Wind:
Aussen-T/F 1151 12-09-2019 22:00:00 18.35 C 13.17 g/m*3 18.35 C 0.4 km/h
1152 12-09-2019 23:00:00 17.06667 C 12.6 g/m*3 17.07 C 0 km/h
1153 13-09-2019 00:00:00 15.98333 C 12.26 g/m*3 15.98 C 0.93333 km/h
1154 13-09-2019 01:00:00 15.55 C 12.18 g/m*3 15.55 C 3.6 km/h
1155 13-09-2019 02:00:00 15.25 C 12.05 g/m*3 15.25 C 1.46667 km/h
1156 13-09-2019 03:00:00 15.1 C 12.07 g/m*3 15.1 C 1.06667 km/h
1157 13-09-2019 04:00:00 15.575 C 12.4 g/m*3 15.58 C 2.93333 km/h
1158 13-09-2019 05:00:00 16.19167 C 12.55 g/m*3 16.19 C 6.84167 km/h
1159 13-09-2019 06:00:00 16.25833 C 12.58 g/m*3 16.26 C 4.3 km/h
1160 13-09-2019 07:00:00 16.64167 C 12.75 g/m*3 16.64 C 2.94167 km/h
1161 13-09-2019 08:00:00 16.85833 C 13.01 g/m*3 16.86 C 0.8 km/h
1162 13-09-2019 09:00:00 17.49167 C 13.31 g/m*3 17.49 C 2 km/h
1163 13-09-2019 10:00:00 18.51667 C 13.63 g/m*3 18.52 C 0.8 km/h
1164 13-09-2019 11:00:00 19.6 C 13.91 g/m*3 19.6 C 2.8 km/h
1165 13-09-2019 12:00:00 20.35 C 14.02 g/m*3 20.35 C 1.2 km/h
1166 13-09-2019 13:00:00 20.60833 C 13.82 g/m*3 20.61 C 4.675 km/h
1167 13-09-2019 14:00:00 21.16667 C 14.03 g/m*3 21.17 C 6.15833 km/h
1168 13-09-2019 15:00:00 20.85833 C 14.13 g/m*3 20.86 C 12.76667 km/h
1169 13-09-2019 16:00:00 19.325 C 14.49 g/m*3 19.33 C 5.90833 km/h
1170 13-09-2019 17:00:00 19.20833 C 14.74 g/m*3 19.21 C 0 km/h
1171 13-09-2019 18:00:00 20 C 15.42 g/m*3 20 C 0 km/h
1172 13-09-2019 19:00:00 19.48333 C 14.46 g/m*3 19.48 C 0 km/h
1173 13-09-2019 20:00:00 17.60833 C 13.73 g/m*3 17.61 C 0.26667 km/h
1174 13-09-2019 21:00:00 16.95 C 13.39 g/m*3 16.95 C 0 km/h
1175 13-09-2019 22:00:00 16.25833 C 12.87 g/m*3 16.26 C 0 km/h
Sensor: Nr:Datum:Temp:Abs-Feuchte:Windchill:Wind:
Aussen-T/F 1176 13-09-2019 23:00:00 15.48333 C 12.38 g/m*3 15.48 C 0 km/h
1177 14-09-2019 00:00:00 15.39167 C 12.41 g/m*3 15.39 C 0 km/h
1178 14-09-2019 01:00:00 14.63333 C 11.86 g/m*3 14.63 C 0 km/h
1179 14-09-2019 02:00:00 13.525 C 11.07 g/m*3 13.53 C 0 km/h
1180 14-09-2019 03:00:00 12.70833 C 10.58 g/m*3 12.71 C 0 km/h
1181 14-09-2019 04:00:00 12.00833 C 10.18 g/m*3 12.01 C 0 km/h
1182 14-09-2019 05:00:00 11.31667 C 9.79 g/m*3 11.32 C 0 km/h
1183 14-09-2019 06:00:00 10.78333 C 9.48 g/m*3 10.78 C 0 km/h
1184 14-09-2019 07:00:00 10.4 C 9.25 g/m*3 10.4 C 0 km/h
1185 14-09-2019 08:00:00 10.40833 C 9.26 g/m*3 10.41 C 0 km/h
1186 14-09-2019 09:00:00 11.00833 C 9.71 g/m*3 11.01 C 0.13333 km/h
1187 14-09-2019 10:00:00 12.25833 C 10.51 g/m*3 12.26 C 0.26667 km/h
1188 14-09-2019 11:00:00 13.69167 C 11.26 g/m*3 13.69 C 0.26667 km/h
1189 14-09-2019 12:00:00 16.14167 C 11.54 g/m*3 16.14 C 0.8 km/h
1190 14-09-2019 13:00:00 18.675 C 11.2 g/m*3 18.68 C 3.74167 km/h
1191 14-09-2019 14:00:00 20.43333 C 11.02 g/m*3 20.43 C 4.95 km/h
1192 14-09-2019 15:00:00 21.74167 C 10.66 g/m*3 21.74 C 5.35833 km/h
1193 14-09-2019 16:00:00 22.44167 C 10.43 g/m*3 22.44 C 4.3 km/h
1194 14-09-2019 17:00:00 24.14167 C 10.29 g/m*3 24.14 C 4.81667 km/h
1195 14-09-2019 18:00:00 23.6 C 11.63 g/m*3 23.6 C 0 km/h
1196 14-09-2019 19:00:00 19.45833 C 10.87 g/m*3 19.46 C 0.13333 km/h
1197 14-09-2019 20:00:00 16.95833 C 10.12 g/m*3 16.96 C 0 km/h
1198 14-09-2019 21:00:00 15.96667 C 10.01 g/m*3 15.97 C 0 km/h
1199 14-09-2019 22:00:00 13.8 C 9.68 g/m*3 13.8 C 0 km/h
1200 14-09-2019 23:00:00 12.48333 C 9.38 g/m*3 12.48 C 0 km/h
Sensor: Nr:Datum:Temp:Abs-Feuchte:Windchill:Wind:
Aussen-T/F 1201 15-09-2019 00:00:00 11.65 C 9.12 g/m*3 11.65 C 0 km/h
1202 15-09-2019 01:00:00 10.825 C 8.89 g/m*3 10.83 C 0 km/h
1203 15-09-2019 02:00:00 10.375 C 8.83 g/m*3 10.38 C 0 km/h
1204 15-09-2019 03:00:00 10.16667 C 8.79 g/m*3 10.17 C 0.13333 km/h
1205 15-09-2019 04:00:00 9.75833 C 8.61 g/m*3 9.76 C 0.13333 km/h
1206 15-09-2019 05:00:00 9.31667 C 8.46 g/m*3 9.32 C 0 km/h
1207 15-09-2019 06:00:00 8.76667 C 8.17 g/m*3 8.77 C 0 km/h
1208 15-09-2019 07:00:00 8.775 C 8.26 g/m*3 8.78 C 0.53333 km/h
1209 15-09-2019 08:00:00 9.29167 C 8.62 g/m*3 9.29 C 0.53333 km/h
1210 15-09-2019 09:00:00 10.03333 C 9.04 g/m*3 10.03 C 0 km/h
1211 15-09-2019 10:00:00 11.35833 C 9.83 g/m*3 11.36 C 0 km/h
1212 15-09-2019 11:00:00 13.71667 C 11.23 g/m*3 13.72 C 0 km/h
1213 15-09-2019 12:00:00 16.96667 C 12.32 g/m*3 16.97 C 0 km/h
1214 15-09-2019 13:00:00 20.45833 C 12.4 g/m*3 20.46 C 0 km/h
1215 15-09-2019 14:00:00 22.79167 C 12.41 g/m*3 22.79 C 0.53333 km/h
1216 15-09-2019 15:00:00 24.05 C 12.35 g/m*3 24.05 C 0.53333 km/h
1217 15-09-2019 16:00:00 24.65833 C 11.93 g/m*3 24.66 C 2.66667 km/h
1218 15-09-2019 17:00:00 25.84167 C 11.52 g/m*3 25.84 C 1.6 km/h
1219 15-09-2019 18:00:00 26.43333 C 11.47 g/m*3 26.43 C 0.4 km/h
1220 15-09-2019 19:00:00 21.96667 C 11.11 g/m*3 21.97 C 0 km/h
1221 15-09-2019 20:00:00 18.225 C 9.86 g/m*3 18.23 C 0 km/h
1222 15-09-2019 21:00:00 16.76667 C 9.56 g/m*3 16.77 C 0 km/h
1223 15-09-2019 22:00:00 14.475 C 9.48 g/m*3 14.48 C 0 km/h
1224 15-09-2019 23:00:00 12.99167 C 9.21 g/m*3 12.99 C 0 km/h
1225 16-09-2019 00:00:00 12.55 C 9.24 g/m*3 12.55 C 0 km/h
Sensor: Nr:Datum:Temp:Abs-Feuchte:Windchill:Wind:
Aussen-T/F 1226 16-09-2019 01:00:00 12.25833 C 9.26 g/m*3 12.26 C 0.53333 km/h
1227 16-09-2019 02:00:00 11.41667 C 9.02 g/m*3 11.42 C 0.26667 km/h
1228 16-09-2019 03:00:00 11.11667 C 9.09 g/m*3 11.12 C 0.4 km/h
1229 16-09-2019 04:00:00 11.45833 C 9.31 g/m*3 11.46 C 0.66667 km/h
1230 16-09-2019 05:00:00 11.51667 C 9.27 g/m*3 11.52 C 0.4 km/h
1231 16-09-2019 06:00:00 11.23333 C 9.22 g/m*3 11.23 C 0 km/h
1232 16-09-2019 07:00:00 11.31667 C 9.35 g/m*3 11.32 C 0.13333 km/h
1233 16-09-2019 08:00:00 12.075 C 9.65 g/m*3 12.08 C 1.2 km/h
1234 16-09-2019 09:00:00 13.4 C 10.02 g/m*3 13.4 C 1.06667 km/h
1235 16-09-2019 10:00:00 14.99167 C 10.52 g/m*3 14.99 C 0.93333 km/h
1236 16-09-2019 11:00:00 17.41667 C 11.29 g/m*3 17.42 C 1.33333 km/h
1237 16-09-2019 12:00:00 19.64167 C 11.69 g/m*3 19.64 C 4.40833 km/h
1238 16-09-2019 13:00:00 21.18333 C 11.4 g/m*3 21.18 C 5.9 km/h
1239 16-09-2019 14:00:00 22.05 C 11.19 g/m*3 22.05 C 4.26667 km/h
1240 16-09-2019 15:00:00 22.075 C 11.53 g/m*3 22.08 C 4.275 km/h
1241 16-09-2019 16:00:00 22.10833 C 10.87 g/m*3 22.11 C 7.65 km/h
1242 16-09-2019 17:00:00 21.8 C 11.67 g/m*3 21.8 C 7.525 km/h
1243 16-09-2019 18:00:00 20.725 C 11.4 g/m*3 20.73 C 4.95 km/h
1244 16-09-2019 19:00:00 19.71667 C 11.57 g/m*3 19.72 C 8.46667 km/h
1245 16-09-2019 20:00:00 17.64167 C 12.45 g/m*3 17.64 C 2.275 km/h
1246 16-09-2019 21:00:00 16.74167 C 12.53 g/m*3 16.74 C 1.46667 km/h
1247 16-09-2019 22:00:00 16.43333 C 12.39 g/m*3 16.43 C 4.825 km/h
1248 16-09-2019 23:00:00 15.4 C 12.03 g/m*3 15.4 C 4.14167 km/h
1249 17-09-2019 00:00:00 15.05833 C 11.74 g/m*3 15.06 C 1.73333 km/h
1250 17-09-2019 01:00:00 14.81667 C 11.42 g/m*3 14.82 C 4 km/h
Sensor: Nr:Datum:Temp:Abs-Feuchte:Windchill:Wind:
Aussen-T/F 1251 17-09-2019 02:00:00 14.66667 C 11.26 g/m*3 14.67 C 3.475 km/h
1252 17-09-2019 03:00:00 14.54167 C 11.1 g/m*3 14.54 C 1.46667 km/h
1253 17-09-2019 04:00:00 14.30833 C 11.03 g/m*3 14.31 C 0.4 km/h
1254 17-09-2019 05:00:00 14.16667 C 11 g/m*3 14.17 C 0.53333 km/h
1255 17-09-2019 06:00:00 14.1 C 10.95 g/m*3 14.1 C 3.74167 km/h
1256 17-09-2019 07:00:00 14.01667 C 10.81 g/m*3 14.02 C 1.86667 km/h
1257 17-09-2019 08:00:00 14 C 10.57 g/m*3 14 C 4.00833 km/h
1258 17-09-2019 09:00:00 14.04167 C 10.08 g/m*3 14.04 C 8.33333 km/h
1259 17-09-2019 10:00:00 14.925 C 9.51 g/m*3 14.93 C 11.29167 km/h
1260 17-09-2019 11:00:00 15.73333 C 9.52 g/m*3 15.73 C 11.56667 km/h
1261 17-09-2019 12:00:00 16.125 C 9.35 g/m*3 16.13 C 13.83333 km/h
1262 17-09-2019 13:00:00 16.625 C 9.11 g/m*3 16.63 C 13.43333 km/h
1263 17-09-2019 14:00:00 17.44167 C 9.01 g/m*3 17.44 C 13.43333 km/h
1264 17-09-2019 15:00:00 17.66667 C 8.72 g/m*3 17.67 C 12.1 km/h
1265 17-09-2019 16:00:00 18.05833 C 8.61 g/m*3 18.06 C 12.76667 km/h
1266 17-09-2019 17:00:00 18.125 C 8.63 g/m*3 18.13 C 11.41667 km/h
1267 17-09-2019 18:00:00 18.45 C 8.52 g/m*3 18.45 C 13.43333 km/h
1268 17-09-2019 19:00:00 17.3 C 8.79 g/m*3 17.3 C 5.775 km/h
1269 17-09-2019 20:00:00 16.71667 C 8.94 g/m*3 16.72 C 6.03333 km/h
1270 17-09-2019 21:00:00 16.00833 C 8.74 g/m*3 16.01 C 12.36667 km/h
1271 17-09-2019 22:00:00 14.55833 C 7.86 g/m*3 14.56 C 11.7 km/h
1272 17-09-2019 23:00:00 13.40833 C 7.65 g/m*3 13.41 C 6.45 km/h
1273 18-09-2019 00:00:00 11.80833 C 7.43 g/m*3 11.81 C 3.86667 km/h
1274 18-09-2019 01:00:00 10.83333 C 7.47 g/m*3 10.83 C 2.8 km/h
1275 18-09-2019 02:00:00 9.26667 C 7.32 g/m*3 9.27 C 0 km/h
Sensor: Nr:Datum:Temp:Abs-Feuchte:Windchill:Wind:
Aussen-T/F 1276 18-09-2019 03:00:00 8.25 C 7.19 g/m*3 8.25 C 0 km/h
1277 18-09-2019 04:00:00 7.425 C 7.05 g/m*3 7.43 C 0 km/h
1278 18-09-2019 05:00:00 6.76667 C 6.89 g/m*3 6.77 C 0 km/h
1279 18-09-2019 06:00:00 6.08333 C 6.7 g/m*3 6.08 C 0 km/h
1280 18-09-2019 07:00:00 5.8 C 6.67 g/m*3 5.8 C 0 km/h
1281 18-09-2019 08:00:00 6.10833 C 6.87 g/m*3 6.11 C 0 km/h
1282 18-09-2019 09:00:00 7.01667 C 7.37 g/m*3 7.02 C 0 km/h
1283 18-09-2019 10:00:00 8.375 C 8.05 g/m*3 8.38 C 0 km/h
1284 18-09-2019 11:00:00 10.625 C 8.65 g/m*3 10.63 C 1.33333 km/h
1285 18-09-2019 12:00:00 13.6 C 8.4 g/m*3 13.6 C 5.61667 km/h
1286 18-09-2019 13:00:00 15.1 C 7.76 g/m*3 15.1 C 9 km/h
1287 18-09-2019 14:00:00 16.25 C 7.43 g/m*3 16.25 C 9.54167 km/h
1288 18-09-2019 15:00:00 17.00833 C 7.27 g/m*3 17.01 C 8.86667 km/h
1289 18-09-2019 16:00:00 17.225 C 7.48 g/m*3 17.23 C 9.95 km/h
1290 18-09-2019 17:00:00 18.14167 C 7.1 g/m*3 18.14 C 11.56667 km/h
1291 18-09-2019 18:00:00 18.08333 C 6.92 g/m*3 18.08 C 8.58333 km/h
1292 18-09-2019 19:00:00 15.75 C 7.28 g/m*3 15.75 C 1.06667 km/h
1293 18-09-2019 20:00:00 12.30833 C 7.28 g/m*3 12.31 C 0 km/h
1294 18-09-2019 21:00:00 11.525 C 7.45 g/m*3 11.53 C 0 km/h
1295 18-09-2019 22:00:00 10.68333 C 7.43 g/m*3 10.68 C 0 km/h
1296 18-09-2019 23:00:00 9.85833 C 7.44 g/m*3 9.86 C 0 km/h
1297 19-09-2019 00:00:00 9.16667 C 7.4 g/m*3 9.17 C 0 km/h
1298 19-09-2019 01:00:00 8.5 C 7.23 g/m*3 8.5 C 0 km/h
1299 19-09-2019 02:00:00 7.20833 C 6.97 g/m*3 7.21 C 0 km/h
1300 19-09-2019 03:00:00 6.58333 C 6.86 g/m*3 6.58 C 0 km/h
Sensor: Nr:Datum:Temp:Abs-Feuchte:Windchill:Wind:
Aussen-T/F 1301 19-09-2019 04:00:00 6.08333 C 6.73 g/m*3 6.08 C 0 km/h
1302 19-09-2019 05:00:00 5.65833 C 6.6 g/m*3 5.66 C 0 km/h
1303 19-09-2019 06:00:00 5.26667 C 6.48 g/m*3 5.27 C 0 km/h
1304 19-09-2019 07:00:00 5.14167 C 6.45 g/m*3 5.14 C 0 km/h
1305 19-09-2019 08:00:00 5.33333 C 6.59 g/m*3 5.33 C 0 km/h
1306 19-09-2019 09:00:00 6.31667 C 7.08 g/m*3 6.32 C 0 km/h
1307 19-09-2019 10:00:00 7.725 C 7.8 g/m*3 7.73 C 0 km/h
1308 19-09-2019 11:00:00 9.70833 C 8.42 g/m*3 9.71 C 0.4 km/h
1309 19-09-2019 12:00:00 13.33333 C 7.53 g/m*3 13.33 C 10.35833 km/h
1310 19-09-2019 13:00:00 14.46667 C 7.05 g/m*3 14.47 C 6.3 km/h
1311 19-09-2019 14:00:00 15.7 C 6.76 g/m*3 15.7 C 7.38333 km/h
1312 19-09-2019 15:00:00 16.48333 C 6.7 g/m*3 16.48 C 9.54167 km/h
1313 19-09-2019 16:00:00 17.08333 C 6.67 g/m*3 17.08 C 9.28333 km/h
1314 19-09-2019 17:00:00 18.04167 C 6.51 g/m*3 18.04 C 8.59167 km/h
1315 19-09-2019 18:00:00 18.01667 C 6.64 g/m*3 18.02 C 4.96667 km/h
1316 19-09-2019 19:00:00 15.00833 C 7.05 g/m*3 15.01 C 0 km/h
1317 19-09-2019 20:00:00 11.975 C 6.78 g/m*3 11.98 C 0 km/h
1318 19-09-2019 21:00:00 10.525 C 6.78 g/m*3 10.53 C 0 km/h
1319 19-09-2019 22:00:00 9.59167 C 6.78 g/m*3 9.59 C 0 km/h
1320 19-09-2019 23:00:00 8.45 C 6.65 g/m*3 8.45 C 0 km/h
1321 20-09-2019 00:00:00 7.625 C 6.46 g/m*3 7.63 C 0 km/h
1322 20-09-2019 01:00:00 7.05 C 6.42 g/m*3 7.05 C 0 km/h
1323 20-09-2019 02:00:00 6.21667 C 6.27 g/m*3 6.22 C 0 km/h
1324 20-09-2019 03:00:00 5.75 C 6.19 g/m*3 5.75 C 0 km/h
1325 20-09-2019 04:00:00 5.15 C 6.09 g/m*3 5.15 C 0 km/h
Sensor: Nr:Datum:Temp:Abs-Feuchte:Windchill:Wind:
Aussen-T/F 1326 20-09-2019 05:00:00 4.69167 C 6.03 g/m*3 4.69 C 0 km/h
1327 20-09-2019 06:00:00 4.325 C 5.97 g/m*3 4.33 C 0 km/h
1328 20-09-2019 07:00:00 4.125 C 5.96 g/m*3 4.13 C 0 km/h
1329 20-09-2019 08:00:00 4.65 C 6.24 g/m*3 4.65 C 0 km/h
1330 20-09-2019 09:00:00 5.625 C 6.69 g/m*3 5.63 C 0 km/h
1331 20-09-2019 10:00:00 7.39167 C 7.47 g/m*3 7.39 C 0 km/h
1332 20-09-2019 11:00:00 10 C 8.1 g/m*3 10 C 0 km/h
1333 20-09-2019 12:00:00 13.41667 C 7.68 g/m*3 13.42 C 4.95833 km/h
1334 20-09-2019 13:00:00 15.83333 C 7.25 g/m*3 15.83 C 5.21667 km/h
1335 20-09-2019 14:00:00 17.63333 C 7.14 g/m*3 17.63 C 7.11667 km/h
1336 20-09-2019 15:00:00 18.525 C 6.89 g/m*3 18.52 C 7.925 km/h
1337 20-09-2019 16:00:00 19.26667 C 7.01 g/m*3 19.27 C 9.28333 km/h
1338 20-09-2019 17:00:00 20.33333 C 7.02 g/m*3 20.33 C 8.59167 km/h
1339 20-09-2019 18:00:00 20.525 C 7.17 g/m*3 20.53 C 4.55 km/h
1340 20-09-2019 19:00:00 15.85 C 7.09 g/m*3 15.85 C 0.8 km/h
1341 20-09-2019 20:00:00 13.7 C 6.96 g/m*3 13.7 C 1.33333 km/h
1342 20-09-2019 21:00:00 11.68333 C 7.14 g/m*3 11.68 C 0 km/h
1343 20-09-2019 22:00:00 9.525 C 6.97 g/m*3 9.53 C 0 km/h
1344 20-09-2019 23:00:00 8.425 C 6.87 g/m*3 8.43 C 0 km/h
1345 21-09-2019 00:00:00 7.44167 C 6.69 g/m*3 7.44 C 0 km/h
1346 21-09-2019 01:00:00 6.85 C 6.55 g/m*3 6.85 C 0 km/h
1347 21-09-2019 02:00:00 6.34167 C 6.4 g/m*3 6.34 C 0 km/h
1348 21-09-2019 03:00:00 5.80833 C 6.27 g/m*3 5.81 C 0 km/h
1349 21-09-2019 04:00:00 5.45833 C 6.24 g/m*3 5.46 C 0 km/h
1350 21-09-2019 05:00:00 5.275 C 6.25 g/m*3 5.28 C 0 km/h
Sensor: Nr:Datum:Temp:Abs-Feuchte:Windchill:Wind:
Aussen-T/F 1351 21-09-2019 06:00:00 4.80833 C 6.1 g/m*3 4.81 C 0 km/h
1352 21-09-2019 07:00:00 4.60833 C 6.09 g/m*3 4.61 C 0 km/h
1353 21-09-2019 08:00:00 4.725 C 6.21 g/m*3 4.72 C 0 km/h
1354 21-09-2019 09:00:00 5.79167 C 6.72 g/m*3 5.79 C 0 km/h
1355 21-09-2019 10:00:00 8.225 C 7.58 g/m*3 8.23 C 0 km/h
1356 21-09-2019 11:00:00 11.40833 C 8.4 g/m*3 11.41 C 0 km/h
1357 21-09-2019 12:00:00 14.95 C 8.6 g/m*3 14.95 C 0.66667 km/h
1358 21-09-2019 13:00:00 18.2 C 7.78 g/m*3 18.2 C 4 km/h
1359 21-09-2019 14:00:00 21.43333 C 6.23 g/m*3 21.43 C 7.24167 km/h
1360 21-09-2019 15:00:00 22.63333 C 6.11 g/m*3 22.63 C 7.925 km/h
1361 21-09-2019 16:00:00 23.23333 C 6.53 g/m*3 23.23 C 7.375 km/h
1362 21-09-2019 17:00:00 24.65833 C 7.13 g/m*3 24.66 C 5.09167 km/h
1363 21-09-2019 18:00:00 22.74167 C 7.97 g/m*3 22.74 C 0.66667 km/h
1364 21-09-2019 19:00:00 18.49167 C 7.54 g/m*3 18.49 C 1.6 km/h
1365 21-09-2019 20:00:00 16.16667 C 7.62 g/m*3 16.17 C 0.66667 km/h
1366 21-09-2019 21:00:00 13.66667 C 7.8 g/m*3 13.67 C 0 km/h
1367 21-09-2019 22:00:00 11.99167 C 7.62 g/m*3 11.99 C 0 km/h
1368 21-09-2019 23:00:00 10.88333 C 7.52 g/m*3 10.88 C 0 km/h
1369 22-09-2019 00:00:00 9.825 C 7.43 g/m*3 9.82 C 0 km/h
1370 22-09-2019 01:00:00 9.08333 C 7.39 g/m*3 9.08 C 0 km/h
1371 22-09-2019 02:00:00 8.425 C 7.24 g/m*3 8.43 C 0 km/h
1372 22-09-2019 03:00:00 7.96667 C 7.23 g/m*3 7.97 C 0 km/h
1373 22-09-2019 04:00:00 7.39167 C 7.07 g/m*3 7.39 C 0 km/h
1374 22-09-2019 05:00:00 7.06667 C 7.06 g/m*3 7.07 C 0 km/h
1375 22-09-2019 06:00:00 6.99167 C 7.12 g/m*3 6.99 C 0 km/h
Sensor: Nr:Datum:Temp:Abs-Feuchte:Windchill:Wind:
Aussen-T/F 1376 22-09-2019 07:00:00 6.93333 C 7.14 g/m*3 6.93 C 0 km/h
1377 22-09-2019 08:00:00 7.55833 C 7.47 g/m*3 7.56 C 0 km/h
1378 22-09-2019 09:00:00 8.63333 C 8.02 g/m*3 8.63 C 0 km/h
1379 22-09-2019 10:00:00 11.05 C 9.19 g/m*3 11.05 C 0 km/h
1380 22-09-2019 11:00:00 14.83333 C 10.13 g/m*3 14.83 C 0 km/h
1381 22-09-2019 12:00:00 17.68333 C 10.99 g/m*3 17.68 C 0 km/h
1382 22-09-2019 13:00:00 20.70833 C 11.63 g/m*3 20.71 C 0.26667 km/h
1383 22-09-2019 14:00:00 24.05 C 11.64 g/m*3 24.05 C 2.93333 km/h
1384 22-09-2019 15:00:00 24.85 C 11.36 g/m*3 24.85 C 3.86667 km/h
1385 22-09-2019 16:00:00 24.73333 C 12.25 g/m*3 24.73 C 0.8 km/h
1386 22-09-2019 17:00:00 23.48333 C 12.59 g/m*3 23.48 C 0 km/h
1387 22-09-2019 18:00:00 21.74167 C 12.24 g/m*3 21.74 C 0 km/h
1388 22-09-2019 19:00:00 20.33333 C 11.45 g/m*3 20.33 C 0 km/h
1389 22-09-2019 20:00:00 19.075 C 10.9 g/m*3 19.08 C 2 km/h
1390 22-09-2019 21:00:00 18.175 C 10.66 g/m*3 18.18 C 1.46667 km/h
1391 22-09-2019 22:00:00 18.3 C 10.92 g/m*3 18.3 C 0.13333 km/h
1392 22-09-2019 23:00:00 17.80833 C 11.4 g/m*3 17.81 C 0 km/h
1393 23-09-2019 00:00:00 17.55833 C 12.04 g/m*3 17.56 C 2.80833 km/h
1394 23-09-2019 01:00:00 18.375 C 12.81 g/m*3 18.38 C 3.33333 km/h
1395 23-09-2019 02:00:00 18.10833 C 12.21 g/m*3 18.11 C 9.26667 km/h
1396 23-09-2019 03:00:00 17.2 C 12.06 g/m*3 17.2 C 4.95 km/h
1397 23-09-2019 04:00:00 16.05833 C 11.82 g/m*3 16.06 C 0.93333 km/h
1398 23-09-2019 05:00:00 15.14167 C 11.8 g/m*3 15.14 C 1.86667 km/h
1399 23-09-2019 06:00:00 14.43333 C 11.53 g/m*3 14.43 C 0.26667 km/h
1400 23-09-2019 07:00:00 14.23333 C 11.52 g/m*3 14.23 C 0 km/h
Sensor: Nr:Datum:Temp:Abs-Feuchte:Windchill:Wind:
Aussen-T/F 1401 23-09-2019 08:00:00 14.25 C 11.64 g/m*3 14.25 C 0 km/h
1402 23-09-2019 09:00:00 14.74167 C 12.1 g/m*3 14.74 C 0 km/h
1403 23-09-2019 10:00:00 15.425 C 12.63 g/m*3 15.43 C 0.4 km/h
1404 23-09-2019 11:00:00 16.26667 C 13.08 g/m*3 16.27 C 2.8 km/h
1405 23-09-2019 12:00:00 17.06667 C 13.18 g/m*3 17.07 C 8.06667 km/h
1406 23-09-2019 13:00:00 18.2 C 12.67 g/m*3 18.2 C 10.49167 km/h
1407 23-09-2019 14:00:00 19.425 C 11.89 g/m*3 19.43 C 13.3 km/h
1408 23-09-2019 15:00:00 19.61667 C 11.63 g/m*3 19.62 C 12.36667 km/h
1409 23-09-2019 16:00:00 19.94167 C 11.61 g/m*3 19.94 C 14.36667 km/h
1410 23-09-2019 17:00:00 20.24167 C 11.57 g/m*3 20.24 C 12.49167 km/h
1411 23-09-2019 18:00:00 18.46667 C 11.71 g/m*3 18.47 C 1.2 km/h
1412 23-09-2019 19:00:00 16 C 11.16 g/m*3 16 C 0.13333 km/h
1413 23-09-2019 20:00:00 14.34167 C 10.75 g/m*3 14.34 C 0 km/h
1414 23-09-2019 21:00:00 13.96667 C 10.85 g/m*3 13.97 C 0 km/h
1415 23-09-2019 22:00:00 13.9 C 11.03 g/m*3 13.9 C 0 km/h
1416 23-09-2019 23:00:00 14.11667 C 11.21 g/m*3 14.12 C 0 km/h
1417 24-09-2019 00:00:00 14.33333 C 11.37 g/m*3 14.33 C 0 km/h
1418 24-09-2019 01:00:00 13.95 C 11.01 g/m*3 13.95 C 0 km/h
1419 24-09-2019 02:00:00 12.66667 C 10.28 g/m*3 12.67 C 0 km/h
1420 24-09-2019 03:00:00 11.96667 C 9.98 g/m*3 11.97 C 0 km/h
1421 24-09-2019 04:00:00 11.50833 C 9.77 g/m*3 11.51 C 0 km/h
1422 24-09-2019 05:00:00 10.675 C 9.31 g/m*3 10.68 C 0 km/h
1423 24-09-2019 06:00:00 10.25 C 9.1 g/m*3 10.25 C 0 km/h
1424 24-09-2019 07:00:00 9.89167 C 8.94 g/m*3 9.89 C 0 km/h
1425 24-09-2019 08:00:00 10.65 C 9.44 g/m*3 10.65 C 0 km/h
Sensor: Nr:Datum:Temp:Abs-Feuchte:Windchill:Wind:
Aussen-T/F 1426 24-09-2019 09:00:00 11.35833 C 9.93 g/m*3 11.36 C 0.8 km/h
1427 24-09-2019 10:00:00 12.49167 C 10.66 g/m*3 12.49 C 0 km/h
1428 24-09-2019 11:00:00 14.48333 C 11.78 g/m*3 14.48 C 0.93333 km/h
1429 24-09-2019 12:00:00 17.53333 C 12.03 g/m*3 17.53 C 3.88333 km/h
1430 24-09-2019 13:00:00 18.59167 C 11.6 g/m*3 18.59 C 6.44167 km/h
1431 24-09-2019 14:00:00 19.21667 C 11.33 g/m*3 19.22 C 1.60833 km/h
1432 24-09-2019 15:00:00 18.63333 C 11.3 g/m*3 18.63 C 0.66667 km/h
1433 24-09-2019 16:00:00 17.70833 C 12.37 g/m*3 17.71 C 0.93333 km/h
1434 24-09-2019 17:00:00 16.95 C 12.96 g/m*3 16.95 C 0 km/h
1435 24-09-2019 18:00:00 16.125 C 12.64 g/m*3 16.13 C 0 km/h
1436 24-09-2019 19:00:00 15.1 C 12.01 g/m*3 15.1 C 0 km/h
1437 24-09-2019 20:00:00 14.01667 C 11.37 g/m*3 14.02 C 0 km/h
1438 24-09-2019 21:00:00 13.65 C 11.21 g/m*3 13.65 C 0 km/h
1439 24-09-2019 22:00:00 13.64167 C 11.29 g/m*3 13.64 C 0 km/h
1440 24-09-2019 23:00:00 13.775 C 11.42 g/m*3 13.78 C 0 km/h
1441 25-09-2019 00:00:00 13.99167 C 11.57 g/m*3 13.99 C 0.13333 km/h
1442 25-09-2019 01:00:00 14.13333 C 11.72 g/m*3 14.13 C 1.34167 km/h
1443 25-09-2019 02:00:00 14.49167 C 11.93 g/m*3 14.49 C 3.35 km/h
1444 25-09-2019 03:00:00 14.6 C 12.01 g/m*3 14.6 C 0.4 km/h
1445 25-09-2019 04:00:00 14.55833 C 11.98 g/m*3 14.56 C 0.53333 km/h
1446 25-09-2019 05:00:00 14.01667 C 11.59 g/m*3 14.02 C 1.33333 km/h
1447 25-09-2019 06:00:00 13.64167 C 11.33 g/m*3 13.64 C 0.93333 km/h
1448 25-09-2019 07:00:00 13.61667 C 11.33 g/m*3 13.62 C 0.8 km/h
1449 25-09-2019 08:00:00 13.75 C 11.51 g/m*3 13.75 C 0 km/h
1450 25-09-2019 09:00:00 14.33333 C 11.94 g/m*3 14.33 C 1.33333 km/h
Sensor: Nr:Datum:Temp:Abs-Feuchte:Windchill:Wind:
Aussen-T/F 1451 25-09-2019 10:00:00 14.90833 C 12.03 g/m*3 14.91 C 8.475 km/h
1452 25-09-2019 11:00:00 16.225 C 11.94 g/m*3 16.23 C 13.69167 km/h
1453 25-09-2019 12:00:00 16.875 C 11.57 g/m*3 16.88 C 10.35833 km/h
1454 25-09-2019 13:00:00 17.38333 C 11.46 g/m*3 17.38 C 11.81667 km/h
1455 25-09-2019 14:00:00 17.38333 C 11.57 g/m*3 17.38 C 10.35833 km/h
1456 25-09-2019 15:00:00 16.325 C 12.4 g/m*3 16.33 C 4.8 km/h
1457 25-09-2019 16:00:00 17.08333 C 12.36 g/m*3 17.08 C 7.38333 km/h
1458 25-09-2019 17:00:00 17.53333 C 12.19 g/m*3 17.53 C 7.24167 km/h
1459 25-09-2019 18:00:00 16.775 C 11.91 g/m*3 16.77 C 2.54167 km/h
1460 25-09-2019 19:00:00 15.625 C 11.72 g/m*3 15.63 C 0.53333 km/h
1461 25-09-2019 20:00:00 15.10833 C 11.76 g/m*3 15.11 C 0 km/h
1462 25-09-2019 21:00:00 14.71667 C 11.69 g/m*3 14.72 C 0.13333 km/h
1463 25-09-2019 22:00:00 14.7 C 11.8 g/m*3 14.7 C 0 km/h
1464 25-09-2019 23:00:00 14.65833 C 11.93 g/m*3 14.66 C 0 km/h
1465 26-09-2019 00:00:00 14.55833 C 11.86 g/m*3 14.56 C 0.26667 km/h
1466 26-09-2019 01:00:00 14.23333 C 11.65 g/m*3 14.23 C 0 km/h
1467 26-09-2019 02:00:00 14.13333 C 11.67 g/m*3 14.13 C 0 km/h
1468 26-09-2019 03:00:00 13.60833 C 11.29 g/m*3 13.61 C 0 km/h
1469 26-09-2019 04:00:00 13.25833 C 11.08 g/m*3 13.26 C 0 km/h
1470 26-09-2019 05:00:00 13.90833 C 11.6 g/m*3 13.91 C 2.01667 km/h
1471 26-09-2019 06:00:00 14.125 C 11.78 g/m*3 14.13 C 0.53333 km/h
1472 26-09-2019 07:00:00 14.35833 C 11.84 g/m*3 14.36 C 0.13333 km/h
1473 26-09-2019 08:00:00 14.74167 C 12.12 g/m*3 14.74 C 0.26667 km/h
1474 26-09-2019 09:00:00 15.10833 C 12.35 g/m*3 15.11 C 0.4 km/h
1475 26-09-2019 10:00:00 15.86667 C 12.91 g/m*3 15.87 C 0.13333 km/h
Sensor: Nr:Datum:Temp:Abs-Feuchte:Windchill:Wind:
Aussen-T/F 1476 26-09-2019 11:00:00 16.59167 C 13.37 g/m*3 16.59 C 0.93333 km/h
1477 26-09-2019 12:00:00 17.61667 C 13.75 g/m*3 17.62 C 5.225 km/h
1478 26-09-2019 13:00:00 17.775 C 13.9 g/m*3 17.77 C 1.06667 km/h
1479 26-09-2019 14:00:00 17.51667 C 13.84 g/m*3 17.52 C 0.93333 km/h
1480 26-09-2019 15:00:00 18.05833 C 14.13 g/m*3 18.06 C 1.2 km/h
1481 26-09-2019 16:00:00 18.83333 C 14.32 g/m*3 18.83 C 4.15 km/h
1482 26-09-2019 17:00:00 18.91667 C 14.2 g/m*3 18.92 C 4.675 km/h
1483 26-09-2019 18:00:00 18.71667 C 14.24 g/m*3 18.72 C 2.68333 km/h
1484 26-09-2019 19:00:00 18.04167 C 13.99 g/m*3 18.04 C 2.01667 km/h
1485 26-09-2019 20:00:00 17.39167 C 13.29 g/m*3 17.39 C 6.03333 km/h
1486 26-09-2019 21:00:00 17.36667 C 13.16 g/m*3 17.37 C 5.5 km/h
1487 26-09-2019 22:00:00 17.725 C 13.08 g/m*3 17.73 C 10.23333 km/h
1488 26-09-2019 23:00:00 17.81667 C 12.99 g/m*3 17.82 C 7.5 km/h
1489 27-09-2019 00:00:00 17.98333 C 12.86 g/m*3 17.98 C 6.975 km/h
1490 27-09-2019 01:00:00 18.05 C 12.68 g/m*3 18.05 C 10.20833 km/h
1491 27-09-2019 02:00:00 17.96667 C 12.58 g/m*3 17.97 C 9.68333 km/h
1492 27-09-2019 03:00:00 16.71667 C 12.82 g/m*3 16.72 C 6.18333 km/h
1493 27-09-2019 04:00:00 16.29167 C 12.83 g/m*3 16.29 C 2.95 km/h
1494 27-09-2019 05:00:00 16.16667 C 12.81 g/m*3 16.17 C 2.13333 km/h
1495 27-09-2019 06:00:00 15.78333 C 12.67 g/m*3 15.78 C 2.15 km/h
1496 27-09-2019 07:00:00 14.41667 C 11.71 g/m*3 14.42 C 2.28333 km/h
1497 27-09-2019 08:00:00 14.1 C 11.62 g/m*3 14.1 C 0.66667 km/h
1498 27-09-2019 09:00:00 13.99167 C 11.57 g/m*3 13.99 C 3.75 km/h
1499 27-09-2019 10:00:00 14.69167 C 12.02 g/m*3 14.69 C 6.58333 km/h
1500 27-09-2019 11:00:00 15.35 C 12.16 g/m*3 15.35 C 6.7 km/h
Sensor: Nr:Datum:Temp:Abs-Feuchte:Windchill:Wind:
Aussen-T/F 1501 27-09-2019 12:00:00 15.96667 C 12.11 g/m*3 15.97 C 11.29167 km/h
1502 27-09-2019 13:00:00 17.29167 C 11.95 g/m*3 17.29 C 12.9 km/h
1503 27-09-2019 14:00:00 18.15833 C 11.77 g/m*3 18.16 C 14.9 km/h
1504 27-09-2019 15:00:00 18.21667 C 11.79 g/m*3 18.22 C 13.83333 km/h
1505 27-09-2019 16:00:00 17.96667 C 11.79 g/m*3 17.97 C 12.1 km/h
1506 27-09-2019 17:00:00 18.98333 C 11.78 g/m*3 18.98 C 12.36667 km/h
1507 27-09-2019 18:00:00 18.01667 C 11.54 g/m*3 18.02 C 10.75833 km/h
1508 27-09-2019 19:00:00 16.05833 C 11.25 g/m*3 16.06 C 3.75833 km/h
1509 27-09-2019 20:00:00 15.13333 C 11.37 g/m*3 15.13 C 0.26667 km/h
1510 27-09-2019 21:00:00 14.275 C 11.06 g/m*3 14.28 C 0.26667 km/h
1511 27-09-2019 22:00:00 13.83333 C 11.04 g/m*3 13.83 C 0 km/h
1512 27-09-2019 23:00:00 13.5 C 10.98 g/m*3 13.5 C 0 km/h
1513 28-09-2019 00:00:00 12.875 C 10.64 g/m*3 12.88 C 0.66667 km/h
1514 28-09-2019 01:00:00 12.90833 C 10.72 g/m*3 12.91 C 3.21667 km/h
1515 28-09-2019 02:00:00 14.21667 C 11.16 g/m*3 14.22 C 9.13333 km/h
1516 28-09-2019 03:00:00 14.825 C 11.33 g/m*3 14.83 C 6.45 km/h
1517 28-09-2019 04:00:00 14.04167 C 11.17 g/m*3 14.04 C 5.63333 km/h
1518 28-09-2019 05:00:00 13.95 C 11.05 g/m*3 13.95 C 6.84167 km/h
1519 28-09-2019 06:00:00 14.4 C 11.21 g/m*3 14.4 C 9.4 km/h
1520 28-09-2019 07:00:00 14.1 C 11.28 g/m*3 14.1 C 1.875 km/h
1521 28-09-2019 08:00:00 13.89167 C 11.18 g/m*3 13.89 C 7.94167 km/h
1522 28-09-2019 09:00:00 14.35833 C 11.11 g/m*3 14.36 C 12.225 km/h
1523 28-09-2019 10:00:00 15.4 C 11.21 g/m*3 15.4 C 12.75833 km/h
1524 28-09-2019 11:00:00 16.30833 C 11.15 g/m*3 16.31 C 17.43333 km/h
1525 28-09-2019 12:00:00 16.85 C 11.27 g/m*3 16.85 C 13.16667 km/h
Sensor: Nr:Datum:Temp:Abs-Feuchte:Windchill:Wind:
Aussen-T/F 1526 28-09-2019 13:00:00 17.21667 C 11.3 g/m*3 17.22 C 17.3 km/h
1527 28-09-2019 14:00:00 17.49167 C 11.4 g/m*3 17.49 C 17.3 km/h
1528 28-09-2019 15:00:00 17.16667 C 11.3 g/m*3 17.17 C 15.43333 km/h
1529 28-09-2019 16:00:00 17.35833 C 11.48 g/m*3 17.36 C 14.23333 km/h
1530 28-09-2019 17:00:00 17.71667 C 11.43 g/m*3 17.72 C 15.96667 km/h
1531 28-09-2019 18:00:00 17.14167 C 11.18 g/m*3 17.14 C 11.025 km/h
1532 28-09-2019 19:00:00 15.7 C 10.78 g/m*3 15.7 C 8.99167 km/h
1533 28-09-2019 20:00:00 15.24167 C 10.7 g/m*3 15.24 C 5.89167 km/h
1534 28-09-2019 21:00:00 14.975 C 10.58 g/m*3 14.98 C 7.79167 km/h
1535 28-09-2019 22:00:00 15.13333 C 10.51 g/m*3 15.13 C 9.53333 km/h
1536 28-09-2019 23:00:00 14.15 C 10.33 g/m*3 14.15 C 4.55 km/h
1537 29-09-2019 00:00:00 13.875 C 10.33 g/m*3 13.88 C 2.81667 km/h
1538 29-09-2019 01:00:00 13.95 C 10.4 g/m*3 13.95 C 0.66667 km/h
1539 29-09-2019 02:00:00 13.65 C 10.49 g/m*3 13.65 C 0 km/h
1540 29-09-2019 03:00:00 13.48333 C 10.54 g/m*3 13.48 C 0 km/h
1541 29-09-2019 04:00:00 13.525 C 10.66 g/m*3 13.53 C 0 km/h
1542 29-09-2019 05:00:00 13.81667 C 10.66 g/m*3 13.82 C 0.26667 km/h
1543 29-09-2019 06:00:00 13.94167 C 10.43 g/m*3 13.94 C 0.93333 km/h
1544 29-09-2019 07:00:00 14.025 C 10.46 g/m*3 14.03 C 1.33333 km/h
1545 29-09-2019 08:00:00 14.95833 C 10.59 g/m*3 14.96 C 5.75833 km/h
1546 29-09-2019 09:00:00 16.53333 C 10.83 g/m*3 16.53 C 13.69167 km/h
1547 29-09-2019 10:00:00 17.45833 C 10.94 g/m*3 17.46 C 19.175 km/h
1548 29-09-2019 11:00:00 17.74167 C 11 g/m*3 17.74 C 17.84167 km/h
1549 29-09-2019 12:00:00 18.25833 C 11.19 g/m*3 18.26 C 17.16667 km/h
1550 29-09-2019 13:00:00 18.1 C 11.15 g/m*3 18.1 C 13.03333 km/h
Sensor: Nr:Datum:Temp:Abs-Feuchte:Windchill:Wind:
Aussen-T/F 1551 29-09-2019 14:00:00 18.61667 C 10.9 g/m*3 18.62 C 21.325 km/h
1552 29-09-2019 15:00:00 18.21667 C 11.38 g/m*3 18.22 C 17.44167 km/h
1553 29-09-2019 16:00:00 17.10833 C 11.91 g/m*3 17.11 C 13.025 km/h
1554 29-09-2019 17:00:00 17 C 11.93 g/m*3 17 C 12.35833 km/h
1555 29-09-2019 18:00:00 17.5 C 12.36 g/m*3 17.5 C 12.1 km/h
1556 29-09-2019 19:00:00 17.70833 C 12.54 g/m*3 17.71 C 15.56667 km/h
1557 29-09-2019 20:00:00 17.275 C 12.96 g/m*3 17.27 C 5.9 km/h
1558 29-09-2019 21:00:00 16.79167 C 13.17 g/m*3 16.79 C 5.63333 km/h
1559 29-09-2019 22:00:00 16.91667 C 13.29 g/m*3 16.92 C 12.08333 km/h
1560 29-09-2019 23:00:00 16.61667 C 13 g/m*3 16.62 C 14.49167 km/h
1561 30-09-2019 00:00:00 15.65 C 11.66 g/m*3 15.65 C 18.11667 km/h
1562 30-09-2019 01:00:00 15.34167 C 11.27 g/m*3 15.34 C 18.225 km/h
1563 30-09-2019 02:00:00 15.15833 C 11.2 g/m*3 15.16 C 17.03333 km/h
1564 30-09-2019 03:00:00 15.25833 C 11.31 g/m*3 15.26 C 15.3 km/h
1565 30-09-2019 04:00:00 15.04167 C 11.38 g/m*3 15.04 C 11.95 km/h
1566 30-09-2019 05:00:00 13.75833 C 10.95 g/m*3 13.76 C 9.925 km/h
1567 30-09-2019 06:00:00 13.19167 C 10.65 g/m*3 13.19 C 9.93333 km/h
1568 30-09-2019 07:00:00 13.08333 C 10.34 g/m*3 13.08 C 10.08333 km/h
1569 30-09-2019 08:00:00 13.29167 C 10.07 g/m*3 13.29 C 12.1 km/h
1570 30-09-2019 09:00:00 13.94167 C 10 g/m*3 13.94 C 13.3 km/h
1571 30-09-2019 10:00:00 14.45 C 10.08 g/m*3 14.45 C 14.5 km/h
1572 30-09-2019 11:00:00 15.13333 C 10.09 g/m*3 15.13 C 15.16667 km/h
1573 30-09-2019 12:00:00 15.71667 C 9.81 g/m*3 15.72 C 16.76667 km/h
1574 30-09-2019 13:00:00 16.40833 C 9.68 g/m*3 16.41 C 15.56667 km/h
1575 30-09-2019 14:00:00 17.10833 C 9.71 g/m*3 17.11 C 14.23333 km/h
Sensor: Nr:Datum:Temp:Abs-Feuchte:Windchill:Wind:
Aussen-T/F 1576 30-09-2019 15:00:00 17.75833 C 9.83 g/m*3 17.76 C 14.63333 km/h
1577 30-09-2019 16:00:00 18.45833 C 9.85 g/m*3 18.46 C 14.36667 km/h
1578 30-09-2019 17:00:00 18.45 C 9.54 g/m*3 18.45 C 12.1 km/h
1579 30-09-2019 18:00:00 17.69167 C 10.24 g/m*3 17.69 C 3.34167 km/h
1580 30-09-2019 19:00:00 14.83333 C 10.22 g/m*3 14.83 C 0.4 km/h
1581 30-09-2019 20:00:00 14.20833 C 10.42 g/m*3 14.21 C 3.34167 km/h
1582 30-09-2019 21:00:00 14.69167 C 10.71 g/m*3 14.69 C 3.74167 km/h
1583 30-09-2019 22:00:00 14.68333 C 10.7 g/m*3 14.68 C 3.6 km/h
1584 30-09-2019 23:00:00 14.23333 C 10.44 g/m*3 14.23 C 1.06667 km/h
1585 01-10-2019 00:00:00 14.33333 C 10.41 g/m*3 14.33 C 0.4 km/h
1586 01-10-2019 01:00:00 14.025 C 10.47 g/m*3 14.03 C 1.2 km/h
1587 01-10-2019 02:00:00 13.60833 C 10.24 g/m*3 13.61 C 0 km/h
1588 01-10-2019 03:00:00 12.65 C 9.88 g/m*3 12.65 C 0 km/h
1589 01-10-2019 04:00:00 13.275 C 10.3 g/m*3 13.28 C 3.48333 km/h
1590 01-10-2019 05:00:00 14.40833 C 10.55 g/m*3 14.41 C 7.8 km/h
1591 01-10-2019 06:00:00 15.00833 C 10.98 g/m*3 15.01 C 11.55833 km/h
1592 01-10-2019 07:00:00 15.375 C 11.38 g/m*3 15.38 C 15.56667 km/h
1593 01-10-2019 08:00:00 15.5 C 11.54 g/m*3 15.5 C 14.1 km/h
1594 01-10-2019 09:00:00 16.125 C 11.82 g/m*3 16.13 C 13.7 km/h
1595 01-10-2019 10:00:00 17.09167 C 12.35 g/m*3 17.09 C 14.9 km/h
1596 01-10-2019 11:00:00 17.53333 C 12.69 g/m*3 17.53 C 14.63333 km/h
1597 01-10-2019 12:00:00 17.36667 C 13.11 g/m*3 17.37 C 12.225 km/h
1598 01-10-2019 13:00:00 18.575 C 12.46 g/m*3 18.58 C 9.41667 km/h
1599 01-10-2019 14:00:00 18.35833 C 13.01 g/m*3 18.36 C 8.34167 km/h
1600 01-10-2019 15:00:00 19.08333 C 13.57 g/m*3 19.08 C 11.425 km/h
Sensor: Nr:Datum:Temp:Abs-Feuchte:Windchill:Wind:
Aussen-T/F 1601 01-10-2019 16:00:00 18.26667 C 13.78 g/m*3 18.27 C 5.775 km/h
1602 01-10-2019 17:00:00 17.6 C 13.95 g/m*3 17.6 C 0.66667 km/h
1603 01-10-2019 18:00:00 16.725 C 13.21 g/m*3 16.73 C 1.2 km/h
1604 01-10-2019 19:00:00 16.19167 C 12.98 g/m*3 16.19 C 0 km/h
1605 01-10-2019 20:00:00 15.875 C 12.82 g/m*3 15.88 C 0.66667 km/h
1606 01-10-2019 21:00:00 15.85 C 12.85 g/m*3 15.85 C 1.46667 km/h
1607 01-10-2019 22:00:00 15.5 C 12.56 g/m*3 15.5 C 1.60833 km/h
1608 01-10-2019 23:00:00 15.225 C 12.35 g/m*3 15.23 C 3.06667 km/h
1609 02-10-2019 00:00:00 15.15833 C 12.3 g/m*3 15.16 C 3.35833 km/h
1610 02-10-2019 01:00:00 15.20833 C 12.24 g/m*3 15.21 C 4.14167 km/h
1611 02-10-2019 02:00:00 14.975 C 12 g/m*3 14.98 C 1.2 km/h
1612 02-10-2019 03:00:00 14.95833 C 11.96 g/m*3 14.96 C 7.26667 km/h
1613 02-10-2019 04:00:00 15.08333 C 11.86 g/m*3 15.08 C 4.55 km/h
1614 02-10-2019 05:00:00 14.69167 C 11.66 g/m*3 14.69 C 3.48333 km/h
1615 02-10-2019 06:00:00 13.59167 C 10.82 g/m*3 13.59 C 10.2 km/h
1616 02-10-2019 07:00:00 11.80833 C 9.71 g/m*3 11.81 C 11.3 km/h
1617 02-10-2019 08:00:00 10.74167 C 9.16 g/m*3 9.02 C 13.43333 km/h
1618 02-10-2019 09:00:00 10.46667 C 8.8 g/m*3 9.65 C 7.51667 km/h
1619 02-10-2019 10:00:00 10.86667 C 8.73 g/m*3 10.04 C 7.91667 km/h
1620 02-10-2019 11:00:00 11.33333 C 8.56 g/m*3 11.33 C 11.01667 km/h
1621 02-10-2019 12:00:00 11.86667 C 8.52 g/m*3 11.87 C 9.125 km/h
1622 02-10-2019 13:00:00 12.65833 C 8.48 g/m*3 12.66 C 9.54167 km/h
1623 02-10-2019 14:00:00 13.49167 C 8.19 g/m*3 13.49 C 9.55833 km/h
1624 02-10-2019 15:00:00 13.66667 C 7.87 g/m*3 13.67 C 11.825 km/h
1625 02-10-2019 16:00:00 13.8 C 7.37 g/m*3 13.8 C 14.1 km/h
Sensor: Nr:Datum:Temp:Abs-Feuchte:Windchill:Wind:
Aussen-T/F 1626 02-10-2019 17:00:00 14.26667 C 7.55 g/m*3 14.27 C 12.21667 km/h
1627 02-10-2019 18:00:00 12.9 C 7.68 g/m*3 12.9 C 10.89167 km/h
1628 02-10-2019 19:00:00 11.325 C 7.61 g/m*3 11.33 C 5.76667 km/h
1629 02-10-2019 20:00:00 10.04167 C 7.5 g/m*3 10.04 C 4.825 km/h
1630 02-10-2019 21:00:00 9.875 C 7.51 g/m*3 9.88 C 3.20833 km/h
1631 02-10-2019 22:00:00 8.61667 C 7.37 g/m*3 8.62 C 0.66667 km/h
1632 02-10-2019 23:00:00 8.48333 C 7.43 g/m*3 8.48 C 3.875 km/h
1633 03-10-2019 00:00:00 9.33333 C 7.66 g/m*3 9.33 C 4.41667 km/h
1634 03-10-2019 01:00:00 9.25833 C 7.75 g/m*3 9.26 C 4.68333 km/h
1635 03-10-2019 02:00:00 9.21667 C 7.73 g/m*3 9.22 C 3.73333 km/h
1636 03-10-2019 03:00:00 8.525 C 7.52 g/m*3 8.53 C 1.86667 km/h
1637 03-10-2019 04:00:00 7.63333 C 7.29 g/m*3 7.63 C 1.33333 km/h
1638 03-10-2019 05:00:00 7.94167 C 7.49 g/m*3 7.94 C 4.41667 km/h
1639 03-10-2019 06:00:00 7.45 C 7.26 g/m*3 7.45 C 1.2 km/h
1640 03-10-2019 07:00:00 7.2 C 7.29 g/m*3 7.2 C 1.6 km/h
1641 03-10-2019 08:00:00 7.74167 C 7.49 g/m*3 7.74 C 4.96667 km/h
1642 03-10-2019 09:00:00 9.34167 C 7.9 g/m*3 8.53 C 6.70833 km/h
1643 03-10-2019 10:00:00 10.36667 C 8.23 g/m*3 9.45 C 7.925 km/h
1644 03-10-2019 11:00:00 12.23333 C 8.75 g/m*3 12.23 C 8.725 km/h
1645 03-10-2019 12:00:00 12.55833 C 9.02 g/m*3 12.56 C 6.16667 km/h
1646 03-10-2019 13:00:00 12.225 C 9.57 g/m*3 12.23 C 0.13333 km/h
1647 03-10-2019 14:00:00 11.68333 C 9.65 g/m*3 11.68 C 0.8 km/h
1648 03-10-2019 15:00:00 11.88333 C 10.01 g/m*3 11.88 C 0.8 km/h
1649 03-10-2019 16:00:00 12.15833 C 10.02 g/m*3 12.16 C 2.41667 km/h
1650 03-10-2019 17:00:00 11.75833 C 9.81 g/m*3 11.76 C 0 km/h
Sensor: Nr:Datum:Temp:Abs-Feuchte:Windchill:Wind:
Aussen-T/F 1651 03-10-2019 18:00:00 10.81667 C 9.3 g/m*3 10.82 C 1.06667 km/h
1652 03-10-2019 19:00:00 9.90833 C 8.84 g/m*3 9.91 C 0.8 km/h
1653 03-10-2019 20:00:00 9.36667 C 8.58 g/m*3 9.37 C 0 km/h
1654 03-10-2019 21:00:00 9.00833 C 8.45 g/m*3 9.01 C 0 km/h
1655 03-10-2019 22:00:00 8.625 C 8.26 g/m*3 8.63 C 0 km/h
1656 03-10-2019 23:00:00 8.375 C 8.13 g/m*3 8.38 C 0 km/h
1657 04-10-2019 00:00:00 8.38333 C 8.14 g/m*3 8.38 C 0 km/h
1658 04-10-2019 01:00:00 8.21667 C 8.07 g/m*3 8.22 C 0.13333 km/h
1659 04-10-2019 02:00:00 8.19167 C 8.08 g/m*3 8.19 C 0 km/h
1660 04-10-2019 03:00:00 8.05833 C 8.04 g/m*3 8.06 C 0 km/h
1661 04-10-2019 04:00:00 7.71667 C 7.86 g/m*3 7.72 C 0 km/h
1662 04-10-2019 05:00:00 7.90833 C 7.97 g/m*3 7.91 C 0 km/h
1663 04-10-2019 06:00:00 7.96667 C 8 g/m*3 7.97 C 0.93333 km/h
1664 04-10-2019 07:00:00 8.13333 C 8.09 g/m*3 8.13 C 2.68333 km/h
1665 04-10-2019 08:00:00 8.45833 C 8.26 g/m*3 8.46 C 1.06667 km/h
1666 04-10-2019 09:00:00 8.70833 C 8.39 g/m*3 8.71 C 0.8 km/h
1667 04-10-2019 10:00:00 9.125 C 8.61 g/m*3 9.13 C 3.875 km/h
1668 04-10-2019 11:00:00 9.75833 C 8.88 g/m*3 9.26 C 5.75833 km/h
1669 04-10-2019 12:00:00 10.65 C 9.33 g/m*3 10.65 C 3.06667 km/h
1670 04-10-2019 13:00:00 11.25833 C 9.61 g/m*3 11.26 C 2 km/h
1671 04-10-2019 14:00:00 13.03333 C 10.33 g/m*3 13.03 C 7.53333 km/h
1672 04-10-2019 15:00:00 13.81667 C 10.48 g/m*3 13.82 C 6.98333 km/h
1673 04-10-2019 16:00:00 14.05833 C 10.83 g/m*3 14.06 C 1.875 km/h
1674 04-10-2019 17:00:00 13.36667 C 10.78 g/m*3 13.37 C 2.13333 km/h
1675 04-10-2019 18:00:00 12.35833 C 10.26 g/m*3 12.36 C 1.46667 km/h
Sensor: Nr:Datum:Temp:Abs-Feuchte:Windchill:Wind:
Aussen-T/F 1676 04-10-2019 19:00:00 11.70833 C 9.98 g/m*3 11.71 C 1.06667 km/h
1677 04-10-2019 20:00:00 11.63333 C 10 g/m*3 11.63 C 2.53333 km/h
1678 04-10-2019 21:00:00 11.65833 C 10.01 g/m*3 11.66 C 5.775 km/h
1679 04-10-2019 22:00:00 11.69167 C 9.97 g/m*3 11.69 C 4.29167 km/h
1680 04-10-2019 23:00:00 11.71667 C 9.99 g/m*3 11.72 C 5.9 km/h
1681 05-10-2019 00:00:00 11.96667 C 9.86 g/m*3 11.97 C 7.10833 km/h
1682 05-10-2019 01:00:00 12.09167 C 9.86 g/m*3 12.09 C 6.85833 km/h
1683 05-10-2019 02:00:00 12.225 C 9.8 g/m*3 12.23 C 7.64167 km/h
1684 05-10-2019 03:00:00 12.3 C 9.94 g/m*3 12.3 C 3.20833 km/h
1685 05-10-2019 04:00:00 11.55 C 9.64 g/m*3 11.55 C 5.90833 km/h
1686 05-10-2019 05:00:00 10.75833 C 9.21 g/m*3 10.24 C 6.44167 km/h
1687 05-10-2019 06:00:00 10.20833 C 8.93 g/m*3 10.21 C 2.275 km/h
1688 05-10-2019 07:00:00 9.98333 C 8.77 g/m*3 9.98 C 3.6 km/h
1689 05-10-2019 08:00:00 9.81667 C 8.54 g/m*3 9.82 C 2.26667 km/h
1690 05-10-2019 09:00:00 10.18333 C 8.62 g/m*3 10.18 C 4.94167 km/h
1691 05-10-2019 10:00:00 10.55833 C 8.61 g/m*3 9.6 C 8.325 km/h
1692 05-10-2019 11:00:00 10.70833 C 8.11 g/m*3 9.72 C 8.60833 km/h
1693 05-10-2019 12:00:00 11.2 C 8.17 g/m*3 11.2 C 6.575 km/h
1694 05-10-2019 13:00:00 11.9 C 8.22 g/m*3 11.9 C 4.26667 km/h
1695 05-10-2019 14:00:00 11.89167 C 8.27 g/m*3 11.89 C 2.40833 km/h
1696 05-10-2019 15:00:00 12.23333 C 8.36 g/m*3 12.23 C 0.93333 km/h
1697 05-10-2019 16:00:00 12.3 C 8.75 g/m*3 12.3 C 0.66667 km/h
1698 05-10-2019 17:00:00 12.06667 C 9 g/m*3 12.07 C 0.13333 km/h
1699 05-10-2019 18:00:00 11.125 C 8.64 g/m*3 11.13 C 0 km/h
1700 05-10-2019 19:00:00 9.50833 C 7.87 g/m*3 9.51 C 0.4 km/h
Sensor: Nr:Datum:Temp:Abs-Feuchte:Windchill:Wind:
Aussen-T/F 1701 05-10-2019 20:00:00 8.35833 C 7.46 g/m*3 8.36 C 1.33333 km/h
1702 05-10-2019 21:00:00 7.875 C 7.44 g/m*3 7.88 C 0 km/h
1703 05-10-2019 22:00:00 7.43333 C 7.44 g/m*3 7.43 C 0 km/h
1704 05-10-2019 23:00:00 7.35 C 7.45 g/m*3 7.35 C 0 km/h
1705 06-10-2019 00:00:00 7.13333 C 7.36 g/m*3 7.13 C 0 km/h
1706 06-10-2019 01:00:00 6.55 C 7.11 g/m*3 6.55 C 0 km/h
1707 06-10-2019 02:00:00 6.7 C 7.26 g/m*3 6.7 C 0 km/h
1708 06-10-2019 03:00:00 7.05833 C 7.47 g/m*3 7.06 C 0 km/h
1709 06-10-2019 04:00:00 7.2 C 7.54 g/m*3 7.2 C 0 km/h
1710 06-10-2019 05:00:00 7.18333 C 7.53 g/m*3 7.18 C 0 km/h
1711 06-10-2019 06:00:00 7.38333 C 7.63 g/m*3 7.38 C 0 km/h
1712 06-10-2019 07:00:00 7.65833 C 7.76 g/m*3 7.66 C 0 km/h
1713 06-10-2019 08:00:00 7.84167 C 7.86 g/m*3 7.84 C 0 km/h
1714 06-10-2019 09:00:00 8.31667 C 8.1 g/m*3 8.32 C 0 km/h
1715 06-10-2019 10:00:00 8.63333 C 8.22 g/m*3 8.63 C 0.8 km/h
1716 06-10-2019 11:00:00 8.55833 C 8.21 g/m*3 8.56 C 3.6 km/h
1717 06-10-2019 12:00:00 8.78333 C 8.35 g/m*3 8.78 C 0.26667 km/h
1718 06-10-2019 13:00:00 9.06667 C 8.5 g/m*3 9.07 C 0.66667 km/h
1719 06-10-2019 14:00:00 9.25 C 8.6 g/m*3 9.25 C 1.06667 km/h
1720 06-10-2019 15:00:00 9.45833 C 8.72 g/m*3 9.46 C 0.53333 km/h
1721 06-10-2019 16:00:00 9.61667 C 8.8 g/m*3 9.62 C 1.86667 km/h
1722 06-10-2019 17:00:00 9.51667 C 8.75 g/m*3 9.52 C 0.53333 km/h
1723 06-10-2019 18:00:00 9.325 C 8.64 g/m*3 9.32 C 3.225 km/h
1724 06-10-2019 19:00:00 9.15 C 8.57 g/m*3 9.15 C 3.60833 km/h
1725 06-10-2019 20:00:00 9.1 C 8.61 g/m*3 9.1 C 0.4 km/h
Sensor: Nr:Datum:Temp:Abs-Feuchte:Windchill:Wind:
Aussen-T/F 1726 06-10-2019 21:00:00 9.04167 C 8.57 g/m*3 9.04 C 1.74167 km/h
1727 06-10-2019 22:00:00 8.81667 C 8.45 g/m*3 8.82 C 1.875 km/h
1728 06-10-2019 23:00:00 8.83333 C 8.46 g/m*3 8.83 C 0 km/h
1729 07-10-2019 00:00:00 8.9 C 8.5 g/m*3 8.9 C 0.26667 km/h
1730 07-10-2019 01:00:00 8.725 C 8.4 g/m*3 8.73 C 2.95 km/h
1731 07-10-2019 02:00:00 8.69167 C 8.38 g/m*3 8.69 C 0.13333 km/h
1732 07-10-2019 03:00:00 8.60833 C 8.34 g/m*3 8.61 C 1.33333 km/h
1733 07-10-2019 04:00:00 8.7 C 8.39 g/m*3 8.7 C 0 km/h
1734 07-10-2019 05:00:00 8.64167 C 8.36 g/m*3 8.64 C 1.86667 km/h
1735 07-10-2019 06:00:00 8.6 C 8.34 g/m*3 8.6 C 0.13333 km/h
1736 07-10-2019 07:00:00 8.6 C 8.34 g/m*3 8.6 C 0 km/h
1737 07-10-2019 08:00:00 8.66667 C 8.37 g/m*3 8.67 C 0 km/h
1738 07-10-2019 09:00:00 8.83333 C 8.46 g/m*3 8.83 C 0.26667 km/h
1739 07-10-2019 10:00:00 9.08333 C 8.6 g/m*3 9.08 C 1.06667 km/h
1740 07-10-2019 11:00:00 9.65 C 8.88 g/m*3 9.65 C 3.34167 km/h
1741 07-10-2019 12:00:00 10.51667 C 9.05 g/m*3 10.52 C 2.4 km/h
1742 07-10-2019 13:00:00 10.84167 C 9 g/m*3 10.84 C 2.675 km/h
1743 07-10-2019 14:00:00 11.46667 C 9.1 g/m*3 11.47 C 5.89167 km/h
1744 07-10-2019 15:00:00 12.225 C 9.43 g/m*3 12.23 C 1.86667 km/h
1745 07-10-2019 16:00:00 12.29167 C 9.53 g/m*3 12.29 C 1.33333 km/h
1746 07-10-2019 17:00:00 12.3 C 9.56 g/m*3 12.3 C 2.4 km/h
1747 07-10-2019 18:00:00 11.86667 C 9.56 g/m*3 11.87 C 0.53333 km/h
1748 07-10-2019 19:00:00 11.09167 C 9.35 g/m*3 11.09 C 0 km/h
1749 07-10-2019 20:00:00 10.725 C 9.32 g/m*3 10.73 C 0 km/h
1750 07-10-2019 21:00:00 10.975 C 9.58 g/m*3 10.98 C 0 km/h
Sensor: Nr:Datum:Temp:Abs-Feuchte:Windchill:Wind:
Aussen-T/F 1751 07-10-2019 22:00:00 11.1 C 9.67 g/m*3 11.1 C 0.26667 km/h
1752 07-10-2019 23:00:00 11.1 C 9.67 g/m*3 11.1 C 0.26667 km/h
1753 08-10-2019 00:00:00 11.11667 C 9.75 g/m*3 11.12 C 0.53333 km/h
1754 08-10-2019 01:00:00 11.25 C 9.79 g/m*3 11.25 C 1.33333 km/h
1755 08-10-2019 02:00:00 11.44167 C 9.88 g/m*3 11.44 C 0.93333 km/h
1756 08-10-2019 03:00:00 11.75833 C 10.05 g/m*3 11.76 C 3.75833 km/h
1757 08-10-2019 04:00:00 11.9 C 10.03 g/m*3 11.9 C 3.61667 km/h
1758 08-10-2019 05:00:00 12.31667 C 10 g/m*3 12.32 C 8.46667 km/h
1759 08-10-2019 06:00:00 12.18333 C 9.96 g/m*3 12.18 C 4.3 km/h
1760 08-10-2019 07:00:00 11.79167 C 9.97 g/m*3 11.79 C 2.53333 km/h
1761 08-10-2019 08:00:00 11.825 C 10.1 g/m*3 11.83 C 5.775 km/h
1762 08-10-2019 09:00:00 12.03333 C 10.25 g/m*3 12.03 C 10.05833 km/h
1763 08-10-2019 10:00:00 12.49167 C 10.45 g/m*3 12.49 C 12.76667 km/h
1764 08-10-2019 11:00:00 13.5 C 10.89 g/m*3 13.5 C 13.7 km/h
1765 08-10-2019 12:00:00 13.85833 C 10.95 g/m*3 13.86 C 14.36667 km/h
1766 08-10-2019 13:00:00 14.225 C 11.19 g/m*3 14.23 C 9.93333 km/h
1767 08-10-2019 14:00:00 14.6 C 11.43 g/m*3 14.6 C 10.075 km/h
1768 08-10-2019 15:00:00 14.48333 C 11.47 g/m*3 14.48 C 9.55 km/h
1769 08-10-2019 16:00:00 14.225 C 11.56 g/m*3 14.23 C 6.70833 km/h
1770 08-10-2019 17:00:00 14.05833 C 11.55 g/m*3 14.06 C 3.61667 km/h
1771 08-10-2019 18:00:00 13.86667 C 11.49 g/m*3 13.87 C 3.09167 km/h
1772 08-10-2019 19:00:00 13.79167 C 11.43 g/m*3 13.79 C 1.875 km/h
1773 08-10-2019 20:00:00 13.55 C 11.3 g/m*3 13.55 C 0.53333 km/h
1774 08-10-2019 21:00:00 13.225 C 11.14 g/m*3 13.23 C 0.13333 km/h
1775 08-10-2019 22:00:00 12.825 C 10.88 g/m*3 12.83 C 0 km/h
Sensor: Nr:Datum:Temp:Abs-Feuchte:Windchill:Wind:
Aussen-T/F 1776 08-10-2019 23:00:00 11.68333 C 10.05 g/m*3 11.68 C 0.53333 km/h
1777 09-10-2019 00:00:00 10.78333 C 9.56 g/m*3 10.78 C 0.13333 km/h
1778 09-10-2019 01:00:00 10.34167 C 9.31 g/m*3 10.34 C 0.13333 km/h
1779 09-10-2019 02:00:00 10.35 C 9.33 g/m*3 10.35 C 1.2 km/h
1780 09-10-2019 03:00:00 10.625 C 9.52 g/m*3 10.63 C 3.35833 km/h
1781 09-10-2019 04:00:00 10.98333 C 9.72 g/m*3 10.77 C 5.36667 km/h
1782 09-10-2019 05:00:00 10.79167 C 9.58 g/m*3 10.59 C 5.225 km/h
1783 09-10-2019 06:00:00 10.925 C 9.66 g/m*3 10.37 C 6.69167 km/h
1784 09-10-2019 07:00:00 10.64167 C 9.4 g/m*3 10.64 C 4.54167 km/h
1785 09-10-2019 08:00:00 10.73333 C 9.48 g/m*3 10.73 C 4.95833 km/h
1786 09-10-2019 09:00:00 11.2 C 9.76 g/m*3 11.2 C 5.36667 km/h
1787 09-10-2019 10:00:00 12.55 C 10.19 g/m*3 12.55 C 7.38333 km/h
1788 09-10-2019 11:00:00 13.55833 C 10.43 g/m*3 13.56 C 3.46667 km/h
1789 09-10-2019 12:00:00 13.90833 C 10.64 g/m*3 13.91 C 5.225 km/h
1790 09-10-2019 13:00:00 13.59167 C 10.87 g/m*3 13.59 C 1.34167 km/h
1791 09-10-2019 14:00:00 12.925 C 10.43 g/m*3 12.93 C 3.74167 km/h
1792 09-10-2019 15:00:00 12.28333 C 10.09 g/m*3 12.28 C 9.01667 km/h
1793 09-10-2019 16:00:00 12.775 C 10.02 g/m*3 12.78 C 8.86667 km/h
1794 09-10-2019 17:00:00 12.975 C 9.81 g/m*3 12.98 C 10.20833 km/h
1795 09-10-2019 18:00:00 12.525 C 9.54 g/m*3 12.53 C 11.28333 km/h
1796 09-10-2019 19:00:00 11.84167 C 9.37 g/m*3 11.84 C 9.675 km/h
1797 09-10-2019 20:00:00 11.20833 C 9.09 g/m*3 11.21 C 6.3 km/h
1798 09-10-2019 21:00:00 11.06667 C 9.07 g/m*3 11.07 C 8.2 km/h
1799 09-10-2019 22:00:00 11.10833 C 8.69 g/m*3 11.11 C 14.23333 km/h
1800 09-10-2019 23:00:00 10.8 C 8.53 g/m*3 9.33 C 11.7 km/h
Sensor: Nr:Datum:Temp:Abs-Feuchte:Windchill:Wind:
Aussen-T/F 1801 10-10-2019 00:00:00 10.375 C 8.45 g/m*3 8.64 C 12.89167 km/h
1802 10-10-2019 01:00:00 10.15833 C 8.49 g/m*3 9.61 C 6.15833 km/h
1803 10-10-2019 02:00:00 10.39167 C 8.71 g/m*3 10.39 C 4.825 km/h
1804 10-10-2019 03:00:00 10.68333 C 8.93 g/m*3 10.68 C 4.81667 km/h
1805 10-10-2019 04:00:00 10.56667 C 8.95 g/m*3 9.64 C 8.18333 km/h
1806 10-10-2019 05:00:00 10.40833 C 9.02 g/m*3 10.41 C 3.2 km/h
1807 10-10-2019 06:00:00 10.44167 C 9.05 g/m*3 10.11 C 5.49167 km/h
1808 10-10-2019 07:00:00 10.09167 C 8.79 g/m*3 9.37 C 6.84167 km/h
1809 10-10-2019 08:00:00 9.81667 C 8.56 g/m*3 8.93 C 7.375 km/h
1810 10-10-2019 09:00:00 10.675 C 8.79 g/m*3 9.59 C 9.13333 km/h
1811 10-10-2019 10:00:00 11.29167 C 8.88 g/m*3 11.29 C 11.825 km/h
1812 10-10-2019 11:00:00 12.33333 C 9.13 g/m*3 12.33 C 12.89167 km/h
1813 10-10-2019 12:00:00 13.35 C 9.1 g/m*3 13.35 C 14.1 km/h
1814 10-10-2019 13:00:00 14.28333 C 8.73 g/m*3 14.28 C 16.5 km/h
1815 10-10-2019 14:00:00 14.53333 C 9.12 g/m*3 14.53 C 12.20833 km/h
1816 10-10-2019 15:00:00 15.09167 C 9.33 g/m*3 15.09 C 12.76667 km/h
1817 10-10-2019 16:00:00 15.37778 C 9.32 g/m*3 15.38 C 12.01111 km/h
1818 10-10-2019 17:00:00 13.83333 C 9.62 g/m*3 13.83 C 9.675 km/h
1819 10-10-2019 18:00:00 13.18333 C 9.53 g/m*3 13.18 C 4.15 km/h
1820 10-10-2019 19:00:00 11.68333 C 9.19 g/m*3 11.68 C 3.475 km/h
1821 10-10-2019 20:00:00 11.69167 C 9.23 g/m*3 11.69 C 4.95 km/h
1822 10-10-2019 21:00:00 10.88333 C 9 g/m*3 10.88 C 0.26667 km/h
1823 10-10-2019 22:00:00 10.18333 C 8.9 g/m*3 10.18 C 0.13333 km/h
1824 10-10-2019 23:00:00 9.8 C 8.77 g/m*3 9.8 C 0.93333 km/h
1825 11-10-2019 00:00:00 9.575 C 8.73 g/m*3 9.57 C 1.06667 km/h
Sensor: Nr:Datum:Temp:Abs-Feuchte:Windchill:Wind:
Aussen-T/F 1826 11-10-2019 01:00:00 9.19167 C 8.52 g/m*3 9.19 C 0.8 km/h
1827 11-10-2019 02:00:00 8.83333 C 8.36 g/m*3 8.83 C 0 km/h
1828 11-10-2019 03:00:00 8.98333 C 8.48 g/m*3 8.98 C 1.74167 km/h
1829 11-10-2019 04:00:00 9.49167 C 8.72 g/m*3 9.49 C 3.86667 km/h
1830 11-10-2019 05:00:00 9.45833 C 8.62 g/m*3 9.46 C 2.40833 km/h
1831 11-10-2019 06:00:00 9.43333 C 8.6 g/m*3 9.43 C 0.4 km/h
1832 11-10-2019 07:00:00 9.91667 C 8.89 g/m*3 9.92 C 1.60833 km/h
1833 11-10-2019 08:00:00 10.98333 C 9.5 g/m*3 10.98 C 2.80833 km/h
1834 11-10-2019 09:00:00 12.425 C 10.21 g/m*3 12.43 C 3.21667 km/h
1835 11-10-2019 10:00:00 13.35833 C 10.58 g/m*3 13.36 C 3.34167 km/h
1836 11-10-2019 11:00:00 14.85833 C 10.83 g/m*3 14.86 C 11.68333 km/h
1837 11-10-2019 12:00:00 15.85 C 10.72 g/m*3 15.85 C 16.1 km/h
1838 11-10-2019 13:00:00 16.39167 C 10.82 g/m*3 16.39 C 11.15 km/h
1839 11-10-2019 14:00:00 16.29167 C 10.86 g/m*3 16.29 C 11.275 km/h
1840 11-10-2019 15:00:00 16.56667 C 10.9 g/m*3 16.57 C 11.03333 km/h
1841 11-10-2019 16:00:00 16.6 C 11.02 g/m*3 16.6 C 10.61667 km/h
1842 11-10-2019 17:00:00 16.66667 C 11.09 g/m*3 16.67 C 9 km/h
1843 11-10-2019 18:00:00 16.04167 C 11.1 g/m*3 16.04 C 4.03333 km/h
1844 11-10-2019 19:00:00 14.19167 C 10.81 g/m*3 14.19 C 0.4 km/h
1845 11-10-2019 20:00:00 13.55833 C 10.81 g/m*3 13.56 C 0 km/h
1846 11-10-2019 21:00:00 12.80833 C 10.44 g/m*3 12.81 C 0 km/h
1847 11-10-2019 22:00:00 12.075 C 10.11 g/m*3 12.08 C 0 km/h
1848 11-10-2019 23:00:00 11.81667 C 10.03 g/m*3 11.82 C 0 km/h
1849 12-10-2019 00:00:00 11.11667 C 9.59 g/m*3 11.12 C 0 km/h
1850 12-10-2019 01:00:00 10.63333 C 9.39 g/m*3 10.63 C 0 km/h
Sensor: Nr:Datum:Temp:Abs-Feuchte:Windchill:Wind:
Aussen-T/F 1851 12-10-2019 02:00:00 10.30833 C 9.2 g/m*3 10.31 C 0.13333 km/h
1852 12-10-2019 03:00:00 9.95833 C 9 g/m*3 9.96 C 0 km/h
1853 12-10-2019 04:00:00 10.01667 C 9.12 g/m*3 10.02 C 0 km/h
1854 12-10-2019 05:00:00 9.58333 C 8.84 g/m*3 9.58 C 0 km/h
1855 12-10-2019 06:00:00 8.89167 C 8.49 g/m*3 8.89 C 0 km/h
1856 12-10-2019 07:00:00 8.74167 C 8.41 g/m*3 8.74 C 0 km/h
1857 12-10-2019 08:00:00 8.86667 C 8.48 g/m*3 8.87 C 0 km/h
1858 12-10-2019 09:00:00 9.28333 C 8.73 g/m*3 9.28 C 0.93333 km/h
1859 12-10-2019 10:00:00 11.75 C 10.28 g/m*3 11.75 C 5.225 km/h
1860 12-10-2019 11:00:00 14.25 C 11.36 g/m*3 14.25 C 9.80833 km/h
1861 12-10-2019 12:00:00 16.45 C 11.47 g/m*3 16.45 C 7.79167 km/h
1862 12-10-2019 13:00:00 17.975 C 11.63 g/m*3 17.98 C 11.825 km/h
1863 12-10-2019 14:00:00 19.40833 C 11.8 g/m*3 19.41 C 13.56667 km/h
1864 12-10-2019 15:00:00 19.93333 C 11.86 g/m*3 19.93 C 14.76667 km/h
1865 12-10-2019 16:00:00 19.6 C 12.11 g/m*3 19.6 C 13.7 km/h
1866 12-10-2019 17:00:00 18.85 C 12.1 g/m*3 18.85 C 9.26667 km/h
1867 12-10-2019 18:00:00 17.225 C 12.21 g/m*3 17.23 C 0.26667 km/h
1868 12-10-2019 19:00:00 15.61667 C 11.8 g/m*3 15.62 C 0 km/h
1869 12-10-2019 20:00:00 14.93333 C 11.5 g/m*3 14.93 C 0 km/h
1870 12-10-2019 21:00:00 14.51667 C 11.56 g/m*3 14.52 C 1.6 km/h
1871 12-10-2019 22:00:00 14.925 C 11.72 g/m*3 14.93 C 0.26667 km/h
1872 12-10-2019 23:00:00 14.375 C 11.54 g/m*3 14.38 C 0 km/h
1873 13-10-2019 00:00:00 13.65 C 11.13 g/m*3 13.65 C 0.13333 km/h
1874 13-10-2019 01:00:00 13.11667 C 10.87 g/m*3 13.12 C 0 km/h
1875 13-10-2019 02:00:00 13.30833 C 11.14 g/m*3 13.31 C 0 km/h
Sensor: Nr:Datum:Temp:Abs-Feuchte:Windchill:Wind:
Aussen-T/F 1876 13-10-2019 03:00:00 13.40833 C 11.18 g/m*3 13.41 C 0 km/h
1877 13-10-2019 04:00:00 13 C 10.94 g/m*3 13 C 0.26667 km/h
1878 13-10-2019 05:00:00 13.54167 C 11.37 g/m*3 13.54 C 0 km/h
1879 13-10-2019 06:00:00 13.79167 C 11.55 g/m*3 13.79 C 0 km/h
1880 13-10-2019 07:00:00 13.76667 C 11.53 g/m*3 13.77 C 0 km/h
1881 13-10-2019 08:00:00 13.11667 C 11.08 g/m*3 13.12 C 0.4 km/h
1882 13-10-2019 09:00:00 13.46667 C 11.38 g/m*3 13.47 C 0 km/h
1883 13-10-2019 10:00:00 14.23333 C 11.98 g/m*3 14.23 C 0 km/h
1884 13-10-2019 11:00:00 15.63333 C 13.06 g/m*3 15.63 C 1.2 km/h
1885 13-10-2019 12:00:00 17.325 C 14.43 g/m*3 17.33 C 2.14167 km/h
1886 13-10-2019 13:00:00 19.45833 C 15.3 g/m*3 19.46 C 2.00833 km/h
1887 13-10-2019 14:00:00 21.65833 C 14.76 g/m*3 21.66 C 4.54167 km/h
1888 13-10-2019 15:00:00 22.03333 C 14.76 g/m*3 22.03 C 4.025 km/h
1889 13-10-2019 16:00:00 21.96667 C 14.92 g/m*3 21.97 C 2.54167 km/h
1890 13-10-2019 17:00:00 21.125 C 14.87 g/m*3 21.13 C 0.93333 km/h
1891 13-10-2019 18:00:00 19.51667 C 14.41 g/m*3 19.52 C 0.8 km/h
1892 13-10-2019 19:00:00 18.45 C 13.93 g/m*3 18.45 C 0.4 km/h
1893 13-10-2019 20:00:00 18.11667 C 13.66 g/m*3 18.12 C 0.26667 km/h
1894 13-10-2019 21:00:00 17.41667 C 13.24 g/m*3 17.42 C 0.26667 km/h
1895 13-10-2019 22:00:00 17.06667 C 12.86 g/m*3 17.07 C 0.13333 km/h
1896 13-10-2019 23:00:00 16.56667 C 12.52 g/m*3 16.57 C 0.26667 km/h
1897 14-10-2019 00:00:00 15.825 C 12.14 g/m*3 15.83 C 0 km/h
1898 14-10-2019 01:00:00 15.41667 C 11.97 g/m*3 15.42 C 0 km/h
1899 14-10-2019 02:00:00 14.91667 C 11.73 g/m*3 14.92 C 0 km/h
1900 14-10-2019 03:00:00 14.14167 C 11.33 g/m*3 14.14 C 0.26667 km/h
Sensor: Nr:Datum:Temp:Abs-Feuchte:Windchill:Wind:
Aussen-T/F 1901 14-10-2019 04:00:00 13.45833 C 11 g/m*3 13.46 C 0 km/h
1902 14-10-2019 05:00:00 13.36667 C 11.08 g/m*3 13.37 C 0.26667 km/h
1903 14-10-2019 06:00:00 12.9 C 10.73 g/m*3 12.9 C 0 km/h
1904 14-10-2019 07:00:00 12.75 C 10.7 g/m*3 12.75 C 1.2 km/h
1905 14-10-2019 08:00:00 12.88333 C 10.81 g/m*3 12.88 C 0 km/h
1906 14-10-2019 09:00:00 13.24167 C 11.07 g/m*3 13.24 C 0 km/h
1907 14-10-2019 10:00:00 13.64167 C 11.39 g/m*3 13.64 C 0 km/h
1908 14-10-2019 11:00:00 14.90833 C 12.37 g/m*3 14.91 C 0 km/h
1909 14-10-2019 12:00:00 16.49167 C 13.51 g/m*3 16.49 C 0 km/h
1910 14-10-2019 13:00:00 18.55833 C 14.17 g/m*3 18.56 C 1.73333 km/h
1911 14-10-2019 14:00:00 21.1 C 14.13 g/m*3 21.1 C 3.75 km/h
1912 14-10-2019 15:00:00 21.11667 C 13.92 g/m*3 21.12 C 2.675 km/h
1913 14-10-2019 16:00:00 20.775 C 13.38 g/m*3 20.78 C 2.81667 km/h
1914 14-10-2019 17:00:00 19.81667 C 13.44 g/m*3 19.82 C 0 km/h
1915 14-10-2019 18:00:00 18.93333 C 13.13 g/m*3 18.93 C 0.26667 km/h
1916 14-10-2019 19:00:00 17.43333 C 12.92 g/m*3 17.43 C 0.26667 km/h
1917 14-10-2019 20:00:00 16.71667 C 12.54 g/m*3 16.72 C 0.13333 km/h
1918 14-10-2019 21:00:00 15.88333 C 12.05 g/m*3 15.88 C 0 km/h
1919 14-10-2019 22:00:00 14.875 C 11.7 g/m*3 14.88 C 0.26667 km/h
1920 14-10-2019 23:00:00 15.075 C 11.86 g/m*3 15.08 C 0.26667 km/h
1921 15-10-2019 00:00:00 15.08333 C 11.86 g/m*3 15.08 C 0.13333 km/h
1922 15-10-2019 01:00:00 14.4 C 11.41 g/m*3 14.4 C 0.13333 km/h
1923 15-10-2019 02:00:00 13.43333 C 10.9 g/m*3 13.43 C 0 km/h
1924 15-10-2019 03:00:00 12.725 C 10.54 g/m*3 12.73 C 0 km/h
1925 15-10-2019 04:00:00 12.38333 C 10.41 g/m*3 12.38 C 0.8 km/h
Sensor: Nr:Datum:Temp:Abs-Feuchte:Windchill:Wind:
Aussen-T/F 1926 15-10-2019 05:00:00 11.95833 C 10.18 g/m*3 11.96 C 0 km/h
1927 15-10-2019 06:00:00 12.09167 C 10.35 g/m*3 12.09 C 0.26667 km/h
1928 15-10-2019 07:00:00 11.96667 C 10.24 g/m*3 11.97 C 0 km/h
1929 15-10-2019 08:00:00 11.79167 C 10.19 g/m*3 11.79 C 0 km/h
1930 15-10-2019 09:00:00 12.36667 C 10.58 g/m*3 12.37 C 0 km/h
1931 15-10-2019 10:00:00 13.25833 C 11.18 g/m*3 13.26 C 0.8 km/h
1932 15-10-2019 11:00:00 15.375 C 12.54 g/m*3 15.38 C 2.54167 km/h
1933 15-10-2019 12:00:00 17.68333 C 12.87 g/m*3 17.68 C 6.58333 km/h
1934 15-10-2019 13:00:00 18.10833 C 12.43 g/m*3 18.11 C 9 km/h
1935 15-10-2019 14:00:00 17.73333 C 12.25 g/m*3 17.73 C 7.11667 km/h
1936 15-10-2019 15:00:00 17.21667 C 12.02 g/m*3 17.22 C 5.625 km/h
1937 15-10-2019 16:00:00 16.65833 C 12.09 g/m*3 16.66 C 1.86667 km/h
1938 15-10-2019 17:00:00 16.28333 C 12.2 g/m*3 16.28 C 0.13333 km/h
1939 15-10-2019 18:00:00 15.11667 C 11.88 g/m*3 15.12 C 0.66667 km/h
1940 15-10-2019 19:00:00 14.29167 C 11.58 g/m*3 14.29 C 0 km/h
1941 15-10-2019 20:00:00 13.925 C 11.41 g/m*3 13.93 C 0 km/h
1942 15-10-2019 21:00:00 13.65 C 11.27 g/m*3 13.65 C 0 km/h
1943 15-10-2019 22:00:00 13.41667 C 11.17 g/m*3 13.42 C 2.275 km/h
1944 15-10-2019 23:00:00 12.925 C 10.73 g/m*3 12.93 C 7.39167 km/h
1945 16-10-2019 00:00:00 12.10833 C 10.18 g/m*3 12.11 C 3.48333 km/h
1946 16-10-2019 01:00:00 11.85833 C 10.11 g/m*3 11.86 C 0.13333 km/h
1947 16-10-2019 02:00:00 11.8 C 10.1 g/m*3 11.8 C 0.26667 km/h
1948 16-10-2019 03:00:00 11.775 C 10.09 g/m*3 11.78 C 4.425 km/h
1949 16-10-2019 04:00:00 11.625 C 9.99 g/m*3 11.63 C 2.675 km/h
1950 16-10-2019 05:00:00 11.425 C 9.87 g/m*3 11.43 C 1.33333 km/h
Sensor: Nr:Datum:Temp:Abs-Feuchte:Windchill:Wind:
Aussen-T/F 1951 16-10-2019 06:00:00 11.18333 C 9.63 g/m*3 11.18 C 6.975 km/h
1952 16-10-2019 07:00:00 10.95833 C 9.38 g/m*3 10.96 C 2.26667 km/h
1953 16-10-2019 08:00:00 10.65 C 9.2 g/m*3 10.65 C 2.81667 km/h
1954 16-10-2019 09:00:00 10.925 C 9.44 g/m*3 10.93 C 1.6 km/h
1955 16-10-2019 10:00:00 12.44167 C 9.99 g/m*3 12.44 C 3.2 km/h
1956 16-10-2019 11:00:00 13.79167 C 10.29 g/m*3 13.79 C 5.9 km/h
1957 16-10-2019 12:00:00 14.55 C 10.54 g/m*3 14.55 C 5.64167 km/h
1958 16-10-2019 13:00:00 14.08333 C 11.05 g/m*3 14.08 C 0.53333 km/h
1959 16-10-2019 14:00:00 13.51667 C 11.02 g/m*3 13.52 C 2.275 km/h
1960 16-10-2019 15:00:00 13.91667 C 11.37 g/m*3 13.92 C 1.73333 km/h
1961 16-10-2019 16:00:00 14.34167 C 11.6 g/m*3 14.34 C 2.4 km/h
1962 16-10-2019 17:00:00 14.36667 C 11.66 g/m*3 14.37 C 0.26667 km/h
1963 16-10-2019 18:00:00 13.90833 C 11.39 g/m*3 13.91 C 0.13333 km/h
1964 16-10-2019 19:00:00 13.53333 C 11.25 g/m*3 13.53 C 0 km/h
1965 16-10-2019 20:00:00 13.25 C 11.06 g/m*3 13.25 C 0.26667 km/h
1966 16-10-2019 21:00:00 12.71667 C 10.7 g/m*3 12.72 C 0.26667 km/h
1967 16-10-2019 22:00:00 12.55833 C 10.59 g/m*3 12.56 C 0.26667 km/h
1968 16-10-2019 23:00:00 12.4 C 10.53 g/m*3 12.4 C 0.66667 km/h
1969 17-10-2019 00:00:00 12.64167 C 10.65 g/m*3 12.64 C 0.26667 km/h
1970 17-10-2019 01:00:00 12.61667 C 10.63 g/m*3 12.62 C 0.26667 km/h
1971 17-10-2019 02:00:00 12.375 C 10.47 g/m*3 12.38 C 0.26667 km/h
1972 17-10-2019 03:00:00 12.76667 C 10.67 g/m*3 12.77 C 1.2 km/h
1973 17-10-2019 04:00:00 13.575 C 10.86 g/m*3 13.58 C 1.6 km/h
1974 17-10-2019 05:00:00 14.19167 C 10.9 g/m*3 14.19 C 3.20833 km/h
1975 17-10-2019 06:00:00 14.23333 C 10.88 g/m*3 14.23 C 4.00833 km/h
Sensor: Nr:Datum:Temp:Abs-Feuchte:Windchill:Wind:
Aussen-T/F 1976 17-10-2019 07:00:00 14.24167 C 10.97 g/m*3 14.24 C 2.68333 km/h
1977 17-10-2019 08:00:00 14.58333 C 10.96 g/m*3 14.58 C 6.85 km/h
1978 17-10-2019 09:00:00 15.36667 C 11.12 g/m*3 15.37 C 7.39167 km/h
1979 17-10-2019 10:00:00 15.86667 C 11.24 g/m*3 15.87 C 9.39167 km/h
1980 17-10-2019 11:00:00 16.65833 C 11.61 g/m*3 16.66 C 3.88333 km/h
1981 17-10-2019 12:00:00 16.65833 C 11.92 g/m*3 16.66 C 2.26667 km/h
1982 17-10-2019 13:00:00 16.81667 C 11.88 g/m*3 16.82 C 5.50833 km/h
1983 17-10-2019 14:00:00 16.84167 C 12.29 g/m*3 16.84 C 0.93333 km/h
1984 17-10-2019 15:00:00 16.63333 C 12.31 g/m*3 16.63 C 0.8 km/h
1985 17-10-2019 16:00:00 15.85 C 12.31 g/m*3 15.85 C 0.26667 km/h
1986 17-10-2019 17:00:00 15.14167 C 12.15 g/m*3 15.14 C 0.13333 km/h
1987 17-10-2019 18:00:00 14.61667 C 11.9 g/m*3 14.62 C 0.26667 km/h
1988 17-10-2019 19:00:00 14.15833 C 11.65 g/m*3 14.16 C 0 km/h
1989 17-10-2019 20:00:00 14.08333 C 11.64 g/m*3 14.08 C 0.4 km/h
1990 17-10-2019 21:00:00 13.9 C 11.6 g/m*3 13.9 C 0.53333 km/h
1991 17-10-2019 22:00:00 13.85 C 11.59 g/m*3 13.85 C 0.13333 km/h
1992 17-10-2019 23:00:00 13.89167 C 11.62 g/m*3 13.89 C 0.66667 km/h
1993 18-10-2019 00:00:00 13.825 C 11.58 g/m*3 13.83 C 0.93333 km/h
1994 18-10-2019 01:00:00 12.83333 C 10.88 g/m*3 12.83 C 0.4 km/h
1995 18-10-2019 02:00:00 12.125 C 10.42 g/m*3 12.13 C 0 km/h
1996 18-10-2019 03:00:00 11.58333 C 10.07 g/m*3 11.58 C 0.4 km/h
1997 18-10-2019 04:00:00 11.49167 C 10.01 g/m*3 11.49 C 0.26667 km/h
1998 18-10-2019 05:00:00 11.80833 C 10.25 g/m*3 11.81 C 0.66667 km/h
1999 18-10-2019 06:00:00 12.7 C 10.91 g/m*3 12.7 C 1.6 km/h
2000 18-10-2019 07:00:00 12.60833 C 10.81 g/m*3 12.61 C 0.13333 km/h
Sensor: Nr:Datum:Temp:Abs-Feuchte:Windchill:Wind:
Aussen-T/F 2001 18-10-2019 08:00:00 12.8 C 10.98 g/m*3 12.8 C 0.26667 km/h
2002 18-10-2019 09:00:00 13.4 C 11.39 g/m*3 13.4 C 0 km/h
2003 18-10-2019 10:00:00 14.38333 C 12.1 g/m*3 14.38 C 1.33333 km/h
2004 18-10-2019 11:00:00 14.66667 C 12.23 g/m*3 14.67 C 3.88333 km/h
2005 18-10-2019 12:00:00 15.46667 C 11.78 g/m*3 15.47 C 7.25 km/h
2006 18-10-2019 13:00:00 14.95833 C 10.73 g/m*3 14.96 C 15.175 km/h
2007 18-10-2019 14:00:00 12.91667 C 9.64 g/m*3 12.92 C 16.50833 km/h
2008 18-10-2019 15:00:00 13.8 C 9.6 g/m*3 13.8 C 12.89167 km/h
2009 18-10-2019 16:00:00 14.23333 C 9.29 g/m*3 14.23 C 15.425 km/h
2010 18-10-2019 17:00:00 14.40833 C 9.06 g/m*3 14.41 C 9.8 km/h
2011 18-10-2019 18:00:00 12.64167 C 8.93 g/m*3 12.64 C 2.41667 km/h
2012 18-10-2019 19:00:00 10.63333 C 8.68 g/m*3 10.63 C 0.26667 km/h
2013 18-10-2019 20:00:00 9.75833 C 8.5 g/m*3 9.76 C 0 km/h
2014 18-10-2019 21:00:00 9.20833 C 8.34 g/m*3 9.21 C 0 km/h
2015 18-10-2019 22:00:00 9.23333 C 8.49 g/m*3 9.23 C 0 km/h
2016 18-10-2019 23:00:00 9.14167 C 8.45 g/m*3 9.14 C 0 km/h
2017 19-10-2019 00:00:00 9.14167 C 8.47 g/m*3 9.14 C 0.66667 km/h
2018 19-10-2019 01:00:00 9.64167 C 8.68 g/m*3 9.64 C 0.4 km/h
2019 19-10-2019 02:00:00 9.65833 C 8.67 g/m*3 9.66 C 0 km/h
2020 19-10-2019 03:00:00 9.875 C 8.76 g/m*3 9.88 C 0 km/h
2021 19-10-2019 04:00:00 10.10833 C 8.89 g/m*3 10.11 C 0.53333 km/h
2022 19-10-2019 05:00:00 10.68333 C 9.21 g/m*3 10.68 C 0.93333 km/h
2023 19-10-2019 06:00:00 10.70833 C 9.19 g/m*3 10.71 C 0 km/h
2024 19-10-2019 07:00:00 10.64167 C 9.23 g/m*3 10.64 C 0 km/h
2025 19-10-2019 08:00:00 11.05 C 9.54 g/m*3 11.05 C 0.26667 km/h
Sensor: Nr:Datum:Temp:Abs-Feuchte:Windchill:Wind:
Aussen-T/F 2026 19-10-2019 09:00:00 11.875 C 9.97 g/m*3 11.88 C 0.4 km/h
2027 19-10-2019 10:00:00 13.025 C 10.3 g/m*3 13.03 C 1.2 km/h
2028 19-10-2019 11:00:00 13.825 C 10.9 g/m*3 13.83 C 3.35 km/h
2029 19-10-2019 12:00:00 15.40833 C 11.24 g/m*3 15.41 C 3.34167 km/h
2030 19-10-2019 13:00:00 16.2 C 11.32 g/m*3 16.2 C 4.95833 km/h
2031 19-10-2019 14:00:00 16.9 C 11.41 g/m*3 16.9 C 7.5 km/h
2032 19-10-2019 15:00:00 17.24167 C 11.33 g/m*3 17.24 C 6.30833 km/h
2033 19-10-2019 16:00:00 17.15 C 11.4 g/m*3 17.15 C 1.475 km/h
2034 19-10-2019 17:00:00 16.84167 C 11.6 g/m*3 16.84 C 2.00833 km/h
2035 19-10-2019 18:00:00 15.16364 C 11.61 g/m*3 15.16 C 0.87273 km/h
2036 19-10-2019 19:00:00 14.03333 C 11.32 g/m*3 14.03 C 0 km/h
2037 19-10-2019 20:00:00 13.625 C 11.19 g/m*3 13.63 C 0 km/h
2038 19-10-2019 21:00:00 13.43333 C 11.14 g/m*3 13.43 C 0.53333 km/h
2039 19-10-2019 22:00:00 13.21667 C 11.03 g/m*3 13.22 C 0 km/h
2040 19-10-2019 23:00:00 13.00833 C 10.89 g/m*3 13.01 C 0 km/h
2041 20-10-2019 00:00:00 13 C 10.96 g/m*3 13 C 0 km/h
2042 20-10-2019 01:00:00 13.13333 C 11.09 g/m*3 13.13 C 0 km/h
2043 20-10-2019 02:00:00 13.11667 C 11.08 g/m*3 13.12 C 0 km/h
2044 20-10-2019 03:00:00 13.1 C 11.07 g/m*3 13.1 C 0 km/h
2045 20-10-2019 04:00:00 13.16667 C 11.11 g/m*3 13.17 C 0 km/h
2046 20-10-2019 05:00:00 12.96667 C 10.98 g/m*3 12.97 C 0.26667 km/h
2047 20-10-2019 06:00:00 12.74167 C 10.83 g/m*3 12.74 C 0 km/h
2048 20-10-2019 07:00:00 12.65 C 10.76 g/m*3 12.65 C 0 km/h
2049 20-10-2019 08:00:00 12.70833 C 10.8 g/m*3 12.71 C 0 km/h
2050 20-10-2019 09:00:00 12.84167 C 10.96 g/m*3 12.84 C 0.13333 km/h
Sensor: Nr:Datum:Temp:Abs-Feuchte:Windchill:Wind:
Aussen-T/F 2051 20-10-2019 10:00:00 13.04167 C 11.1 g/m*3 13.04 C 0.13333 km/h
2052 20-10-2019 11:00:00 13.25833 C 11.26 g/m*3 13.26 C 0.53333 km/h
2053 20-10-2019 12:00:00 13.69167 C 11.6 g/m*3 13.69 C 0 km/h
2054 20-10-2019 13:00:00 13.96667 C 11.8 g/m*3 13.97 C 0.13333 km/h
2055 20-10-2019 14:00:00 14.275 C 12.02 g/m*3 14.28 C 0.53333 km/h
2056 20-10-2019 15:00:00 14.525 C 12.21 g/m*3 14.53 C 0 km/h
2057 20-10-2019 16:00:00 14.83333 C 12.44 g/m*3 14.83 C 0.26667 km/h
2058 20-10-2019 17:00:00 14.85 C 12.45 g/m*3 14.85 C 0 km/h
2059 20-10-2019 18:00:00 14.45833 C 12.16 g/m*3 14.46 C 0 km/h
2060 20-10-2019 19:00:00 14.20833 C 11.97 g/m*3 14.21 C 0 km/h
2061 20-10-2019 20:00:00 14.03333 C 11.85 g/m*3 14.03 C 0 km/h
2062 20-10-2019 21:00:00 14.05833 C 11.86 g/m*3 14.06 C 0.26667 km/h
2063 20-10-2019 22:00:00 13.90909 C 11.76 g/m*3 13.91 C 0 km/h
2064 20-10-2019 23:00:00 13.925 C 11.77 g/m*3 13.93 C 0.26667 km/h
2065 21-10-2019 00:00:00 14.24167 C 12 g/m*3 14.24 C 4.95833 km/h
2066 21-10-2019 01:00:00 14.14167 C 11.92 g/m*3 14.14 C 0 km/h
2067 21-10-2019 02:00:00 13.74167 C 11.63 g/m*3 13.74 C 0 km/h
2068 21-10-2019 03:00:00 13.66667 C 11.58 g/m*3 13.67 C 0 km/h
2069 21-10-2019 04:00:00 13.11667 C 11.19 g/m*3 13.12 C 0 km/h
2070 21-10-2019 05:00:00 13.21667 C 11.26 g/m*3 13.22 C 0.13333 km/h
2071 21-10-2019 06:00:00 13.60833 C 11.54 g/m*3 13.61 C 0 km/h
2072 21-10-2019 07:00:00 13.31667 C 11.33 g/m*3 13.32 C 0 km/h
2073 21-10-2019 08:00:00 12.70833 C 10.91 g/m*3 12.71 C 0 km/h
2074 21-10-2019 09:00:00 12.9 C 11.05 g/m*3 12.9 C 0 km/h
2075 21-10-2019 10:00:00 13.49167 C 11.49 g/m*3 13.49 C 0.4 km/h
Sensor: Nr:Datum:Temp:Abs-Feuchte:Windchill:Wind:
Aussen-T/F 2076 21-10-2019 11:00:00 14.00833 C 11.83 g/m*3 14.01 C 2 km/h
2077 21-10-2019 12:00:00 14.60833 C 12.29 g/m*3 14.61 C 3.35 km/h
2078 21-10-2019 13:00:00 15.91667 C 12.04 g/m*3 15.92 C 11.025 km/h
2079 21-10-2019 14:00:00 16.70833 C 11.69 g/m*3 16.71 C 6.31667 km/h
2080 21-10-2019 15:00:00 16.375 C 11.27 g/m*3 16.38 C 6.96667 km/h
2081 21-10-2019 16:00:00 15.86667 C 10.94 g/m*3 15.87 C 4.95 km/h
2082 21-10-2019 17:00:00 14.73333 C 10.79 g/m*3 14.73 C 1.60833 km/h
2083 21-10-2019 18:00:00 13.72727 C 10.33 g/m*3 13.73 C 0.87273 km/h
2084 21-10-2019 19:00:00 12.49167 C 9.92 g/m*3 12.49 C 0 km/h
2085 21-10-2019 20:00:00 11.75 C 9.69 g/m*3 11.75 C 0 km/h
2086 21-10-2019 21:00:00 11.38333 C 9.6 g/m*3 11.38 C 0 km/h
2087 21-10-2019 22:00:00 11.325 C 9.6 g/m*3 11.33 C 0 km/h
2088 21-10-2019 23:00:00 11.21667 C 9.52 g/m*3 11.22 C 0 km/h
2089 22-10-2019 00:00:00 10.825 C 9.36 g/m*3 10.83 C 0 km/h
2090 22-10-2019 01:00:00 11.01667 C 9.52 g/m*3 11.02 C 0.26667 km/h
2091 22-10-2019 02:00:00 10.94167 C 9.47 g/m*3 10.94 C 0 km/h
2092 22-10-2019 03:00:00 10.875 C 9.42 g/m*3 10.88 C 0 km/h
2093 22-10-2019 04:00:00 10.66667 C 9.29 g/m*3 10.67 C 0 km/h
2094 22-10-2019 05:00:00 10 C 8.92 g/m*3 10 C 0 km/h
2095 22-10-2019 06:00:00 10.1 C 9.08 g/m*3 10.1 C 0 km/h
2096 22-10-2019 07:00:00 9.975 C 8.95 g/m*3 9.98 C 0 km/h
2097 22-10-2019 08:00:00 9.875 C 8.95 g/m*3 9.88 C 0 km/h
2098 22-10-2019 09:00:00 10.44167 C 9.25 g/m*3 10.44 C 1.2 km/h
2099 22-10-2019 10:00:00 11.36667 C 9.62 g/m*3 11.37 C 3.6 km/h
2100 22-10-2019 11:00:00 12.78333 C 9.88 g/m*3 12.78 C 4.675 km/h
Sensor: Nr:Datum:Temp:Abs-Feuchte:Windchill:Wind:
Aussen-T/F 2101 22-10-2019 12:00:00 13.61667 C 10 g/m*3 13.62 C 1.06667 km/h
2102 22-10-2019 13:00:00 14.35714 C 10.15 g/m*3 14.36 C 1.82857 km/h
2103 22-10-2019 14:00:00 15.08333 C 9.99 g/m*3 15.08 C 3.2 km/h
2104 22-10-2019 15:00:00 14.68333 C 10.31 g/m*3 14.68 C 0.26667 km/h
2105 22-10-2019 16:00:00 13.78333 C 10.36 g/m*3 13.78 C 0 km/h
2106 22-10-2019 17:00:00 13.31667 C 10.17 g/m*3 13.32 C 0.13333 km/h
2107 22-10-2019 18:00:00 12.55 C 9.64 g/m*3 12.55 C 1.33333 km/h
2108 22-10-2019 19:00:00 11.74167 C 9.48 g/m*3 11.74 C 0 km/h
2109 22-10-2019 20:00:00 10.70833 C 9.16 g/m*3 10.71 C 0 km/h
2110 22-10-2019 21:00:00 10.125 C 8.96 g/m*3 10.13 C 0 km/h
2111 22-10-2019 22:00:00 10.20833 C 9.13 g/m*3 10.21 C 0 km/h
2112 22-10-2019 23:00:00 9.9 C 8.94 g/m*3 9.9 C 0 km/h
2113 23-10-2019 00:00:00 8.98333 C 8.43 g/m*3 8.98 C 0 km/h
2114 23-10-2019 01:00:00 8.61667 C 8.26 g/m*3 8.62 C 0 km/h
2115 23-10-2019 02:00:00 8.20833 C 8.04 g/m*3 8.21 C 0 km/h
2116 23-10-2019 03:00:00 8.00833 C 8 g/m*3 8.01 C 0 km/h
2117 23-10-2019 04:00:00 7.83333 C 7.93 g/m*3 7.83 C 0 km/h
2118 23-10-2019 05:00:00 8.16667 C 8.11 g/m*3 8.17 C 0 km/h
2119 23-10-2019 06:00:00 8.13333 C 8.09 g/m*3 8.13 C 0 km/h
2120 23-10-2019 07:00:00 7.95 C 7.99 g/m*3 7.95 C 0 km/h
2121 23-10-2019 08:00:00 7.86667 C 7.97 g/m*3 7.87 C 0.13333 km/h
2122 23-10-2019 09:00:00 8.70833 C 8.47 g/m*3 8.71 C 1.06667 km/h
2123 23-10-2019 10:00:00 9.60833 C 8.98 g/m*3 9.61 C 0.13333 km/h
2124 23-10-2019 11:00:00 10.98333 C 9.8 g/m*3 10.98 C 3.20833 km/h
2125 23-10-2019 12:00:00 11.825 C 10.16 g/m*3 11.83 C 7.11667 km/h
Sensor: Nr:Datum:Temp:Abs-Feuchte:Windchill:Wind:
Aussen-T/F 2126 23-10-2019 13:00:00 12.95833 C 10.43 g/m*3 12.96 C 5.50833 km/h
2127 23-10-2019 14:00:00 13.84167 C 10.72 g/m*3 13.84 C 6.975 km/h
2128 23-10-2019 15:00:00 14.3 C 10.94 g/m*3 14.3 C 3.34167 km/h
2129 23-10-2019 16:00:00 14.79167 C 11.3 g/m*3 14.79 C 0.93333 km/h
2130 23-10-2019 17:00:00 14.94167 C 11.51 g/m*3 14.94 C 0.13333 km/h
2131 23-10-2019 18:00:00 14.175 C 11.18 g/m*3 14.18 C 0 km/h
2132 23-10-2019 19:00:00 13.39167 C 10.86 g/m*3 13.39 C 0.13333 km/h
2133 23-10-2019 20:00:00 13.24167 C 10.86 g/m*3 13.24 C 0 km/h
2134 23-10-2019 21:00:00 13.19167 C 10.9 g/m*3 13.19 C 0 km/h
2135 23-10-2019 22:00:00 12.94167 C 10.73 g/m*3 12.94 C 0 km/h
2136 23-10-2019 23:00:00 12.76667 C 10.62 g/m*3 12.77 C 0 km/h
2137 24-10-2019 00:00:00 12.39167 C 10.44 g/m*3 12.39 C 0 km/h
2138 24-10-2019 01:00:00 12.15833 C 10.33 g/m*3 12.16 C 0.66667 km/h
2139 24-10-2019 02:00:00 12.25833 C 10.43 g/m*3 12.26 C 0 km/h
2140 24-10-2019 03:00:00 11.81667 C 10.11 g/m*3 11.82 C 0 km/h
2141 24-10-2019 04:00:00 11.59167 C 10.06 g/m*3 11.59 C 0 km/h
2142 24-10-2019 05:00:00 11.85 C 10.24 g/m*3 11.85 C 0.13333 km/h
2143 24-10-2019 06:00:00 11.89167 C 10.28 g/m*3 11.89 C 0.53333 km/h
2144 24-10-2019 07:00:00 12.33333 C 10.56 g/m*3 12.33 C 0.66667 km/h
2145 24-10-2019 08:00:00 12.49167 C 10.66 g/m*3 12.49 C 0.66667 km/h
2146 24-10-2019 09:00:00 13.01667 C 11.01 g/m*3 13.02 C 0 km/h
2147 24-10-2019 10:00:00 13.58333 C 11.38 g/m*3 13.58 C 0.93333 km/h
2148 24-10-2019 11:00:00 14.51667 C 11.65 g/m*3 14.52 C 0.53333 km/h
2149 24-10-2019 12:00:00 15.175 C 12 g/m*3 15.18 C 0 km/h
2150 24-10-2019 13:00:00 16.45833 C 12.57 g/m*3 16.46 C 1.74167 km/h
Sensor: Nr:Datum:Temp:Abs-Feuchte:Windchill:Wind:
Aussen-T/F 2151 24-10-2019 14:00:00 17.46667 C 12.93 g/m*3 17.47 C 0.66667 km/h
2152 24-10-2019 15:00:00 18.525 C 13.34 g/m*3 18.52 C 1.2 km/h
2153 24-10-2019 16:00:00 18.44167 C 12.48 g/m*3 18.44 C 4.01667 km/h
2154 24-10-2019 17:00:00 17.525 C 12.19 g/m*3 17.52 C 2.28333 km/h
2155 24-10-2019 18:00:00 15.70833 C 11.42 g/m*3 15.71 C 1.86667 km/h
2156 24-10-2019 19:00:00 14.69167 C 11.11 g/m*3 14.69 C 1.06667 km/h
2157 24-10-2019 20:00:00 13.85833 C 10.81 g/m*3 13.86 C 0.66667 km/h
2158 24-10-2019 21:00:00 13.54167 C 10.67 g/m*3 13.54 C 0.26667 km/h
2159 24-10-2019 22:00:00 13.075 C 10.53 g/m*3 13.08 C 0 km/h
2160 24-10-2019 23:00:00 13.18333 C 10.74 g/m*3 13.18 C 0 km/h
2161 25-10-2019 00:00:00 12.40833 C 10.23 g/m*3 12.41 C 0 km/h
2162 25-10-2019 01:00:00 11.95 C 10.09 g/m*3 11.95 C 0 km/h
2163 25-10-2019 02:00:00 11.49167 C 9.82 g/m*3 11.49 C 1.075 km/h
2164 25-10-2019 03:00:00 12.34167 C 10.22 g/m*3 12.34 C 1.875 km/h
2165 25-10-2019 04:00:00 12.88333 C 10.32 g/m*3 12.88 C 1.73333 km/h
2166 25-10-2019 05:00:00 12.65833 C 10.09 g/m*3 12.66 C 2.95 km/h
2167 25-10-2019 06:00:00 12.63333 C 10.2 g/m*3 12.63 C 1.86667 km/h
2168 25-10-2019 07:00:00 13.175 C 10.39 g/m*3 13.18 C 2.40833 km/h
2169 25-10-2019 08:00:00 12.68333 C 10.19 g/m*3 12.68 C 1.46667 km/h
2170 25-10-2019 09:00:00 12.93333 C 10.5 g/m*3 12.93 C 1.86667 km/h
2171 25-10-2019 10:00:00 13.775 C 10.6 g/m*3 13.78 C 6.30833 km/h
2172 25-10-2019 11:00:00 14.90833 C 10.52 g/m*3 14.91 C 9.40833 km/h
2173 25-10-2019 12:00:00 15.275 C 10.34 g/m*3 15.28 C 9.95833 km/h
2174 25-10-2019 13:00:00 16.19167 C 10.17 g/m*3 16.19 C 9.275 km/h
2175 25-10-2019 14:00:00 16.29167 C 10.24 g/m*3 16.29 C 7.525 km/h
Sensor: Nr:Datum:Temp:Abs-Feuchte:Windchill:Wind:
Aussen-T/F 2176 25-10-2019 15:00:00 16.43333 C 9.86 g/m*3 16.43 C 9.68333 km/h
2177 25-10-2019 16:00:00 16.05833 C 10 g/m*3 16.06 C 6.575 km/h
2178 25-10-2019 17:00:00 14.56667 C 10.21 g/m*3 14.57 C 0.66667 km/h
2179 25-10-2019 18:00:00 13.01667 C 9.81 g/m*3 13.02 C 0.8 km/h
2180 25-10-2019 19:00:00 11.99167 C 9.58 g/m*3 11.99 C 0.13333 km/h
2181 25-10-2019 20:00:00 11.45 C 9.4 g/m*3 11.45 C 0 km/h
2182 25-10-2019 21:00:00 11.025 C 9.26 g/m*3 11.03 C 0 km/h
2183 25-10-2019 22:00:00 11.3 C 9.56 g/m*3 11.3 C 0.53333 km/h
2184 25-10-2019 23:00:00 12.46667 C 10.12 g/m*3 12.47 C 1.6 km/h
2185 26-10-2019 00:00:00 13.48333 C 10.42 g/m*3 13.48 C 1.46667 km/h
2186 26-10-2019 01:00:00 13.675 C 10.41 g/m*3 13.68 C 1.2 km/h
2187 26-10-2019 02:00:00 13.53333 C 10.28 g/m*3 13.53 C 1.06667 km/h
2188 26-10-2019 03:00:00 12.26667 C 9.88 g/m*3 12.27 C 0.53333 km/h
2189 26-10-2019 04:00:00 11.59167 C 9.73 g/m*3 11.59 C 1.74167 km/h
2190 26-10-2019 05:00:00 12.29167 C 10.1 g/m*3 12.29 C 2.28333 km/h
2191 26-10-2019 06:00:00 11.86667 C 9.86 g/m*3 11.87 C 0.13333 km/h
2192 26-10-2019 07:00:00 11.1 C 9.47 g/m*3 11.1 C 0 km/h
2193 26-10-2019 08:00:00 10.15833 C 8.99 g/m*3 10.16 C 0 km/h
2194 26-10-2019 09:00:00 10.325 C 9.21 g/m*3 10.33 C 0 km/h
2195 26-10-2019 10:00:00 11.26667 C 9.84 g/m*3 11.27 C 0 km/h
2196 26-10-2019 11:00:00 12.475 C 10.63 g/m*3 12.48 C 0 km/h
2197 26-10-2019 12:00:00 13.81667 C 11.34 g/m*3 13.82 C 1.2 km/h
2198 26-10-2019 13:00:00 15.18333 C 11.66 g/m*3 15.18 C 0.93333 km/h
2199 26-10-2019 14:00:00 16.53333 C 11.97 g/m*3 16.53 C 2.26667 km/h
2200 26-10-2019 15:00:00 16.78333 C 12.09 g/m*3 16.78 C 0.66667 km/h
Sensor: Nr:Datum:Temp:Abs-Feuchte:Windchill:Wind:
Aussen-T/F 2201 26-10-2019 16:00:00 16.53333 C 12.06 g/m*3 16.53 C 1.06667 km/h
2202 26-10-2019 17:00:00 15.31667 C 11.43 g/m*3 15.32 C 1.6 km/h
2203 26-10-2019 18:00:00 13.925 C 10.7 g/m*3 13.93 C 0.53333 km/h
2204 26-10-2019 19:00:00 12.975 C 10.3 g/m*3 12.98 C 0.26667 km/h
2205 26-10-2019 20:00:00 12.86667 C 10.42 g/m*3 12.87 C 0.4 km/h
2206 26-10-2019 21:00:00 12.99167 C 10.44 g/m*3 12.99 C 0 km/h
2207 26-10-2019 22:00:00 12.64167 C 10.32 g/m*3 12.64 C 0 km/h
2208 26-10-2019 23:00:00 12.625 C 10.4 g/m*3 12.63 C 0.4 km/h
2209 27-10-2019 00:00:00 13.45833 C 10.54 g/m*3 13.46 C 3.35 km/h
2210 27-10-2019 01:00:00 13.74167 C 10.39 g/m*3 13.74 C 0.8 km/h
2211 27-10-2019 02:00:00 12.98333 C 10.14 g/m*3 12.98 C 2 km/h
2212 27-10-2019 04:00:00 12.17391 C 9.93 g/m*3 12.17 C 1.04348 km/h
2213 27-10-2019 05:00:00 12.87692 C 10.27 g/m*3 12.88 C 0.98462 km/h
2214 27-10-2019 06:00:00 14.125 C 10.45 g/m*3 14.13 C 7.10833 km/h
2215 27-10-2019 07:00:00 14.16667 C 10.64 g/m*3 14.17 C 9.66667 km/h
2216 27-10-2019 08:00:00 11.975 C 9.77 g/m*3 11.98 C 10.89167 km/h
2217 27-10-2019 09:00:00 10.425 C 8.96 g/m*3 9.15 C 9.93333 km/h
2218 27-10-2019 10:00:00 9.44167 C 8.49 g/m*3 9.44 C 1.6 km/h
2219 27-10-2019 11:00:00 9.75833 C 8.74 g/m*3 9.76 C 0.93333 km/h
2220 27-10-2019 12:00:00 10 C 8.87 g/m*3 10 C 0.4 km/h
2221 27-10-2019 13:00:00 9.9 C 8.84 g/m*3 9.9 C 0 km/h
2222 27-10-2019 14:00:00 9.53333 C 8.6 g/m*3 9.53 C 0.4 km/h
2223 27-10-2019 15:00:00 9.43333 C 8.61 g/m*3 9.43 C 0 km/h
2224 27-10-2019 16:00:00 9.16667 C 8.47 g/m*3 9.17 C 0 km/h
2225 27-10-2019 17:00:00 8.55 C 8.17 g/m*3 8.55 C 0 km/h
Sensor: Nr:Datum:Temp:Abs-Feuchte:Windchill:Wind:
Aussen-T/F 2226 27-10-2019 18:00:00 8.35 C 8.12 g/m*3 8.35 C 0 km/h
2227 27-10-2019 19:00:00 8.275 C 8.08 g/m*3 8.28 C 0 km/h
2228 27-10-2019 20:00:00 7.50833 C 7.69 g/m*3 7.51 C 0 km/h
2229 27-10-2019 21:00:00 6.91667 C 7.4 g/m*3 6.92 C 0.4 km/h
2230 27-10-2019 22:00:00 5.925 C 6.93 g/m*3 5.93 C 0 km/h
2231 27-10-2019 23:00:00 5.125 C 6.6 g/m*3 5.13 C 0.26667 km/h
2232 28-10-2019 00:00:00 5.325 C 6.73 g/m*3 5.33 C 0.13333 km/h
2233 28-10-2019 01:00:00 5.8 C 6.95 g/m*3 5.8 C 0.13333 km/h
2234 28-10-2019 02:00:00 5.59167 C 6.85 g/m*3 5.59 C 0 km/h
2235 28-10-2019 03:00:00 5.44167 C 6.79 g/m*3 5.44 C 0.26667 km/h
2236 28-10-2019 04:00:00 5.30833 C 6.73 g/m*3 5.31 C 0 km/h
2237 28-10-2019 05:00:00 5.2 C 6.68 g/m*3 5.2 C 0 km/h
2238 28-10-2019 06:00:00 5.13333 C 6.65 g/m*3 5.13 C 0 km/h
2239 28-10-2019 07:00:00 5.26667 C 6.71 g/m*3 5.27 C 0.8 km/h
2240 28-10-2019 08:00:00 5.51667 C 6.84 g/m*3 5.52 C 2 km/h
2241 28-10-2019 09:00:00 5.8 C 7.02 g/m*3 5.8 C 1.2 km/h
2242 28-10-2019 10:00:00 6.18333 C 7.2 g/m*3 6.18 C 2.26667 km/h
2243 28-10-2019 11:00:00 6.38333 C 7.29 g/m*3 6.38 C 1.6 km/h
2244 28-10-2019 12:00:00 6.5 C 7.33 g/m*3 5.48 C 5.88333 km/h
2245 28-10-2019 13:00:00 6.725 C 7.38 g/m*3 6.73 C 1.86667 km/h
2246 28-10-2019 14:00:00 7.39167 C 7.68 g/m*3 7.39 C 0.13333 km/h
2247 28-10-2019 15:00:00 8.01667 C 7.88 g/m*3 8.02 C 0.13333 km/h
2248 28-10-2019 16:00:00 7.79167 C 7.74 g/m*3 7.79 C 0 km/h
2249 28-10-2019 17:00:00 7 C 7.39 g/m*3 7 C 0 km/h
2250 28-10-2019 18:00:00 7.175 C 7.52 g/m*3 7.18 C 0 km/h
Sensor: Nr:Datum:Temp:Abs-Feuchte:Windchill:Wind:
Aussen-T/F 2251 28-10-2019 19:00:00 7.15833 C 7.52 g/m*3 7.16 C 0 km/h
2252 28-10-2019 20:00:00 6.99167 C 7.47 g/m*3 6.99 C 0 km/h
2253 28-10-2019 21:00:00 6.94167 C 7.46 g/m*3 6.94 C 0 km/h
2254 28-10-2019 22:00:00 6.78333 C 7.41 g/m*3 6.78 C 0.53333 km/h
2255 28-10-2019 23:00:00 6.7 C 7.33 g/m*3 6.7 C 1.73333 km/h
2256 29-10-2019 00:00:00 6.68333 C 7.29 g/m*3 6.68 C 2.4 km/h
2257 29-10-2019 01:00:00 6.41667 C 7.16 g/m*3 6.42 C 3.73333 km/h
2258 29-10-2019 02:00:00 6.3 C 7.11 g/m*3 6.3 C 0.26667 km/h
2259 29-10-2019 03:00:00 6.275 C 7.09 g/m*3 6.28 C 1.2 km/h
2260 29-10-2019 04:00:00 6.2 C 7.06 g/m*3 6.2 C 0.93333 km/h
2261 29-10-2019 05:00:00 6.2 C 7.06 g/m*3 6.2 C 1.46667 km/h
2262 29-10-2019 06:00:00 6.10833 C 7 g/m*3 6.11 C 1.06667 km/h
2263 29-10-2019 07:00:00 5.975 C 6.91 g/m*3 5.98 C 0.8 km/h
2264 29-10-2019 08:00:00 6.225 C 7.04 g/m*3 6.23 C 0.66667 km/h
2265 29-10-2019 09:00:00 6.69167 C 7.2 g/m*3 6.69 C 0 km/h
2266 29-10-2019 10:00:00 7.475 C 7.41 g/m*3 7.48 C 0.53333 km/h
2267 29-10-2019 11:00:00 8.23333 C 7.6 g/m*3 8.23 C 0 km/h
2268 29-10-2019 12:00:00 8.925 C 7.75 g/m*3 8.93 C 0.66667 km/h
2269 29-10-2019 13:00:00 9.74167 C 7.8 g/m*3 9.74 C 3.88333 km/h
2270 29-10-2019 14:00:00 10.59167 C 7.45 g/m*3 9.92 C 6.96667 km/h
2271 29-10-2019 15:00:00 9.575 C 7.35 g/m*3 9.57 C 1.74167 km/h
2272 29-10-2019 16:00:00 8.275 C 7.43 g/m*3 8.28 C 0.4 km/h
2273 29-10-2019 17:00:00 6.94167 C 6.9 g/m*3 6.94 C 1.86667 km/h
2274 29-10-2019 18:00:00 5.96667 C 6.58 g/m*3 5.97 C 0.66667 km/h
2275 29-10-2019 19:00:00 4.96667 C 6.27 g/m*3 4.97 C 0 km/h
Sensor: Nr:Datum:Temp:Abs-Feuchte:Windchill:Wind:
Aussen-T/F 2276 29-10-2019 20:00:00 4.425 C 6.15 g/m*3 4.43 C 0 km/h
2277 29-10-2019 21:00:00 3.63333 C 5.84 g/m*3 3.63 C 0 km/h
2278 29-10-2019 22:00:00 2.99167 C 5.65 g/m*3 2.99 C 0 km/h
2279 29-10-2019 23:00:00 2.775 C 5.61 g/m*3 2.78 C 0 km/h
2280 30-10-2019 00:00:00 2.20833 C 5.4 g/m*3 2.21 C 0 km/h
2281 30-10-2019 01:00:00 1.98333 C 5.33 g/m*3 1.98 C 0 km/h
2282 30-10-2019 02:00:00 1.98333 C 5.33 g/m*3 1.98 C 0 km/h
2283 30-10-2019 03:00:00 1.51667 C 5.16 g/m*3 1.52 C 0 km/h
2284 30-10-2019 04:00:00 1.14167 C 5.05 g/m*3 1.14 C 0 km/h
2285 30-10-2019 05:00:00 1.35 C 5.14 g/m*3 1.35 C 0.26667 km/h
2286 30-10-2019 06:00:00 1.4 C 5.17 g/m*3 1.4 C 0 km/h
2287 30-10-2019 07:00:00 1.45833 C 5.19 g/m*3 1.46 C 0.26667 km/h
2288 30-10-2019 08:00:00 1.85833 C 5.34 g/m*3 1.86 C 0.26667 km/h
2289 30-10-2019 09:00:00 2.4 C 5.54 g/m*3 2.4 C 0.13333 km/h
2290 30-10-2019 10:00:00 3.69167 C 6.09 g/m*3 3.69 C 0 km/h
2291 30-10-2019 11:00:00 4.94167 C 6.63 g/m*3 4.94 C 0.66667 km/h
2292 30-10-2019 12:00:00 5.71667 C 6.9 g/m*3 5.72 C 0.26667 km/h
2293 30-10-2019 13:00:00 6.63333 C 6.88 g/m*3 6.63 C 2.66667 km/h
2294 30-10-2019 14:00:00 7.58333 C 6.8 g/m*3 7.58 C 2.675 km/h
2295 30-10-2019 15:00:00 7.75 C 6.86 g/m*3 7.75 C 0.4 km/h
2296 30-10-2019 16:00:00 7.01667 C 6.83 g/m*3 7.02 C 0 km/h
2297 30-10-2019 17:00:00 5.76667 C 6.37 g/m*3 5.77 C 0 km/h
2298 30-10-2019 18:00:00 4.46667 C 5.94 g/m*3 4.47 C 0.26667 km/h
2299 30-10-2019 19:00:00 3.8 C 5.77 g/m*3 3.8 C 0 km/h
2300 30-10-2019 20:00:00 3.23333 C 5.64 g/m*3 3.23 C 0.66667 km/h
Sensor: Nr:Datum:Temp:Abs-Feuchte:Windchill:Wind:
Aussen-T/F 2301 30-10-2019 21:00:00 2.70833 C 5.5 g/m*3 2.71 C 0.53333 km/h
2302 30-10-2019 22:00:00 2.25 C 5.35 g/m*3 2.25 C 0.13333 km/h
2303 30-10-2019 23:00:00 1.80833 C 5.21 g/m*3 1.81 C 0 km/h
2304 31-10-2019 00:00:00 1.025 C 4.94 g/m*3 1.02 C 0 km/h
2305 31-10-2019 01:00:00 0.89167 C 4.94 g/m*3 0.89 C 0 km/h
2306 31-10-2019 02:00:00 0.53333 C 4.83 g/m*3 0.53 C 0 km/h
2307 31-10-2019 03:00:00 0.28333 C 4.74 g/m*3 0.28 C 0 km/h
2308 31-10-2019 04:00:00 0.06667 C 4.67 g/m*3 0.07 C 0 km/h
2309 31-10-2019 05:00:00 -0.325 C 4.55 g/m*3 -0.33 C 0 km/h
2310 31-10-2019 06:00:00 -0.50833 C 4.49 g/m*3 -0.51 C 0 km/h
2311 31-10-2019 07:00:00 -0.75 C 4.43 g/m*3 -0.75 C 0 km/h
2312 31-10-2019 08:00:00 -0.61667 C 4.48 g/m*3 -0.62 C 0 km/h
2313 31-10-2019 09:00:00 0.05 C 4.72 g/m*3 0.05 C 0 km/h
2314 31-10-2019 10:00:00 1.13333 C 5.09 g/m*3 1.13 C 0.93333 km/h
2315 31-10-2019 11:00:00 2.85833 C 5.76 g/m*3 2.86 C 0.53333 km/h
2316 31-10-2019 12:00:00 4.16667 C 6.28 g/m*3 4.17 C 1.2 km/h
2317 31-10-2019 13:00:00 5.60833 C 6.68 g/m*3 5.61 C 4.55833 km/h
2318 31-10-2019 14:00:00 7.29167 C 6.65 g/m*3 7.29 C 3.875 km/h
2319 31-10-2019 15:00:00 7.44167 C 6.65 g/m*3 7.44 C 2.54167 km/h
2320 31-10-2019 16:00:00 6.125 C 6.4 g/m*3 6.13 C 1.73333 km/h
2321 31-10-2019 17:00:00 4.63333 C 5.86 g/m*3 4.63 C 0.8 km/h
2322 31-10-2019 18:00:00 3.70833 C 5.55 g/m*3 3.71 C 0 km/h
2323 31-10-2019 19:00:00 3.175 C 5.44 g/m*3 3.18 C 0 km/h
2324 31-10-2019 20:00:00 2.325 C 5.23 g/m*3 2.33 C 0 km/h
2325 31-10-2019 21:00:00 1.71667 C 5.11 g/m*3 1.72 C 0 km/h
Sensor: Nr:Datum:Temp:Abs-Feuchte:Windchill:Wind:
Aussen-T/F 2326 31-10-2019 22:00:00 1.48333 C 5.06 g/m*3 1.48 C 0 km/h
2327 31-10-2019 23:00:00 1.30833 C 5.04 g/m*3 1.31 C 0 km/h
2328 01-11-2019 00:00:00 0.88333 C 4.89 g/m*3 0.88 C 0 km/h
2329 01-11-2019 01:00:00 0.6 C 4.81 g/m*3 0.6 C 0 km/h
2330 01-11-2019 02:00:00 0.55833 C 4.83 g/m*3 0.56 C 0 km/h
2331 01-11-2019 03:00:00 0.44167 C 4.8 g/m*3 0.44 C 0 km/h
2332 01-11-2019 04:00:00 1.03333 C 5.02 g/m*3 1.03 C 0 km/h
2333 01-11-2019 05:00:00 2.16667 C 5.45 g/m*3 2.17 C 0 km/h
2334 01-11-2019 06:00:00 2.85833 C 5.71 g/m*3 2.86 C 0 km/h
2335 01-11-2019 07:00:00 3.55 C 5.98 g/m*3 3.55 C 0 km/h
2336 01-11-2019 08:00:00 4.35833 C 6.32 g/m*3 4.36 C 0 km/h
2337 01-11-2019 09:00:00 5.40833 C 6.77 g/m*3 5.41 C 0 km/h
2338 01-11-2019 10:00:00 6.38333 C 7.22 g/m*3 6.38 C 0.8 km/h
2339 01-11-2019 11:00:00 7.29167 C 7.55 g/m*3 7.29 C 1.86667 km/h
2340 01-11-2019 12:00:00 8.09167 C 7.76 g/m*3 8.09 C 3.35 km/h
2341 01-11-2019 13:00:00 8.53333 C 7.96 g/m*3 8.53 C 1.06667 km/h
2342 01-11-2019 14:00:00 8.73333 C 8.2 g/m*3 8.73 C 1.33333 km/h
2343 01-11-2019 15:00:00 8.7 C 8.27 g/m*3 8.7 C 1.46667 km/h
2344 01-11-2019 16:00:00 8.8 C 8.36 g/m*3 8.8 C 0 km/h
2345 01-11-2019 17:00:00 8.85833 C 8.39 g/m*3 8.86 C 1.2 km/h
2346 01-11-2019 18:00:00 8.86667 C 8.41 g/m*3 8.87 C 0.4 km/h
2347 01-11-2019 19:00:00 8.93333 C 8.52 g/m*3 8.93 C 0 km/h
2348 01-11-2019 20:00:00 9.225 C 8.68 g/m*3 9.23 C 0 km/h
2349 01-11-2019 21:00:00 9.64167 C 8.92 g/m*3 9.64 C 0 km/h
2350 01-11-2019 22:00:00 10.15 C 9.3 g/m*3 10.15 C 0.26667 km/h
Sensor: Nr:Datum:Temp:Abs-Feuchte:Windchill:Wind:
Aussen-T/F 2351 01-11-2019 23:00:00 10.525 C 9.52 g/m*3 10.53 C 0 km/h
2352 02-11-2019 00:00:00 11.18333 C 9.92 g/m*3 11.18 C 0 km/h
2353 02-11-2019 01:00:00 11.96667 C 10.42 g/m*3 11.97 C 0.93333 km/h
2354 02-11-2019 02:00:00 12.21667 C 10.59 g/m*3 12.22 C 1.33333 km/h
2355 02-11-2019 03:00:00 12.28333 C 10.63 g/m*3 12.28 C 2.13333 km/h
2356 02-11-2019 04:00:00 12.25 C 10.61 g/m*3 12.25 C 2 km/h
2357 02-11-2019 05:00:00 12.65833 C 10.88 g/m*3 12.66 C 1.46667 km/h
2358 02-11-2019 06:00:00 13.1 C 11.18 g/m*3 13.1 C 2.94167 km/h
2359 02-11-2019 07:00:00 13.48333 C 11.45 g/m*3 13.48 C 0.93333 km/h
2360 02-11-2019 08:00:00 13.84167 C 11.71 g/m*3 13.84 C 2.275 km/h
2361 02-11-2019 09:00:00 14.30833 C 12.03 g/m*3 14.31 C 12.21667 km/h
2362 02-11-2019 10:00:00 14.925 C 11.87 g/m*3 14.93 C 14.625 km/h
2363 02-11-2019 11:00:00 15.74167 C 11.57 g/m*3 15.74 C 16.5 km/h
2364 02-11-2019 12:00:00 16.15833 C 11.05 g/m*3 16.16 C 20.23333 km/h
2365 02-11-2019 13:00:00 16.04167 C 10.29 g/m*3 16.04 C 15.03333 km/h
2366 02-11-2019 14:00:00 15.8 C 10.01 g/m*3 15.8 C 10.35833 km/h
2367 02-11-2019 15:00:00 15.10833 C 9.97 g/m*3 15.11 C 5.35833 km/h
2368 02-11-2019 16:00:00 14.55833 C 9.75 g/m*3 14.56 C 8.06667 km/h
2369 02-11-2019 17:00:00 13.78333 C 9.71 g/m*3 13.78 C 11.28333 km/h
2370 02-11-2019 18:00:00 11.90833 C 9.55 g/m*3 11.91 C 2.66667 km/h
2371 02-11-2019 19:00:00 11.425 C 9.44 g/m*3 11.43 C 2.13333 km/h
2372 02-11-2019 20:00:00 11.30833 C 9.3 g/m*3 11.31 C 4.01667 km/h
2373 02-11-2019 21:00:00 11.15 C 8.96 g/m*3 11.15 C 4.55 km/h
2374 02-11-2019 22:00:00 10.98333 C 8.84 g/m*3 10.98 C 1.06667 km/h
2375 02-11-2019 23:00:00 10.56667 C 8.68 g/m*3 10.57 C 3.625 km/h
Sensor: Nr:Datum:Temp:Abs-Feuchte:Windchill:Wind:
Aussen-T/F 2376 03-11-2019 00:00:00 10.475 C 8.55 g/m*3 10.48 C 0.53333 km/h
2377 03-11-2019 01:00:00 10.41667 C 8.7 g/m*3 10.42 C 0.4 km/h
2378 03-11-2019 02:00:00 10.03333 C 8.62 g/m*3 10.03 C 0.26667 km/h
2379 03-11-2019 03:00:00 10 C 8.75 g/m*3 10 C 0.8 km/h
2380 03-11-2019 04:00:00 10.26667 C 9.02 g/m*3 10.27 C 0.66667 km/h
2381 03-11-2019 05:00:00 10.25 C 9.07 g/m*3 10.25 C 0.8 km/h
2382 03-11-2019 06:00:00 10.3 C 9.19 g/m*3 10.3 C 0 km/h
2383 03-11-2019 07:00:00 10.325 C 9.21 g/m*3 10.33 C 0 km/h
2384 03-11-2019 08:00:00 10.48333 C 9.37 g/m*3 10.48 C 0 km/h
2385 03-11-2019 09:00:00 11.3 C 9.89 g/m*3 11.3 C 0 km/h
2386 03-11-2019 10:00:00 12.26667 C 10.36 g/m*3 12.27 C 0.93333 km/h
2387 03-11-2019 11:00:00 13.53333 C 10.65 g/m*3 13.53 C 2.675 km/h
2388 03-11-2019 12:00:00 14.85 C 10.6 g/m*3 14.85 C 4.55 km/h
2389 03-11-2019 13:00:00 15.39167 C 10.7 g/m*3 15.39 C 6.30833 km/h
2390 03-11-2019 14:00:00 15.46667 C 10.78 g/m*3 15.47 C 5.08333 km/h
2391 03-11-2019 15:00:00 14.81667 C 10.57 g/m*3 14.82 C 6.83333 km/h
2392 03-11-2019 16:00:00 14.00833 C 10.41 g/m*3 14.01 C 2 km/h
2393 03-11-2019 17:00:00 13.00833 C 10.25 g/m*3 13.01 C 0.4 km/h
2394 03-11-2019 18:00:00 12.35833 C 10.22 g/m*3 12.36 C 0.13333 km/h
2395 03-11-2019 19:00:00 11.71667 C 9.95 g/m*3 11.72 C 0.53333 km/h
2396 03-11-2019 20:00:00 11.075 C 9.63 g/m*3 11.08 C 0.53333 km/h
2397 03-11-2019 21:00:00 10.75833 C 9.46 g/m*3 10.76 C 1.46667 km/h
2398 03-11-2019 22:00:00 10.7 C 9.43 g/m*3 10.7 C 0.8 km/h
2399 03-11-2019 23:00:00 10.60833 C 9.37 g/m*3 10.61 C 4.96667 km/h
2400 04-11-2019 00:00:00 11.075 C 9.31 g/m*3 11.08 C 10.475 km/h
Sensor: Nr:Datum:Temp:Abs-Feuchte:Windchill:Wind:
Aussen-T/F 2401 04-11-2019 01:00:00 11.025 C 9.11 g/m*3 11.03 C 6.44167 km/h
2402 04-11-2019 02:00:00 10.15833 C 8.79 g/m*3 10.16 C 2.00833 km/h
2403 04-11-2019 03:00:00 9.9 C 8.78 g/m*3 9.9 C 1.61667 km/h
2404 04-11-2019 04:00:00 10.18333 C 9.03 g/m*3 10.18 C 2.13333 km/h
2405 04-11-2019 05:00:00 10.38333 C 9.12 g/m*3 9.94 C 5.9 km/h
2406 04-11-2019 06:00:00 9.79167 C 8.76 g/m*3 9.79 C 2.8 km/h
2407 04-11-2019 07:00:00 9.26667 C 8.51 g/m*3 9.27 C 2.66667 km/h
2408 04-11-2019 08:00:00 9.5 C 8.69 g/m*3 9.5 C 0.13333 km/h
2409 04-11-2019 09:00:00 10.00833 C 8.83 g/m*3 10.01 C 1.475 km/h
2410 04-11-2019 10:00:00 10.875 C 9.14 g/m*3 10.88 C 1.73333 km/h
2411 04-11-2019 11:00:00 10.91667 C 9.26 g/m*3 10.92 C 1.33333 km/h
2412 04-11-2019 12:00:00 11.25 C 9.46 g/m*3 11.25 C 1.86667 km/h
2413 04-11-2019 13:00:00 12.025 C 9.75 g/m*3 12.03 C 5.23333 km/h
2414 04-11-2019 14:00:00 12.58333 C 9.58 g/m*3 12.58 C 13.56667 km/h
2415 04-11-2019 15:00:00 12.625 C 9.37 g/m*3 12.63 C 6.31667 km/h
2416 04-11-2019 16:00:00 11.44167 C 9.06 g/m*3 11.44 C 0.93333 km/h
2417 04-11-2019 17:00:00 10.275 C 8.76 g/m*3 10.28 C 0.66667 km/h
2418 04-11-2019 18:00:00 9.60833 C 8.5 g/m*3 9.61 C 0 km/h
2419 04-11-2019 19:00:00 9.18333 C 8.43 g/m*3 9.18 C 0.94167 km/h
2420 04-11-2019 20:00:00 9.5 C 8.71 g/m*3 9.5 C 0 km/h
2421 04-11-2019 21:00:00 9.24167 C 8.58 g/m*3 9.24 C 0.13333 km/h
2422 04-11-2019 22:00:00 8.29167 C 8.07 g/m*3 8.29 C 0.4 km/h
2423 04-11-2019 23:00:00 8.89167 C 8.48 g/m*3 8.42 C 5.24167 km/h
2424 05-11-2019 00:00:00 9.275 C 8.49 g/m*3 9.28 C 4.275 km/h
2425 05-11-2019 01:00:00 9.14167 C 8.29 g/m*3 9.14 C 3.74167 km/h
Sensor: Nr:Datum:Temp:Abs-Feuchte:Windchill:Wind:
Aussen-T/F 2426 05-11-2019 02:00:00 9.225 C 8.34 g/m*3 9.23 C 1.875 km/h
2427 05-11-2019 03:00:00 9.40833 C 8.27 g/m*3 8.9 C 5.625 km/h
2428 05-11-2019 04:00:00 9.46667 C 8.14 g/m*3 9.47 C 4.40833 km/h
2429 05-11-2019 05:00:00 9.525 C 8.15 g/m*3 9.53 C 4.95833 km/h
2430 05-11-2019 06:00:00 9.25 C 8.13 g/m*3 9.25 C 4.14167 km/h
2431 05-11-2019 07:00:00 9.15833 C 8.1 g/m*3 9.16 C 1.86667 km/h
2432 05-11-2019 08:00:00 8.95833 C 8.07 g/m*3 8.96 C 2.675 km/h
2433 05-11-2019 09:00:00 9.45833 C 8.15 g/m*3 9.46 C 2.26667 km/h
2434 05-11-2019 10:00:00 10.48333 C 8.33 g/m*3 10.48 C 3.625 km/h
2435 05-11-2019 11:00:00 11.225 C 8.32 g/m*3 11.23 C 5.5 km/h
2436 05-11-2019 12:00:00 11.83333 C 8.23 g/m*3 11.83 C 9.275 km/h
2437 05-11-2019 13:00:00 11.89167 C 8.41 g/m*3 11.89 C 4.68333 km/h
2438 05-11-2019 14:00:00 12.06667 C 8.62 g/m*3 12.07 C 1.86667 km/h
2439 05-11-2019 15:00:00 11.875 C 8.69 g/m*3 11.88 C 2.14167 km/h
2440 05-11-2019 16:00:00 10.85833 C 8.62 g/m*3 10.86 C 0 km/h
2441 05-11-2019 17:00:00 9.85833 C 8.46 g/m*3 9.86 C 0.13333 km/h
2442 05-11-2019 18:00:00 9.025 C 8.18 g/m*3 9.03 C 0 km/h
2443 05-11-2019 19:00:00 8.54167 C 8.03 g/m*3 8.54 C 0.13333 km/h
2444 05-11-2019 20:00:00 8.425 C 8.02 g/m*3 8.43 C 0.13333 km/h
2445 05-11-2019 21:00:00 7.95833 C 7.83 g/m*3 7.96 C 0 km/h
2446 05-11-2019 22:00:00 8.00833 C 7.88 g/m*3 8.01 C 0 km/h
2447 05-11-2019 23:00:00 8.11667 C 8 g/m*3 8.12 C 0 km/h
2448 06-11-2019 00:00:00 8.2 C 8.04 g/m*3 8.2 C 0 km/h
2449 06-11-2019 01:00:00 8.2 C 8.04 g/m*3 8.2 C 1.06667 km/h
2450 06-11-2019 02:00:00 8.175 C 8.05 g/m*3 8.18 C 0.26667 km/h
Sensor: Nr:Datum:Temp:Abs-Feuchte:Windchill:Wind:
Aussen-T/F 2451 06-11-2019 03:00:00 7.79167 C 7.83 g/m*3 7.79 C 0.13333 km/h
2452 06-11-2019 04:00:00 7.45 C 7.7 g/m*3 7.45 C 0 km/h
2453 06-11-2019 05:00:00 7.49167 C 7.76 g/m*3 7.49 C 0.26667 km/h
2454 06-11-2019 06:00:00 7.65 C 7.84 g/m*3 7.65 C 0.4 km/h
2455 06-11-2019 07:00:00 7.65 C 7.84 g/m*3 7.65 C 0.13333 km/h
2456 06-11-2019 08:00:00 7.975 C 8.01 g/m*3 7.98 C 0.53333 km/h
2457 06-11-2019 09:00:00 8.81667 C 8.42 g/m*3 8.82 C 4.15 km/h
2458 06-11-2019 10:00:00 9.68333 C 8.51 g/m*3 8.83 C 7.13333 km/h
2459 06-11-2019 11:00:00 10.15 C 8.71 g/m*3 9.64 C 6.025 km/h
2460 06-11-2019 12:00:00 10.35 C 8.85 g/m*3 9.87 C 6.03333 km/h
2461 06-11-2019 13:00:00 10.6 C 8.84 g/m*3 9.76 C 7.78333 km/h
2462 06-11-2019 14:00:00 10.43333 C 8.83 g/m*3 10.43 C 4.40833 km/h
2463 06-11-2019 15:00:00 10.24167 C 8.91 g/m*3 10.24 C 0.66667 km/h
2464 06-11-2019 16:00:00 10 C 8.84 g/m*3 10 C 0.13333 km/h
2465 06-11-2019 17:00:00 9.68333 C 8.75 g/m*3 9.68 C 0 km/h
2466 06-11-2019 18:00:00 9.6 C 8.77 g/m*3 9.6 C 0 km/h
2467 06-11-2019 19:00:00 9.40833 C 8.69 g/m*3 9.41 C 0 km/h
2468 06-11-2019 20:00:00 9.13333 C 8.54 g/m*3 9.13 C 0 km/h
2469 06-11-2019 21:00:00 8.975 C 8.51 g/m*3 8.98 C 0 km/h
2470 06-11-2019 22:00:00 8.9 C 8.42 g/m*3 8.9 C 0 km/h
2471 06-11-2019 23:00:00 8.85833 C 8.47 g/m*3 8.86 C 0.53333 km/h
2472 07-11-2019 00:00:00 8.51667 C 8.29 g/m*3 8.52 C 0 km/h
2473 07-11-2019 01:00:00 8.06667 C 8.05 g/m*3 8.07 C 0 km/h
2474 07-11-2019 02:00:00 7.98333 C 8.01 g/m*3 7.98 C 0 km/h
2475 07-11-2019 03:00:00 7.91667 C 7.98 g/m*3 7.92 C 0 km/h
Sensor: Nr:Datum:Temp:Abs-Feuchte:Windchill:Wind:
Aussen-T/F 2476 07-11-2019 04:00:00 7.49167 C 7.76 g/m*3 7.49 C 0 km/h
2477 07-11-2019 05:00:00 7.55 C 7.79 g/m*3 7.55 C 0.4 km/h
2478 07-11-2019 06:00:00 7.375 C 7.7 g/m*3 7.38 C 0 km/h
2479 07-11-2019 07:00:00 7.59167 C 7.84 g/m*3 7.59 C 0.4 km/h
2480 07-11-2019 08:00:00 8.24167 C 8.23 g/m*3 8.24 C 0.26667 km/h
2481 07-11-2019 09:00:00 8.875 C 8.57 g/m*3 8.88 C 1.06667 km/h
2482 07-11-2019 10:00:00 9.29167 C 8.77 g/m*3 9.29 C 3.35 km/h
2483 07-11-2019 11:00:00 9.39167 C 8.69 g/m*3 9.39 C 2.8 km/h
2484 07-11-2019 12:00:00 9.31667 C 8.52 g/m*3 9.32 C 2.95 km/h
2485 07-11-2019 13:00:00 9.625 C 8.55 g/m*3 9.63 C 4.00833 km/h
2486 07-11-2019 14:00:00 9.375 C 8.35 g/m*3 9.38 C 4.41667 km/h
2487 07-11-2019 15:00:00 9.76667 C 8.64 g/m*3 9.77 C 4.41667 km/h
2488 07-11-2019 16:00:00 9.65 C 8.24 g/m*3 7.67 C 13.55833 km/h
2489 07-11-2019 17:00:00 8.55833 C 7.73 g/m*3 7.46 C 7.38333 km/h
2490 07-11-2019 18:00:00 7.24167 C 7.22 g/m*3 7.24 C 1.075 km/h
2491 07-11-2019 19:00:00 6.76667 C 7.21 g/m*3 6.77 C 0.8 km/h
2492 07-11-2019 20:00:00 6.18333 C 6.96 g/m*3 6.18 C 0.4 km/h
2493 07-11-2019 21:00:00 5.65833 C 6.77 g/m*3 5.66 C 0.13333 km/h
2494 07-11-2019 22:00:00 5.00833 C 6.51 g/m*3 5.01 C 0 km/h
2495 07-11-2019 23:00:00 5.025 C 6.56 g/m*3 5.03 C 0.26667 km/h
2496 08-11-2019 00:00:00 4.675 C 6.38 g/m*3 4.68 C 0.26667 km/h
2497 08-11-2019 01:00:00 4.24167 C 6.2 g/m*3 4.24 C 0.26667 km/h
2498 08-11-2019 02:00:00 3.28333 C 5.82 g/m*3 3.28 C 0 km/h
2499 08-11-2019 03:00:00 3.1 C 5.79 g/m*3 3.1 C 0 km/h
2500 08-11-2019 04:00:00 2.75833 C 5.66 g/m*3 2.76 C 0 km/h
Sensor: Nr:Datum:Temp:Abs-Feuchte:Windchill:Wind:
Aussen-T/F 2501 08-11-2019 05:00:00 2.34167 C 5.52 g/m*3 2.34 C 0 km/h
2502 08-11-2019 06:00:00 2.31667 C 5.51 g/m*3 2.32 C 0 km/h
2503 08-11-2019 07:00:00 2.35 C 5.52 g/m*3 2.35 C 0 km/h
2504 08-11-2019 08:00:00 3.05 C 5.81 g/m*3 3.05 C 0 km/h
2505 08-11-2019 09:00:00 3.78333 C 6.1 g/m*3 3.78 C 0.53333 km/h
2506 08-11-2019 10:00:00 4.43333 C 6.4 g/m*3 4.43 C 0.4 km/h
2507 08-11-2019 11:00:00 5.15833 C 6.73 g/m*3 5.16 C 0.8 km/h
2508 08-11-2019 12:00:00 6 C 7.11 g/m*3 6 C 0.8 km/h
2509 08-11-2019 13:00:00 6.8 C 7.44 g/m*3 6.8 C 0.13333 km/h
2510 08-11-2019 14:00:00 7.44167 C 7.63 g/m*3 7.44 C 1.86667 km/h
2511 08-11-2019 15:00:00 7.73333 C 7.71 g/m*3 7.73 C 0 km/h
2512 08-11-2019 16:00:00 7.61667 C 7.63 g/m*3 7.62 C 0 km/h
2513 08-11-2019 17:00:00 6.85833 C 7.29 g/m*3 6.86 C 0 km/h
2514 08-11-2019 18:00:00 6.65 C 7.26 g/m*3 6.65 C 0 km/h
2515 08-11-2019 19:00:00 6.475 C 7.19 g/m*3 6.48 C 0 km/h
2516 08-11-2019 20:00:00 6.21667 C 7.07 g/m*3 6.22 C 0 km/h
2517 08-11-2019 21:00:00 5.7 C 6.83 g/m*3 5.7 C 0 km/h
2518 08-11-2019 22:00:00 5.39167 C 6.76 g/m*3 5.39 C 0.26667 km/h
2519 08-11-2019 23:00:00 5.49167 C 6.81 g/m*3 5.49 C 2.53333 km/h
2520 09-11-2019 00:00:00 5.34167 C 6.74 g/m*3 4.34 C 5.35 km/h
2521 09-11-2019 01:00:00 5.15833 C 6.66 g/m*3 4.18 C 5.225 km/h
2522 09-11-2019 02:00:00 5.1 C 6.63 g/m*3 3.79 C 6.15833 km/h
2523 09-11-2019 03:00:00 5.125 C 6.65 g/m*3 5.13 C 3.33333 km/h
2524 09-11-2019 04:00:00 4.96667 C 6.58 g/m*3 4.97 C 1.46667 km/h
2525 09-11-2019 05:00:00 4.78333 C 6.51 g/m*3 4.78 C 3.075 km/h
Sensor: Nr:Datum:Temp:Abs-Feuchte:Windchill:Wind:
Aussen-T/F 2526 09-11-2019 06:00:00 4.45 C 6.32 g/m*3 3.13 C 5.9 km/h
2527 09-11-2019 07:00:00 3.44167 C 5.88 g/m*3 3.44 C 0.8 km/h
2528 09-11-2019 08:00:00 3.29167 C 5.86 g/m*3 3.29 C 0.13333 km/h
2529 09-11-2019 09:00:00 4.53333 C 6.37 g/m*3 3.46 C 5.25 km/h
2530 09-11-2019 10:00:00 5.65833 C 6.55 g/m*3 3.11 C 11.7 km/h
2531 09-11-2019 11:00:00 5.91667 C 6.56 g/m*3 3.82 C 9.68333 km/h
2532 09-11-2019 12:00:00 6.375 C 6.66 g/m*3 4.51 C 9.00833 km/h
2533 09-11-2019 13:00:00 7.04167 C 6.76 g/m*3 5.39 C 8.59167 km/h
2534 09-11-2019 14:00:00 6.93333 C 6.77 g/m*3 5.67 C 6.96667 km/h
2535 09-11-2019 15:00:00 6.68333 C 6.88 g/m*3 6.68 C 3.20833 km/h
2536 09-11-2019 16:00:00 6.56667 C 6.94 g/m*3 6.57 C 1.33333 km/h
2537 09-11-2019 17:00:00 6.175 C 6.83 g/m*3 6.18 C 0.26667 km/h
2538 09-11-2019 18:00:00 5.375 C 6.48 g/m*3 5.38 C 0.13333 km/h
2539 09-11-2019 19:00:00 4.875 C 6.35 g/m*3 4.88 C 2.00833 km/h
2540 09-11-2019 20:00:00 4.03333 C 5.94 g/m*3 4.03 C 0 km/h
2541 09-11-2019 21:00:00 3.25833 C 5.73 g/m*3 3.26 C 0 km/h
2542 09-11-2019 22:00:00 2.725 C 5.56 g/m*3 2.73 C 0 km/h
2543 09-11-2019 23:00:00 1.99167 C 5.28 g/m*3 1.99 C 0 km/h
2544 10-11-2019 00:00:00 1.25833 C 5.05 g/m*3 1.26 C 0 km/h
2545 10-11-2019 01:00:00 1.31667 C 5.11 g/m*3 1.32 C 0 km/h
2546 10-11-2019 02:00:00 1.65833 C 5.24 g/m*3 1.66 C 0 km/h
2547 10-11-2019 03:00:00 1.59167 C 5.24 g/m*3 1.59 C 0.53333 km/h
2548 10-11-2019 04:00:00 1.28333 C 5.13 g/m*3 1.28 C 0.8 km/h
2549 10-11-2019 05:00:00 1.38333 C 5.17 g/m*3 1.38 C 0 km/h
2550 10-11-2019 06:00:00 1.70833 C 5.28 g/m*3 1.71 C 2.93333 km/h
Sensor: Nr:Datum:Temp:Abs-Feuchte:Windchill:Wind:
Aussen-T/F 2551 10-11-2019 07:00:00 1.61667 C 5.25 g/m*3 1.62 C 1.86667 km/h
2552 10-11-2019 08:00:00 1.81667 C 5.35 g/m*3 1.82 C 0.53333 km/h
2553 10-11-2019 09:00:00 2.25 C 5.52 g/m*3 2.25 C 0.66667 km/h
2554 10-11-2019 10:00:00 2.66667 C 5.7 g/m*3 2.67 C 0.93333 km/h
2555 10-11-2019 11:00:00 3.2 C 5.91 g/m*3 3.2 C 2.26667 km/h
2556 10-11-2019 12:00:00 3.4 C 5.91 g/m*3 2.24 C 5.075 km/h
2557 10-11-2019 13:00:00 3.86667 C 5.99 g/m*3 3.87 C 4.26667 km/h
2558 10-11-2019 14:00:00 4.29167 C 6.06 g/m*3 4.29 C 3.2 km/h
2559 10-11-2019 15:00:00 4.65833 C 6.17 g/m*3 4.66 C 1.86667 km/h
2560 10-11-2019 16:00:00 4.58333 C 6.08 g/m*3 4.58 C 1.46667 km/h
2561 10-11-2019 17:00:00 4.35833 C 6.06 g/m*3 4.36 C 1.2 km/h
2562 10-11-2019 18:00:00 4.275 C 6.07 g/m*3 4.28 C 1.2 km/h
2563 10-11-2019 19:00:00 4.15 C 6.04 g/m*3 4.15 C 1.6 km/h
2564 10-11-2019 20:00:00 4.25 C 6.14 g/m*3 4.25 C 0.26667 km/h
2565 10-11-2019 21:00:00 4.3 C 6.16 g/m*3 4.3 C 0.26667 km/h
2566 10-11-2019 22:00:00 4.275 C 6.15 g/m*3 4.28 C 0 km/h
2567 10-11-2019 23:00:00 4.36667 C 6.14 g/m*3 4.37 C 0.53333 km/h
2568 11-11-2019 00:00:00 4.25833 C 6.03 g/m*3 4.26 C 0.93333 km/h
2569 11-11-2019 01:00:00 3.85 C 5.84 g/m*3 3.85 C 2.53333 km/h
2570 11-11-2019 02:00:00 3.58333 C 5.75 g/m*3 3.58 C 0.4 km/h
2571 11-11-2019 03:00:00 3.30833 C 5.65 g/m*3 3.31 C 2.4 km/h
2572 11-11-2019 04:00:00 3.14167 C 5.58 g/m*3 3.14 C 1.06667 km/h
2573 11-11-2019 05:00:00 3.23333 C 5.64 g/m*3 3.23 C 0.4 km/h
2574 11-11-2019 06:00:00 3.3 C 5.66 g/m*3 3.3 C 0 km/h
2575 11-11-2019 07:00:00 3.39167 C 5.74 g/m*3 3.39 C 0.53333 km/h
Sensor: Nr:Datum:Temp:Abs-Feuchte:Windchill:Wind:
Aussen-T/F 2576 11-11-2019 08:00:00 4.16667 C 5.97 g/m*3 2.66 C 6.3 km/h
2577 11-11-2019 09:00:00 4.98333 C 6.13 g/m*3 3.17 C 7.79167 km/h
2578 11-11-2019 10:00:00 5.24167 C 6.15 g/m*3 3.62 C 7.24167 km/h
2579 11-11-2019 11:00:00 5.54167 C 6.22 g/m*3 3.97 C 7.25 km/h
2580 11-11-2019 12:00:00 6.025 C 6.32 g/m*3 4.57 C 7.11667 km/h
2581 11-11-2019 13:00:00 6.425 C 6.42 g/m*3 5.48 C 5.625 km/h
2582 11-11-2019 14:00:00 6.11667 C 6.33 g/m*3 4.76 C 6.83333 km/h
2583 11-11-2019 15:00:00 5.61667 C 6.28 g/m*3 4.75 C 5.08333 km/h
2584 11-11-2019 16:00:00 5.25833 C 6.22 g/m*3 4.1 C 5.75833 km/h
2585 11-11-2019 17:00:00 5.09167 C 6.15 g/m*3 3.6 C 6.71667 km/h
2586 11-11-2019 18:00:00 4.85833 C 6.1 g/m*3 4.86 C 4.14167 km/h
2587 11-11-2019 19:00:00 4.83333 C 6.22 g/m*3 4.83 C 0.8 km/h
2588 11-11-2019 20:00:00 4.8 C 6.3 g/m*3 4.8 C 0.13333 km/h
2589 11-11-2019 21:00:00 4.975 C 6.44 g/m*3 4.97 C 1.06667 km/h
2590 11-11-2019 22:00:00 5.13333 C 6.51 g/m*3 5.13 C 1.06667 km/h
2591 11-11-2019 23:00:00 5.18333 C 6.6 g/m*3 5.18 C 0.13333 km/h
2592 12-11-2019 00:00:00 5.05 C 6.53 g/m*3 5.05 C 0.13333 km/h
2593 12-11-2019 01:00:00 5.05 C 6.54 g/m*3 4.05 C 5.23333 km/h
2594 12-11-2019 02:00:00 5.375 C 6.55 g/m*3 5.38 C 3.21667 km/h
2595 12-11-2019 03:00:00 5.475 C 6.47 g/m*3 5.48 C 3.48333 km/h
2596 12-11-2019 04:00:00 5.6 C 6.45 g/m*3 5.6 C 2.275 km/h
2597 12-11-2019 05:00:00 5.45833 C 6.41 g/m*3 5.46 C 1.06667 km/h
2598 12-11-2019 06:00:00 5.375 C 6.4 g/m*3 5.38 C 2.26667 km/h
2599 12-11-2019 07:00:00 5.7 C 6.39 g/m*3 5.7 C 2.4 km/h
2600 12-11-2019 08:00:00 5.88333 C 6.42 g/m*3 5.88 C 2 km/h
Sensor: Nr:Datum:Temp:Abs-Feuchte:Windchill:Wind:
Aussen-T/F 2601 12-11-2019 09:00:00 6.58333 C 6.53 g/m*3 6.58 C 2.94167 km/h
2602 12-11-2019 10:00:00 7.66667 C 6.68 g/m*3 6.7 C 6.3 km/h
2603 12-11-2019 11:00:00 8.03333 C 6.79 g/m*3 6.34 C 9.7 km/h
2604 12-11-2019 12:00:00 7.91667 C 6.89 g/m*3 5.25 C 15.7 km/h
2605 12-11-2019 13:00:00 7.73333 C 6.67 g/m*3 4.97 C 16.1 km/h
2606 12-11-2019 14:00:00 7.76667 C 6.55 g/m*3 5.68 C 11.55833 km/h
2607 12-11-2019 15:00:00 7.75833 C 6.52 g/m*3 5.99 C 9.81667 km/h
2608 12-11-2019 16:00:00 7.31667 C 6.41 g/m*3 5.6 C 9.14167 km/h
2609 12-11-2019 17:00:00 6.60833 C 6.23 g/m*3 5.78 C 5.35833 km/h
2610 12-11-2019 18:00:00 5.85 C 6.26 g/m*3 5.85 C 0.53333 km/h
2611 12-11-2019 19:00:00 4.65833 C 5.93 g/m*3 4.66 C 0 km/h
2612 12-11-2019 20:00:00 3.29167 C 5.55 g/m*3 3.29 C 0.13333 km/h
2613 12-11-2019 21:00:00 3.23333 C 5.65 g/m*3 3.23 C 0.4 km/h
2614 12-11-2019 22:00:00 3.85 C 5.94 g/m*3 3.85 C 2.4 km/h
2615 12-11-2019 23:00:00 4.66667 C 6.06 g/m*3 4.67 C 3.21667 km/h
2616 13-11-2019 00:00:00 4.89167 C 5.98 g/m*3 4.89 C 1.6 km/h
2617 13-11-2019 01:00:00 4.65833 C 5.91 g/m*3 4.66 C 0.26667 km/h
2618 13-11-2019 02:00:00 3.33333 C 5.52 g/m*3 3.33 C 0.8 km/h
2619 13-11-2019 03:00:00 4.14167 C 5.76 g/m*3 4.14 C 2.81667 km/h
2620 13-11-2019 04:00:00 4.48333 C 5.82 g/m*3 4.48 C 0.93333 km/h
2621 13-11-2019 05:00:00 4.53333 C 5.87 g/m*3 4.53 C 0.66667 km/h
2622 13-11-2019 06:00:00 4.50833 C 5.89 g/m*3 4.51 C 0.53333 km/h
2623 13-11-2019 07:00:00 4.16667 C 5.82 g/m*3 4.17 C 0 km/h
2624 13-11-2019 08:00:00 4.58333 C 5.99 g/m*3 4.58 C 0.4 km/h
2625 13-11-2019 09:00:00 5.43333 C 6.19 g/m*3 4 C 6.725 km/h
Sensor: Nr:Datum:Temp:Abs-Feuchte:Windchill:Wind:
Aussen-T/F 2626 13-11-2019 10:00:00 6.01667 C 6.27 g/m*3 4.97 C 5.75833 km/h
2627 13-11-2019 11:00:00 6.30833 C 6.36 g/m*3 4.37 C 9.28333 km/h
2628 13-11-2019 12:00:00 6.81667 C 6.46 g/m*3 4.73 C 10.48333 km/h
2629 13-11-2019 13:00:00 6.775 C 6.44 g/m*3 5.17 C 8.20833 km/h
2630 13-11-2019 14:00:00 6.65 C 6.48 g/m*3 4.69 C 9.68333 km/h
2631 13-11-2019 15:00:00 6.69167 C 6.52 g/m*3 5.11 C 8.04167 km/h
2632 13-11-2019 16:00:00 6.6 C 6.52 g/m*3 5.68 C 5.625 km/h
2633 13-11-2019 17:00:00 6.41667 C 6.49 g/m*3 6.42 C 1.33333 km/h
2634 13-11-2019 18:00:00 6.35 C 6.51 g/m*3 6.35 C 0.26667 km/h
2635 13-11-2019 19:00:00 6.225 C 6.53 g/m*3 6.23 C 2.53333 km/h
2636 13-11-2019 20:00:00 6.26667 C 6.51 g/m*3 6.27 C 4.15 km/h
2637 13-11-2019 21:00:00 5.9 C 6.44 g/m*3 5.9 C 0 km/h
2638 13-11-2019 22:00:00 5.025 C 6.18 g/m*3 5.03 C 0.53333 km/h
2639 13-11-2019 23:00:00 4.60833 C 6.09 g/m*3 4.61 C 0.26667 km/h
2640 14-11-2019 00:00:00 4.95 C 6.32 g/m*3 4.95 C 0.26667 km/h
2641 14-11-2019 01:00:00 4.81667 C 6.23 g/m*3 4.82 C 1.06667 km/h
2642 14-11-2019 02:00:00 4.8 C 6.32 g/m*3 4.8 C 0.26667 km/h
2643 14-11-2019 03:00:00 5.425 C 6.56 g/m*3 5.43 C 1.73333 km/h
2644 14-11-2019 04:00:00 5.69167 C 6.56 g/m*3 5.69 C 1.46667 km/h
2645 14-11-2019 05:00:00 4.84167 C 6.26 g/m*3 4.84 C 0 km/h
2646 14-11-2019 06:00:00 4.70833 C 6.28 g/m*3 4.71 C 0.8 km/h
2647 14-11-2019 07:00:00 5.25833 C 6.3 g/m*3 4.34 C 5.09167 km/h
2648 14-11-2019 08:00:00 5.28333 C 6.17 g/m*3 5.28 C 3.46667 km/h
2649 14-11-2019 09:00:00 5.64167 C 6.2 g/m*3 5.64 C 4 km/h
2650 14-11-2019 10:00:00 6.68333 C 6.33 g/m*3 6.68 C 4.55 km/h
Sensor: Nr:Datum:Temp:Abs-Feuchte:Windchill:Wind:
Aussen-T/F 2651 14-11-2019 11:00:00 7.86667 C 6.26 g/m*3 7.17 C 5.49167 km/h
2652 14-11-2019 12:00:00 8.725 C 6.09 g/m*3 7.78 C 6.84167 km/h
2653 14-11-2019 13:00:00 8.68333 C 6.07 g/m*3 8.68 C 4.53333 km/h
2654 14-11-2019 14:00:00 9.01667 C 5.98 g/m*3 9.02 C 4.825 km/h
2655 14-11-2019 15:00:00 8.2 C 6.17 g/m*3 8.2 C 1.2 km/h
2656 14-11-2019 16:00:00 6.66667 C 6.05 g/m*3 6.67 C 0 km/h
2657 14-11-2019 17:00:00 4.96667 C 5.66 g/m*3 4.97 C 0.53333 km/h
2658 14-11-2019 18:00:00 4.48333 C 5.6 g/m*3 4.48 C 0.66667 km/h
2659 14-11-2019 19:00:00 3.86667 C 5.46 g/m*3 3.87 C 0 km/h
2660 14-11-2019 20:00:00 3.45 C 5.44 g/m*3 3.45 C 0.13333 km/h
2661 14-11-2019 21:00:00 2.86667 C 5.32 g/m*3 2.87 C 0 km/h
2662 14-11-2019 22:00:00 2.55833 C 5.32 g/m*3 2.56 C 0 km/h
2663 14-11-2019 23:00:00 2.725 C 5.44 g/m*3 2.73 C 0 km/h
2664 15-11-2019 00:00:00 2.975 C 5.57 g/m*3 2.98 C 0 km/h
2665 15-11-2019 01:00:00 3.43333 C 5.73 g/m*3 3.43 C 0 km/h
2666 15-11-2019 02:00:00 3.43333 C 5.69 g/m*3 3.43 C 0.13333 km/h
2667 15-11-2019 03:00:00 3.4 C 5.63 g/m*3 3.4 C 0.4 km/h
2668 15-11-2019 04:00:00 3.36667 C 5.59 g/m*3 3.37 C 2.4 km/h
2669 15-11-2019 05:00:00 3.53333 C 5.56 g/m*3 3.53 C 0.8 km/h
2670 15-11-2019 06:00:00 3.89167 C 5.55 g/m*3 3.89 C 4.29167 km/h
2671 15-11-2019 07:00:00 3.88333 C 5.52 g/m*3 3.88 C 2.66667 km/h
2672 15-11-2019 08:00:00 4.05833 C 5.58 g/m*3 4.06 C 1.88333 km/h
2673 15-11-2019 09:00:00 4.275 C 5.67 g/m*3 4.28 C 1.74167 km/h
2674 15-11-2019 10:00:00 5.38333 C 5.82 g/m*3 5.38 C 3.2 km/h
2675 15-11-2019 11:00:00 5.86667 C 5.88 g/m*3 5.03 C 5.1 km/h
Sensor: Nr:Datum:Temp:Abs-Feuchte:Windchill:Wind:
Aussen-T/F 2676 15-11-2019 12:00:00 6.55 C 6.08 g/m*3 6.55 C 3.35 km/h
2677 15-11-2019 13:00:00 7.05 C 6.26 g/m*3 7.05 C 1.06667 km/h
2678 15-11-2019 14:00:00 7.68333 C 6.42 g/m*3 7.68 C 2.13333 km/h
2679 15-11-2019 15:00:00 7.875 C 6.45 g/m*3 7.88 C 2.26667 km/h
2680 15-11-2019 16:00:00 6.54167 C 6.22 g/m*3 6.54 C 0.13333 km/h
2681 15-11-2019 17:00:00 4.75833 C 5.93 g/m*3 4.76 C 0 km/h
2682 15-11-2019 18:00:00 4.63333 C 6.01 g/m*3 4.63 C 0.26667 km/h
2683 15-11-2019 19:00:00 4.50833 C 6.02 g/m*3 4.51 C 0 km/h
2684 15-11-2019 20:00:00 4.2 C 5.93 g/m*3 4.2 C 0 km/h
2685 15-11-2019 21:00:00 4.05 C 5.93 g/m*3 4.05 C 0 km/h
2686 15-11-2019 22:00:00 3.70833 C 5.81 g/m*3 3.71 C 0 km/h
2687 15-11-2019 23:00:00 3.49167 C 5.77 g/m*3 3.49 C 0 km/h
2688 16-11-2019 00:00:00 3.30833 C 5.71 g/m*3 3.31 C 0 km/h
2689 16-11-2019 01:00:00 3.225 C 5.73 g/m*3 3.23 C 0.13333 km/h
2690 16-11-2019 02:00:00 3.11667 C 5.69 g/m*3 3.12 C 0.13333 km/h
2691 16-11-2019 03:00:00 2.63333 C 5.5 g/m*3 2.63 C 0 km/h
2692 16-11-2019 04:00:00 1.85 C 5.2 g/m*3 1.85 C 0 km/h
2693 16-11-2019 05:00:00 0.85 C 4.88 g/m*3 0.85 C 0 km/h
2694 16-11-2019 06:00:00 0.08333 C 4.63 g/m*3 0.08 C 0 km/h
2695 16-11-2019 07:00:00 -0.30833 C 4.52 g/m*3 -0.31 C 0.26667 km/h
2696 16-11-2019 08:00:00 0.24167 C 4.73 g/m*3 0.24 C 2.13333 km/h
2697 16-11-2019 09:00:00 0.31667 C 4.77 g/m*3 0.32 C 4.53333 km/h
2698 16-11-2019 10:00:00 0.74167 C 4.95 g/m*3 0.74 C 2.8 km/h
2699 16-11-2019 11:00:00 1.425 C 5.18 g/m*3 1.43 C 2.53333 km/h
2700 16-11-2019 12:00:00 2.25833 C 5.49 g/m*3 2.26 C 0 km/h
Sensor: Nr:Datum:Temp:Abs-Feuchte:Windchill:Wind:
Aussen-T/F 2701 16-11-2019 13:00:00 3.375 C 5.91 g/m*3 3.38 C 0 km/h
2702 16-11-2019 14:00:00 4.20833 C 6.25 g/m*3 4.21 C 0.13333 km/h
2703 16-11-2019 15:00:00 4.66667 C 6.39 g/m*3 4.67 C 0.4 km/h
2704 16-11-2019 16:00:00 4.58333 C 6.18 g/m*3 4.58 C 0.26667 km/h
2705 16-11-2019 17:00:00 3.94167 C 5.92 g/m*3 3.94 C 0.26667 km/h
2706 16-11-2019 18:00:00 3.20833 C 5.7 g/m*3 3.21 C 0.4 km/h
2707 16-11-2019 19:00:00 2.55833 C 5.48 g/m*3 2.56 C 0.13333 km/h
2708 16-11-2019 20:00:00 1.94167 C 5.29 g/m*3 1.94 C 0 km/h
2709 16-11-2019 21:00:00 1.55833 C 5.17 g/m*3 1.56 C 0 km/h
2710 16-11-2019 22:00:00 0.79167 C 4.91 g/m*3 0.79 C 0.13333 km/h
2711 16-11-2019 23:00:00 0.15833 C 4.7 g/m*3 0.16 C 0 km/h
2712 17-11-2019 00:00:00 -0.3 C 4.56 g/m*3 -0.3 C 0 km/h
2713 17-11-2019 01:00:00 -0.69167 C 4.44 g/m*3 -0.69 C 0 km/h
2714 17-11-2019 02:00:00 -0.11667 C 4.65 g/m*3 -0.12 C 0 km/h
2715 17-11-2019 03:00:00 0.8 C 4.97 g/m*3 0.8 C 0 km/h
2716 17-11-2019 04:00:00 1.475 C 5.2 g/m*3 1.48 C 0 km/h
2717 17-11-2019 05:00:00 1.65833 C 5.27 g/m*3 1.66 C 0 km/h
2718 17-11-2019 06:00:00 1.7 C 5.28 g/m*3 1.7 C 0 km/h
2719 17-11-2019 07:00:00 1.825 C 5.33 g/m*3 1.83 C 0 km/h
2720 17-11-2019 08:00:00 1.96667 C 5.38 g/m*3 1.97 C 0 km/h
2721 17-11-2019 09:00:00 2.475 C 5.58 g/m*3 2.48 C 0 km/h
2722 17-11-2019 10:00:00 3.15 C 5.89 g/m*3 3.15 C 0.26667 km/h
2723 17-11-2019 11:00:00 3.91667 C 6.2 g/m*3 3.92 C 0.13333 km/h
2724 17-11-2019 12:00:00 4.31667 C 6.36 g/m*3 4.32 C 0 km/h
2725 17-11-2019 13:00:00 4.90833 C 6.62 g/m*3 4.91 C 0 km/h
Sensor: Nr:Datum:Temp:Abs-Feuchte:Windchill:Wind:
Aussen-T/F 2726 17-11-2019 14:00:00 5.1 C 6.69 g/m*3 5.1 C 0.93333 km/h
2727 17-11-2019 15:00:00 4.88333 C 6.54 g/m*3 4.88 C 1.33333 km/h
2728 17-11-2019 16:00:00 4.65 C 6.44 g/m*3 4.65 C 2.66667 km/h
2729 17-11-2019 17:00:00 4.43333 C 6.35 g/m*3 4.43 C 2.13333 km/h
2730 17-11-2019 18:00:00 4.63333 C 6.43 g/m*3 4.63 C 1.6 km/h
2731 17-11-2019 19:00:00 4.7 C 6.46 g/m*3 3.15 C 6.70833 km/h
2732 17-11-2019 20:00:00 4.71667 C 6.47 g/m*3 4.72 C 3.74167 km/h
2733 17-11-2019 21:00:00 4.7 C 6.46 g/m*3 3.51 C 5.625 km/h
2734 17-11-2019 22:00:00 4.7 C 6.46 g/m*3 4.7 C 1.2 km/h
2735 17-11-2019 23:00:00 4.625 C 6.43 g/m*3 4.63 C 2.95 km/h
2736 18-11-2019 00:00:00 4.375 C 6.32 g/m*3 3.18 C 5.5 km/h
2737 18-11-2019 01:00:00 4.2 C 6.25 g/m*3 2.71 C 6.29167 km/h
2738 18-11-2019 02:00:00 4.2 C 6.25 g/m*3 4.2 C 4.41667 km/h
2739 18-11-2019 03:00:00 4.2 C 6.25 g/m*3 4.2 C 2.93333 km/h
2740 18-11-2019 04:00:00 4.2 C 6.25 g/m*3 4.2 C 4.00833 km/h
2741 18-11-2019 05:00:00 4.175 C 6.24 g/m*3 4.18 C 1.73333 km/h
2742 18-11-2019 06:00:00 4.1 C 6.21 g/m*3 4.1 C 0.53333 km/h
2743 18-11-2019 07:00:00 4.08333 C 6.2 g/m*3 4.08 C 0.4 km/h
2744 18-11-2019 08:00:00 4.14167 C 6.23 g/m*3 4.14 C 0 km/h
2745 18-11-2019 09:00:00 4.40833 C 6.34 g/m*3 4.41 C 0.13333 km/h
2746 18-11-2019 10:00:00 4.86667 C 6.58 g/m*3 4.87 C 0.26667 km/h
2747 18-11-2019 11:00:00 5.025 C 6.6 g/m*3 5.03 C 0.93333 km/h
2748 18-11-2019 12:00:00 5.30833 C 6.7 g/m*3 5.31 C 3.46667 km/h
2749 18-11-2019 13:00:00 5.33333 C 6.67 g/m*3 5.33 C 3.46667 km/h
2750 18-11-2019 14:00:00 5.35833 C 6.63 g/m*3 5.36 C 4 km/h
Sensor: Nr:Datum:Temp:Abs-Feuchte:Windchill:Wind:
Aussen-T/F 2751 18-11-2019 15:00:00 5.19167 C 6.54 g/m*3 5.19 C 3.6 km/h
2752 18-11-2019 16:00:00 4.86667 C 6.4 g/m*3 4.87 C 4.29167 km/h
2753 18-11-2019 17:00:00 4.78333 C 6.36 g/m*3 4.78 C 4.55 km/h
2754 18-11-2019 18:00:00 4.65833 C 6.31 g/m*3 4.66 C 4.01667 km/h
2755 18-11-2019 19:00:00 4.08333 C 6.07 g/m*3 2.01 C 8.19167 km/h
2756 18-11-2019 20:00:00 3.23333 C 5.74 g/m*3 0.59 C 9.81667 km/h
2757 18-11-2019 21:00:00 2.55833 C 5.51 g/m*3 -0.5 C 11.03333 km/h
2758 18-11-2019 22:00:00 2.88333 C 5.66 g/m*3 0.08 C 10.23333 km/h
2759 18-11-2019 23:00:00 3.25 C 5.8 g/m*3 0.22 C 11.56667 km/h
2760 19-11-2019 00:00:00 3.7 C 5.98 g/m*3 1.02 C 10.35833 km/h
2761 19-11-2019 01:00:00 4.01667 C 6.11 g/m*3 2.19 C 7.25833 km/h
2762 19-11-2019 02:00:00 4.2 C 6.19 g/m*3 2.84 C 5.89167 km/h
2763 19-11-2019 03:00:00 4.25833 C 6.21 g/m*3 4.26 C 3.2 km/h
2764 19-11-2019 04:00:00 4.325 C 6.24 g/m*3 2.67 C 6.85833 km/h
2765 19-11-2019 05:00:00 3.475 C 5.88 g/m*3 3.48 C 0.8 km/h
2766 19-11-2019 06:00:00 2.85 C 5.66 g/m*3 2.85 C 2.66667 km/h
2767 19-11-2019 07:00:00 2.93333 C 5.72 g/m*3 2.93 C 0.53333 km/h
2768 19-11-2019 08:00:00 3.18333 C 5.84 g/m*3 3.18 C 2.13333 km/h
2769 19-11-2019 09:00:00 4.025 C 6.17 g/m*3 2.79 C 5.48333 km/h
2770 19-11-2019 10:00:00 4.00833 C 6.14 g/m*3 4.01 C 2 km/h
2771 19-11-2019 11:00:00 4.65833 C 6.44 g/m*3 4.66 C 3.89167 km/h
2772 19-11-2019 12:00:00 6.175 C 6.72 g/m*3 4.71 C 7.24167 km/h
2773 19-11-2019 13:00:00 6.35 C 6.55 g/m*3 5.18 C 6.30833 km/h
2774 19-11-2019 14:00:00 6.63333 C 6.58 g/m*3 5.72 C 5.61667 km/h
2775 19-11-2019 15:00:00 6.55 C 6.77 g/m*3 6.55 C 0.93333 km/h
Sensor: Nr:Datum:Temp:Abs-Feuchte:Windchill:Wind:
Aussen-T/F 2776 19-11-2019 16:00:00 5.54167 C 6.53 g/m*3 5.54 C 2.53333 km/h
2777 19-11-2019 17:00:00 4.175 C 6.03 g/m*3 4.18 C 1.33333 km/h
2778 19-11-2019 18:00:00 3.325 C 5.77 g/m*3 3.33 C 0.26667 km/h
2779 19-11-2019 19:00:00 2.74167 C 5.56 g/m*3 2.74 C 0.13333 km/h
2780 19-11-2019 20:00:00 2.3 C 5.45 g/m*3 2.3 C 0.4 km/h
2781 19-11-2019 21:00:00 2.80833 C 5.67 g/m*3 2.81 C 2.14167 km/h
2782 19-11-2019 22:00:00 2.45 C 5.51 g/m*3 2.45 C 0.4 km/h
2783 19-11-2019 23:00:00 1.10833 C 5.02 g/m*3 1.11 C 0 km/h
2784 20-11-2019 00:00:00 0.60833 C 4.85 g/m*3 0.61 C 0.13333 km/h
2785 20-11-2019 01:00:00 0.23333 C 4.73 g/m*3 0.23 C 0 km/h
2786 20-11-2019 02:00:00 0.35833 C 4.82 g/m*3 0.36 C 0 km/h
2787 20-11-2019 03:00:00 0.55833 C 4.88 g/m*3 0.56 C 2.14167 km/h
2788 20-11-2019 04:00:00 0.39167 C 4.83 g/m*3 0.39 C 2.80833 km/h
2789 20-11-2019 05:00:00 0.675 C 4.92 g/m*3 0.68 C 2.66667 km/h
2790 20-11-2019 06:00:00 0.75833 C 4.95 g/m*3 0.76 C 0.13333 km/h
2791 20-11-2019 07:00:00 1.01667 C 5.04 g/m*3 1.02 C 0.26667 km/h
2792 20-11-2019 08:00:00 1.275 C 5.15 g/m*3 1.27 C 0 km/h
2793 20-11-2019 09:00:00 1.85 C 5.39 g/m*3 1.85 C 0.26667 km/h
2794 20-11-2019 10:00:00 2.61667 C 5.68 g/m*3 2.62 C 0.26667 km/h
2795 20-11-2019 11:00:00 3.025 C 5.82 g/m*3 3.03 C 1.46667 km/h
2796 20-11-2019 12:00:00 4.16667 C 6.22 g/m*3 4.17 C 4.54167 km/h
2797 20-11-2019 13:00:00 4.9 C 6.09 g/m*3 2.97 C 8.19167 km/h
2798 20-11-2019 14:00:00 5.275 C 5.97 g/m*3 5.28 C 4.15 km/h
2799 20-11-2019 15:00:00 5.225 C 5.87 g/m*3 5.23 C 1.33333 km/h
2800 20-11-2019 16:00:00 3.54167 C 5.45 g/m*3 3.54 C 0.26667 km/h
Sensor: Nr:Datum:Temp:Abs-Feuchte:Windchill:Wind:
Aussen-T/F 2801 20-11-2019 17:00:00 2.34167 C 5.25 g/m*3 2.34 C 0 km/h
2802 20-11-2019 18:00:00 1.31667 C 4.96 g/m*3 1.32 C 0.13333 km/h
2803 20-11-2019 19:00:00 0.4 C 4.7 g/m*3 0.4 C 0 km/h
2804 20-11-2019 20:00:00 -0.19167 C 4.54 g/m*3 -0.19 C 0 km/h
2805 20-11-2019 21:00:00 -0.59167 C 4.45 g/m*3 -0.59 C 0 km/h
2806 20-11-2019 22:00:00 -0.85 C 4.39 g/m*3 -0.85 C 0.26667 km/h
2807 20-11-2019 23:00:00 -0.6 C 4.47 g/m*3 -0.6 C 0 km/h
2808 21-11-2019 00:00:00 -0.6 C 4.48 g/m*3 -0.6 C 0 km/h
2809 21-11-2019 01:00:00 -1.19167 C 4.28 g/m*3 -1.19 C 0 km/h
2810 21-11-2019 02:00:00 -1.4 C 4.22 g/m*3 -1.4 C 0 km/h
2811 21-11-2019 03:00:00 -1.23333 C 4.31 g/m*3 -1.23 C 0 km/h
2812 21-11-2019 04:00:00 -0.40833 C 4.57 g/m*3 -0.41 C 0 km/h
2813 21-11-2019 05:00:00 0.16667 C 4.75 g/m*3 0.17 C 0 km/h
2814 21-11-2019 06:00:00 0.65 C 4.92 g/m*3 0.65 C 0.13333 km/h
2815 21-11-2019 07:00:00 0.775 C 4.96 g/m*3 0.78 C 0 km/h
2816 21-11-2019 08:00:00 0.85 C 4.98 g/m*3 0.85 C 0.4 km/h
2817 21-11-2019 09:00:00 1.225 C 5.11 g/m*3 1.23 C 0.26667 km/h
2818 21-11-2019 10:00:00 1.775 C 5.31 g/m*3 1.78 C 0 km/h
2819 21-11-2019 11:00:00 2.53333 C 5.59 g/m*3 2.53 C 0.53333 km/h
2820 21-11-2019 12:00:00 2.925 C 5.68 g/m*3 2.93 C 1.6 km/h
2821 21-11-2019 13:00:00 3.6 C 5.92 g/m*3 3.6 C 1.6 km/h
2822 21-11-2019 14:00:00 4.33333 C 6.13 g/m*3 4.33 C 0.53333 km/h
2823 21-11-2019 15:00:00 4.78333 C 6.29 g/m*3 4.78 C 0 km/h
2824 21-11-2019 16:00:00 4.975 C 6.38 g/m*3 4.97 C 0 km/h
2825 21-11-2019 17:00:00 4.48333 C 6.23 g/m*3 4.48 C 0 km/h
Sensor: Nr:Datum:Temp:Abs-Feuchte:Windchill:Wind:
Aussen-T/F 2826 21-11-2019 18:00:00 4.18333 C 6.12 g/m*3 4.18 C 0 km/h
2827 21-11-2019 19:00:00 3.975 C 6.06 g/m*3 3.98 C 0 km/h
2828 21-11-2019 20:00:00 3.10833 C 5.7 g/m*3 3.11 C 0.4 km/h
2829 21-11-2019 21:00:00 2.35 C 5.46 g/m*3 2.35 C 0.4 km/h
2830 21-11-2019 22:00:00 1.89167 C 5.3 g/m*3 1.89 C 0.13333 km/h
2831 21-11-2019 23:00:00 2.05 C 5.41 g/m*3 2.05 C 0.13333 km/h
2832 22-11-2019 00:00:00 2.24167 C 5.48 g/m*3 2.24 C 0.13333 km/h
2833 22-11-2019 01:00:00 2 C 5.39 g/m*3 2 C 0.13333 km/h
2834 22-11-2019 02:00:00 1.6 C 5.24 g/m*3 1.6 C 0.26667 km/h
2835 22-11-2019 03:00:00 1.725 C 5.29 g/m*3 1.73 C 0.13333 km/h
2836 22-11-2019 04:00:00 2.11667 C 5.43 g/m*3 2.12 C 0 km/h
2837 22-11-2019 05:00:00 2.69167 C 5.68 g/m*3 2.69 C 0.13333 km/h
2838 22-11-2019 06:00:00 3.55833 C 6.05 g/m*3 3.56 C 0 km/h
2839 22-11-2019 07:00:00 3.99167 C 6.23 g/m*3 3.99 C 0.13333 km/h
2840 22-11-2019 08:00:00 4.55833 C 6.47 g/m*3 4.56 C 3.06667 km/h
2841 22-11-2019 09:00:00 4.65833 C 6.48 g/m*3 4.66 C 3.88333 km/h
2842 22-11-2019 10:00:00 4.50833 C 6.39 g/m*3 4.51 C 2.26667 km/h
2843 22-11-2019 11:00:00 5.18333 C 6.68 g/m*3 5.18 C 4.93333 km/h
2844 22-11-2019 12:00:00 5.7 C 6.86 g/m*3 4.39 C 6.45 km/h
2845 22-11-2019 13:00:00 5.88333 C 6.79 g/m*3 4.82 C 5.75 km/h
2846 22-11-2019 14:00:00 6.06667 C 6.78 g/m*3 4.41 C 7.91667 km/h
2847 22-11-2019 15:00:00 6.16667 C 6.75 g/m*3 6.17 C 4.00833 km/h
2848 22-11-2019 16:00:00 5.90833 C 6.66 g/m*3 5.91 C 1.73333 km/h
2849 22-11-2019 17:00:00 5.73333 C 6.66 g/m*3 5.73 C 1.46667 km/h
2850 22-11-2019 18:00:00 5.63333 C 6.64 g/m*3 5.63 C 1.46667 km/h
Sensor: Nr:Datum:Temp:Abs-Feuchte:Windchill:Wind:
Aussen-T/F 2851 22-11-2019 19:00:00 5.49167 C 6.55 g/m*3 5.49 C 2.26667 km/h
2852 22-11-2019 20:00:00 5.275 C 6.43 g/m*3 5.28 C 3.48333 km/h
2853 22-11-2019 21:00:00 5.08333 C 6.35 g/m*3 5.08 C 1.33333 km/h
2854 22-11-2019 22:00:00 4.88333 C 6.25 g/m*3 4.88 C 2.26667 km/h
2855 22-11-2019 23:00:00 4.725 C 6.16 g/m*3 4.72 C 2.13333 km/h
2856 23-11-2019 00:00:00 4.725 C 6.16 g/m*3 4.72 C 2.53333 km/h
2857 23-11-2019 01:00:00 4.83333 C 6.15 g/m*3 4.83 C 3.88333 km/h
2858 23-11-2019 02:00:00 4.775 C 6.13 g/m*3 4.78 C 1.06667 km/h
2859 23-11-2019 03:00:00 4.425 C 6.08 g/m*3 4.43 C 1.86667 km/h
2860 23-11-2019 04:00:00 4 C 5.96 g/m*3 4 C 0.26667 km/h
2861 23-11-2019 05:00:00 3.69167 C 5.9 g/m*3 3.69 C 0.8 km/h
2862 23-11-2019 06:00:00 3.68333 C 5.94 g/m*3 3.68 C 0.4 km/h
2863 23-11-2019 07:00:00 3.94167 C 6.08 g/m*3 3.94 C 0.53333 km/h
2864 23-11-2019 08:00:00 4.15 C 6.17 g/m*3 4.15 C 1.60833 km/h
2865 23-11-2019 09:00:00 5.00833 C 6.52 g/m*3 5.01 C 1.86667 km/h
2866 23-11-2019 10:00:00 6.15833 C 6.75 g/m*3 6.16 C 3.74167 km/h
2867 23-11-2019 11:00:00 7.225 C 6.91 g/m*3 7.23 C 4.14167 km/h
2868 23-11-2019 12:00:00 7.35833 C 7.14 g/m*3 7.36 C 1.33333 km/h
2869 23-11-2019 13:00:00 7.65 C 7.27 g/m*3 7.65 C 2 km/h
2870 23-11-2019 14:00:00 7.53333 C 7.39 g/m*3 7.53 C 2.53333 km/h
2871 23-11-2019 15:00:00 8.36667 C 7.53 g/m*3 7.83 C 5.225 km/h
2872 23-11-2019 16:00:00 7.625 C 7.15 g/m*3 7.63 C 2.275 km/h
2873 23-11-2019 17:00:00 6.25833 C 6.81 g/m*3 6.26 C 2.53333 km/h
2874 23-11-2019 18:00:00 5.76667 C 6.7 g/m*3 5.77 C 0.8 km/h
2875 23-11-2019 19:00:00 5.56667 C 6.69 g/m*3 5.57 C 1.46667 km/h
Sensor: Nr:Datum:Temp:Abs-Feuchte:Windchill:Wind:
Aussen-T/F 2876 23-11-2019 20:00:00 5.00833 C 6.46 g/m*3 5.01 C 0.26667 km/h
2877 23-11-2019 21:00:00 4.41667 C 6.22 g/m*3 4.42 C 0.13333 km/h
2878 23-11-2019 22:00:00 3.85833 C 6.04 g/m*3 3.86 C 0.4 km/h
2879 23-11-2019 23:00:00 3.28333 C 5.82 g/m*3 3.28 C 0.13333 km/h
2880 24-11-2019 00:00:00 2.8 C 5.63 g/m*3 2.8 C 0.13333 km/h
2881 24-11-2019 01:00:00 2.38333 C 5.49 g/m*3 2.38 C 0 km/h
2882 24-11-2019 02:00:00 2.16667 C 5.45 g/m*3 2.17 C 0 km/h
2883 24-11-2019 03:00:00 2.1 C 5.43 g/m*3 2.1 C 0 km/h
2884 24-11-2019 04:00:00 1.7 C 5.28 g/m*3 1.7 C 0 km/h
2885 24-11-2019 05:00:00 1.825 C 5.33 g/m*3 1.83 C 0.26667 km/h
2886 24-11-2019 06:00:00 1.48333 C 5.2 g/m*3 1.48 C 0 km/h
2887 24-11-2019 07:00:00 1.14167 C 5.08 g/m*3 1.14 C 0.13333 km/h
2888 24-11-2019 08:00:00 1.15 C 5.09 g/m*3 1.15 C 0 km/h
2889 24-11-2019 09:00:00 1.525 C 5.23 g/m*3 1.53 C 0.26667 km/h
2890 24-11-2019 10:00:00 2.25833 C 5.54 g/m*3 2.26 C 0.53333 km/h
2891 24-11-2019 11:00:00 3.01667 C 5.83 g/m*3 3.02 C 0.13333 km/h
2892 24-11-2019 12:00:00 3.81667 C 6.15 g/m*3 3.82 C 0 km/h
2893 24-11-2019 13:00:00 4.81667 C 6.58 g/m*3 4.82 C 0 km/h
2894 24-11-2019 14:00:00 5.39167 C 6.83 g/m*3 5.39 C 0 km/h
2895 24-11-2019 15:00:00 5.39167 C 6.83 g/m*3 5.39 C 0 km/h
2896 24-11-2019 16:00:00 4.71667 C 6.47 g/m*3 4.72 C 0 km/h
2897 24-11-2019 17:00:00 3.95 C 6.15 g/m*3 3.95 C 0 km/h
2898 24-11-2019 18:00:00 3.625 C 6.01 g/m*3 3.63 C 0 km/h
2899 24-11-2019 19:00:00 3.55 C 5.98 g/m*3 3.55 C 0 km/h
2900 24-11-2019 20:00:00 3.21667 C 5.85 g/m*3 3.22 C 0 km/h
Sensor: Nr:Datum:Temp:Abs-Feuchte:Windchill:Wind:
Aussen-T/F 2901 24-11-2019 21:00:00 3 C 5.77 g/m*3 3 C 0 km/h
2902 24-11-2019 22:00:00 2.48333 C 5.57 g/m*3 2.48 C 0 km/h
2903 24-11-2019 23:00:00 2.11667 C 5.44 g/m*3 2.12 C 0 km/h
2904 25-11-2019 00:00:00 2.06667 C 5.43 g/m*3 2.07 C 0 km/h
2905 25-11-2019 01:00:00 2.41667 C 5.6 g/m*3 2.42 C 0 km/h
2906 25-11-2019 02:00:00 2.26667 C 5.54 g/m*3 2.27 C 0 km/h
2907 25-11-2019 03:00:00 2.40833 C 5.6 g/m*3 2.41 C 0 km/h
2908 25-11-2019 04:00:00 2.7 C 5.71 g/m*3 2.7 C 0 km/h
2909 25-11-2019 05:00:00 3.06667 C 5.85 g/m*3 3.07 C 0 km/h
2910 25-11-2019 06:00:00 3.31667 C 5.95 g/m*3 3.32 C 0 km/h
2911 25-11-2019 07:00:00 3.575 C 6.06 g/m*3 3.58 C 0 km/h
2912 25-11-2019 08:00:00 3.80833 C 6.15 g/m*3 3.81 C 0 km/h
2913 25-11-2019 09:00:00 4.26667 C 6.34 g/m*3 4.27 C 0 km/h
2914 25-11-2019 10:00:00 4.73333 C 6.54 g/m*3 4.73 C 0 km/h
2915 25-11-2019 11:00:00 5.41667 C 6.85 g/m*3 5.42 C 0.13333 km/h
2916 25-11-2019 12:00:00 6.05 C 7.13 g/m*3 6.05 C 0.13333 km/h
2917 25-11-2019 13:00:00 6.675 C 7.35 g/m*3 6.68 C 0 km/h
2918 25-11-2019 14:00:00 7.08333 C 7.48 g/m*3 7.08 C 0.26667 km/h
2919 25-11-2019 15:00:00 7.225 C 7.48 g/m*3 7.23 C 0 km/h
2920 25-11-2019 16:00:00 7.15833 C 7.49 g/m*3 7.16 C 0 km/h
2921 25-11-2019 17:00:00 6.8 C 7.34 g/m*3 6.8 C 0 km/h
2922 25-11-2019 18:00:00 6.68333 C 7.29 g/m*3 6.68 C 0 km/h
2923 25-11-2019 19:00:00 6.19167 C 7.06 g/m*3 6.19 C 0 km/h
2924 25-11-2019 20:00:00 6.125 C 7.1 g/m*3 6.13 C 0.13333 km/h
2925 25-11-2019 21:00:00 5.86667 C 6.94 g/m*3 5.87 C 0 km/h
Sensor: Nr:Datum:Temp:Abs-Feuchte:Windchill:Wind:
Aussen-T/F 2926 25-11-2019 22:00:00 5.21667 C 6.63 g/m*3 5.22 C 0 km/h
2927 25-11-2019 23:00:00 4.28333 C 6.22 g/m*3 4.28 C 0 km/h
2928 26-11-2019 00:00:00 3.66667 C 6.02 g/m*3 3.67 C 0 km/h
2929 26-11-2019 01:00:00 4.225 C 6.26 g/m*3 4.22 C 0 km/h
2930 26-11-2019 02:00:00 4.71667 C 6.5 g/m*3 4.72 C 0.13333 km/h
2931 26-11-2019 03:00:00 5.25833 C 6.76 g/m*3 5.26 C 0.13333 km/h
2932 26-11-2019 04:00:00 5.88333 C 7.06 g/m*3 5.88 C 0 km/h
2933 26-11-2019 05:00:00 6.50833 C 7.35 g/m*3 6.51 C 0 km/h
2934 26-11-2019 06:00:00 6.75833 C 7.47 g/m*3 6.76 C 0.4 km/h
2935 26-11-2019 07:00:00 7.25 C 7.72 g/m*3 7.25 C 0.26667 km/h
2936 26-11-2019 08:00:00 7.45833 C 7.82 g/m*3 7.46 C 1.2 km/h
2937 26-11-2019 09:00:00 8.05833 C 8.13 g/m*3 8.06 C 2.66667 km/h
2938 26-11-2019 10:00:00 9.175 C 8.62 g/m*3 9.18 C 1.73333 km/h
2939 26-11-2019 11:00:00 10.38333 C 8.91 g/m*3 10.38 C 3.61667 km/h
2940 26-11-2019 12:00:00 10.98333 C 9.07 g/m*3 10.98 C 1.2 km/h
2941 26-11-2019 13:00:00 11.175 C 9.13 g/m*3 11.18 C 1.875 km/h
2942 26-11-2019 14:00:00 11.10833 C 9.19 g/m*3 11.11 C 0.66667 km/h
2943 26-11-2019 15:00:00 11.24167 C 9.17 g/m*3 11.24 C 1.2 km/h
2944 26-11-2019 16:00:00 10.69167 C 8.97 g/m*3 10.69 C 0.53333 km/h
2945 26-11-2019 17:00:00 10.01667 C 8.69 g/m*3 10.02 C 0.13333 km/h
2946 26-11-2019 18:00:00 9.73333 C 8.67 g/m*3 9.73 C 2 km/h
2947 26-11-2019 19:00:00 10.16667 C 8.78 g/m*3 10.17 C 2.93333 km/h
2948 26-11-2019 20:00:00 9.75 C 8.48 g/m*3 9.75 C 0.53333 km/h
2949 26-11-2019 21:00:00 9.15 C 8.43 g/m*3 9.15 C 0 km/h
2950 26-11-2019 22:00:00 9.225 C 8.43 g/m*3 9.23 C 0.4 km/h
Sensor: Nr:Datum:Temp:Abs-Feuchte:Windchill:Wind:
Aussen-T/F 2951 26-11-2019 23:00:00 8.66667 C 8.19 g/m*3 8.67 C 0.13333 km/h
2952 27-11-2019 00:00:00 8.46667 C 8.14 g/m*3 8.47 C 0.53333 km/h
2953 27-11-2019 01:00:00 8.38333 C 8.12 g/m*3 8.38 C 0.4 km/h
2954 27-11-2019 02:00:00 8.73333 C 8.36 g/m*3 8.73 C 0 km/h
2955 27-11-2019 03:00:00 8.21667 C 8.06 g/m*3 8.22 C 0 km/h
2956 27-11-2019 04:00:00 8.25833 C 8.15 g/m*3 8.26 C 3.06667 km/h
2957 27-11-2019 05:00:00 8.39167 C 8.15 g/m*3 7.82 C 5.34167 km/h
2958 27-11-2019 06:00:00 8.64167 C 8.21 g/m*3 8.64 C 1.46667 km/h
2959 27-11-2019 07:00:00 8.725 C 8.28 g/m*3 8.73 C 3.74167 km/h
2960 27-11-2019 08:00:00 9.13333 C 8.45 g/m*3 9.13 C 2.66667 km/h
2961 27-11-2019 09:00:00 9.60833 C 8.71 g/m*3 9.61 C 1.33333 km/h
2962 27-11-2019 10:00:00 10.00833 C 8.91 g/m*3 10.01 C 2.40833 km/h
2963 27-11-2019 11:00:00 11.66667 C 8.92 g/m*3 11.67 C 6.15833 km/h
2964 27-11-2019 12:00:00 12.65 C 8.78 g/m*3 12.65 C 12.625 km/h
2965 27-11-2019 13:00:00 12.775 C 8.66 g/m*3 12.78 C 10.61667 km/h
2966 27-11-2019 14:00:00 12.96667 C 8.63 g/m*3 12.97 C 7.375 km/h
2967 27-11-2019 15:00:00 12.8 C 8.56 g/m*3 12.8 C 12.21667 km/h
2968 27-11-2019 16:00:00 11.73333 C 8.77 g/m*3 11.73 C 4.95 km/h
2969 27-11-2019 17:00:00 10.73333 C 8.89 g/m*3 10.73 C 4.275 km/h
2970 27-11-2019 18:00:00 10.70833 C 8.97 g/m*3 10.49 C 5.225 km/h
2971 27-11-2019 19:00:00 10.75 C 9.05 g/m*3 9.96 C 7.65 km/h
2972 27-11-2019 20:00:00 11.26667 C 8.94 g/m*3 11.27 C 8.99167 km/h
2973 27-11-2019 21:00:00 10.76667 C 9.02 g/m*3 9.7 C 9.125 km/h
2974 27-11-2019 22:00:00 11.29167 C 8.86 g/m*3 11.29 C 16.375 km/h
2975 27-11-2019 23:00:00 11.6 C 8.61 g/m*3 11.6 C 17.175 km/h
Sensor: Nr:Datum:Temp:Abs-Feuchte:Windchill:Wind:
Aussen-T/F 2976 28-11-2019 00:00:00 11.575 C 8.47 g/m*3 11.58 C 19.7 km/h
2977 28-11-2019 01:00:00 11.61667 C 8.43 g/m*3 11.62 C 23.46667 km/h
2978 28-11-2019 02:00:00 11.20833 C 8.36 g/m*3 11.21 C 21.19167 km/h
2979 28-11-2019 03:00:00 11.05 C 8.04 g/m*3 11.05 C 19.70833 km/h
2980 28-11-2019 04:00:00 10.96667 C 7.93 g/m*3 8.7 C 18.9 km/h
2981 28-11-2019 05:00:00 10.66667 C 7.96 g/m*3 8.31 C 19.04167 km/h
2982 28-11-2019 06:00:00 10.66667 C 8.14 g/m*3 8.57 C 16.5 km/h
2983 28-11-2019 07:00:00 10.60833 C 7.98 g/m*3 8.38 C 17.56667 km/h
2984 28-11-2019 08:00:00 10.58333 C 7.94 g/m*3 8.28 C 18.24167 km/h
2985 28-11-2019 09:00:00 11.025 C 8.03 g/m*3 11.03 C 16.23333 km/h
2986 28-11-2019 10:00:00 11.58333 C 8.06 g/m*3 11.58 C 17.7 km/h
2987 28-11-2019 11:00:00 11.95833 C 8.23 g/m*3 11.96 C 20.76667 km/h
2988 28-11-2019 12:00:00 11.49167 C 8.53 g/m*3 11.49 C 19.16667 km/h
2989 28-11-2019 13:00:00 11.7 C 8.66 g/m*3 11.7 C 17.7 km/h
2990 28-11-2019 14:00:00 11.45 C 8.57 g/m*3 11.45 C 15.03333 km/h
2991 28-11-2019 15:00:00 11.16667 C 8.46 g/m*3 11.17 C 15.03333 km/h
2992 28-11-2019 16:00:00 10.83333 C 8.42 g/m*3 8.89 C 15.44167 km/h
2993 28-11-2019 17:00:00 10.41667 C 8.55 g/m*3 8.64 C 13.3 km/h
2994 28-11-2019 18:00:00 10.43333 C 8.46 g/m*3 8.56 C 14.1 km/h
2995 28-11-2019 19:00:00 10.41667 C 8.44 g/m*3 8.92 C 11.29167 km/h
2996 28-11-2019 20:00:00 10.31667 C 8.51 g/m*3 8.84 C 11.03333 km/h
2997 28-11-2019 21:00:00 10.33333 C 8.49 g/m*3 8.69 C 12.23333 km/h
2998 28-11-2019 22:00:00 10.19167 C 8.54 g/m*3 8.63 C 11.425 km/h
2999 28-11-2019 23:00:00 10.00833 C 8.53 g/m*3 9.12 C 7.50833 km/h
3000 29-11-2019 00:00:00 9.44167 C 8.49 g/m*3 8.86 C 5.89167 km/h
Sensor: Nr:Datum:Temp:Abs-Feuchte:Windchill:Wind:
Aussen-T/F 3001 29-11-2019 01:00:00 9.05 C 8.36 g/m*3 9.05 C 2.93333 km/h
3002 29-11-2019 02:00:00 8.825 C 8.3 g/m*3 8.82 C 0 km/h
3003 29-11-2019 03:00:00 8.58333 C 8.23 g/m*3 8.58 C 0.26667 km/h
3004 29-11-2019 04:00:00 8.21667 C 8.04 g/m*3 8.22 C 2.15 km/h
3005 29-11-2019 05:00:00 7.15 C 7.34 g/m*3 7.15 C 4.55 km/h
3006 29-11-2019 06:00:00 6.79167 C 7.26 g/m*3 6.79 C 2.80833 km/h
3007 29-11-2019 07:00:00 6.38333 C 7.01 g/m*3 6.38 C 2.00833 km/h
3008 29-11-2019 08:00:00 5.95833 C 6.88 g/m*3 5.96 C 0.4 km/h
3009 29-11-2019 09:00:00 5.525 C 6.68 g/m*3 5.53 C 1.73333 km/h
3010 29-11-2019 10:00:00 5.73333 C 6.69 g/m*3 5.73 C 3.06667 km/h
3011 29-11-2019 11:00:00 6.45833 C 6.76 g/m*3 6.46 C 4.00833 km/h
3012 29-11-2019 12:00:00 7.34167 C 6.65 g/m*3 5.26 C 11.01667 km/h
3013 29-11-2019 13:00:00 6.99167 C 6.45 g/m*3 6 C 6.04167 km/h
3014 29-11-2019 14:00:00 7.49167 C 6.11 g/m*3 6.08 C 7.925 km/h
3015 29-11-2019 15:00:00 7.675 C 5.92 g/m*3 5.94 C 9.55 km/h
3016 29-11-2019 16:00:00 6.63333 C 5.89 g/m*3 6.63 C 4.00833 km/h
3017 29-11-2019 17:00:00 4.95833 C 5.73 g/m*3 4.96 C 3.33333 km/h
3018 29-11-2019 18:00:00 4.88333 C 5.86 g/m*3 4.88 C 1.46667 km/h
3019 29-11-2019 19:00:00 5.13333 C 5.83 g/m*3 5.13 C 2.53333 km/h
3020 29-11-2019 20:00:00 4.80833 C 5.8 g/m*3 4.81 C 3.46667 km/h
3021 29-11-2019 21:00:00 4.55833 C 5.8 g/m*3 4.56 C 2.8 km/h
3022 29-11-2019 22:00:00 3.55 C 5.55 g/m*3 3.55 C 0.93333 km/h
3023 29-11-2019 23:00:00 2.56667 C 5.34 g/m*3 2.57 C 1.2 km/h
3024 30-11-2019 00:00:00 2.60833 C 5.44 g/m*3 2.61 C 1.33333 km/h
3025 30-11-2019 01:00:00 1.975 C 5.21 g/m*3 1.98 C 0.66667 km/h
Sensor: Nr:Datum:Temp:Abs-Feuchte:Windchill:Wind:
Aussen-T/F 3026 30-11-2019 02:00:00 1.725 C 5.18 g/m*3 1.73 C 0.4 km/h
3027 30-11-2019 03:00:00 1.51667 C 5.11 g/m*3 1.52 C 0.93333 km/h
3028 30-11-2019 04:00:00 1.93333 C 5.29 g/m*3 1.93 C 2.93333 km/h
3029 30-11-2019 05:00:00 1.35 C 5.05 g/m*3 1.35 C 0.93333 km/h
3030 30-11-2019 06:00:00 0.18333 C 4.66 g/m*3 0.18 C 0.13333 km/h
3031 30-11-2019 07:00:00 -0.19167 C 4.57 g/m*3 -0.19 C 0.26667 km/h
3032 30-11-2019 08:00:00 0.14167 C 4.7 g/m*3 0.14 C 0 km/h
3033 30-11-2019 09:00:00 0.18333 C 4.71 g/m*3 0.18 C 0.53333 km/h
3034 30-11-2019 10:00:00 0.55 C 4.88 g/m*3 0.55 C 1.6 km/h
3035 30-11-2019 11:00:00 0.89167 C 5 g/m*3 0.89 C 2.26667 km/h
3036 30-11-2019 12:00:00 1.35 C 5.16 g/m*3 1.35 C 0.66667 km/h
3037 30-11-2019 13:00:00 2.11667 C 5.43 g/m*3 2.12 C 0.93333 km/h
3038 30-11-2019 14:00:00 2.26667 C 5.49 g/m*3 2.27 C 2.13333 km/h
3039 30-11-2019 15:00:00 2.19167 C 5.46 g/m*3 2.19 C 1.2 km/h
3040 30-11-2019 16:00:00 1.99167 C 5.39 g/m*3 1.99 C 0 km/h
3041 30-11-2019 17:00:00 1.525 C 5.22 g/m*3 1.53 C 0 km/h
3042 30-11-2019 18:00:00 1.05833 C 5.05 g/m*3 1.06 C 0 km/h
3043 30-11-2019 19:00:00 0.79167 C 4.96 g/m*3 0.79 C 0 km/h
3044 30-11-2019 20:00:00 0.65 C 4.92 g/m*3 0.65 C 0 km/h
3045 30-11-2019 21:00:00 0.58333 C 4.89 g/m*3 0.58 C 0.26667 km/h
3046 30-11-2019 22:00:00 0.66667 C 4.92 g/m*3 0.67 C 0.53333 km/h
3047 30-11-2019 23:00:00 0.63333 C 4.91 g/m*3 0.63 C 1.2 km/h
3048 01-12-2019 00:00:00 0.6 C 4.91 g/m*3 0.6 C 0.26667 km/h
3049 01-12-2019 01:00:00 0.75833 C 5 g/m*3 0.76 C 0.26667 km/h
3050 01-12-2019 02:00:00 0.63333 C 4.95 g/m*3 0.63 C 0.53333 km/h
Sensor: Nr:Datum:Temp:Abs-Feuchte:Windchill:Wind:
Aussen-T/F 3051 01-12-2019 03:00:00 0.5 C 4.86 g/m*3 0.5 C 0.93333 km/h
3052 01-12-2019 04:00:00 0.10833 C 4.76 g/m*3 0.11 C 0 km/h
3053 01-12-2019 05:00:00 0.1 C 4.78 g/m*3 0.1 C 0.13333 km/h
3054 01-12-2019 06:00:00 -0.025 C 4.71 g/m*3 -0.03 C 0.4 km/h
3055 01-12-2019 07:00:00 0.35 C 4.86 g/m*3 0.35 C 2.53333 km/h
3056 01-12-2019 08:00:00 0.70833 C 4.99 g/m*3 0.71 C 1.06667 km/h
3057 01-12-2019 09:00:00 0.84167 C 5.03 g/m*3 0.84 C 0.26667 km/h
3058 01-12-2019 10:00:00 1.275 C 5.18 g/m*3 1.27 C 0.13333 km/h
3059 01-12-2019 11:00:00 2.1 C 5.48 g/m*3 2.1 C 3.075 km/h
3060 01-12-2019 12:00:00 2.975 C 5.48 g/m*3 1.69 C 5.23333 km/h
3061 01-12-2019 13:00:00 3.75833 C 5.24 g/m*3 3.76 C 2.13333 km/h
3062 01-12-2019 14:00:00 4.20833 C 5.11 g/m*3 4.21 C 0.93333 km/h
3063 01-12-2019 15:00:00 3.98333 C 5.33 g/m*3 3.98 C 0 km/h
3064 01-12-2019 16:00:00 3.16667 C 5.21 g/m*3 3.17 C 0 km/h
3065 01-12-2019 17:00:00 2.81667 C 5.2 g/m*3 2.82 C 0 km/h
3066 01-12-2019 18:00:00 2.8 C 5.19 g/m*3 2.8 C 0 km/h
3067 01-12-2019 19:00:00 2.86667 C 5.2 g/m*3 2.87 C 0 km/h
3068 01-12-2019 20:00:00 2.725 C 5.14 g/m*3 2.73 C 0 km/h
3069 01-12-2019 21:00:00 2.45 C 5.06 g/m*3 2.45 C 0.13333 km/h
3070 01-12-2019 22:00:00 1.99167 C 4.95 g/m*3 1.99 C 0 km/h
3071 01-12-2019 23:00:00 1.33333 C 4.8 g/m*3 1.33 C 0.26667 km/h
3072 02-12-2019 00:00:00 0.775 C 4.7 g/m*3 0.78 C 0.66667 km/h
3073 02-12-2019 01:00:00 0.63333 C 4.71 g/m*3 0.63 C 0.4 km/h
3074 02-12-2019 02:00:00 0.09167 C 4.53 g/m*3 0.09 C 1.6 km/h
3075 02-12-2019 03:00:00 -0.36667 C 4.41 g/m*3 -0.37 C 2.13333 km/h
Sensor: Nr:Datum:Temp:Abs-Feuchte:Windchill:Wind:
Aussen-T/F 3076 02-12-2019 04:00:00 -0.44167 C 4.44 g/m*3 -0.44 C 0.53333 km/h
3077 02-12-2019 05:00:00 -0.35 C 4.48 g/m*3 -0.35 C 0.26667 km/h
3078 02-12-2019 06:00:00 -0.6 C 4.42 g/m*3 -0.6 C 1.06667 km/h
3079 02-12-2019 07:00:00 -1.15833 C 4.24 g/m*3 -1.16 C 0.26667 km/h
3080 02-12-2019 08:00:00 -0.65 C 4.43 g/m*3 -0.65 C 1.06667 km/h
3081 02-12-2019 09:00:00 0.26667 C 4.71 g/m*3 0.27 C 4.26667 km/h
3082 02-12-2019 10:00:00 0.85 C 4.84 g/m*3 -0.66 C 5.08333 km/h
3083 02-12-2019 11:00:00 1.58333 C 4.99 g/m*3 1.58 C 4.41667 km/h
3084 02-12-2019 12:00:00 2.78333 C 5.31 g/m*3 2.78 C 4.69167 km/h
3085 02-12-2019 13:00:00 3.95 C 5.54 g/m*3 2.76 C 5.34167 km/h
3086 02-12-2019 14:00:00 4.725 C 5.91 g/m*3 4.72 C 4.55 km/h
3087 02-12-2019 15:00:00 5.19167 C 6.12 g/m*3 5.19 C 1.2 km/h
3088 02-12-2019 16:00:00 4.675 C 6.12 g/m*3 4.68 C 2.8 km/h
3089 02-12-2019 17:00:00 4.20833 C 6 g/m*3 4.21 C 1.6 km/h
3090 02-12-2019 18:00:00 3.875 C 5.88 g/m*3 3.88 C 0.53333 km/h
3091 02-12-2019 19:00:00 3.425 C 5.78 g/m*3 3.43 C 0.93333 km/h
3092 02-12-2019 20:00:00 3.7 C 5.92 g/m*3 3.7 C 1.73333 km/h
3093 02-12-2019 21:00:00 3.63333 C 5.89 g/m*3 3.63 C 4.825 km/h
3094 02-12-2019 22:00:00 3.475 C 5.89 g/m*3 3.48 C 4.40833 km/h
3095 02-12-2019 23:00:00 3.4 C 5.86 g/m*3 3.4 C 3.475 km/h
3096 03-12-2019 00:00:00 3.40833 C 5.87 g/m*3 1.52 C 7.11667 km/h
3097 03-12-2019 01:00:00 3.55833 C 5.93 g/m*3 3.56 C 4.80833 km/h
3098 03-12-2019 02:00:00 3.71667 C 5.99 g/m*3 3.72 C 2.00833 km/h
3099 03-12-2019 03:00:00 3.8 C 6.04 g/m*3 2.63 C 5.21667 km/h
3100 03-12-2019 04:00:00 3.89167 C 6.11 g/m*3 2.26 C 6.56667 km/h
Sensor: Nr:Datum:Temp:Abs-Feuchte:Windchill:Wind:
Aussen-T/F 3101 03-12-2019 05:00:00 4.01667 C 6.17 g/m*3 4.02 C 4.275 km/h
3102 03-12-2019 06:00:00 4.1 C 6.21 g/m*3 4.1 C 1.73333 km/h
3103 03-12-2019 07:00:00 4.19167 C 6.25 g/m*3 4.19 C 4.00833 km/h
3104 03-12-2019 08:00:00 4.23333 C 6.26 g/m*3 2.97 C 5.625 km/h
3105 03-12-2019 09:00:00 4.35 C 6.31 g/m*3 4.35 C 4.94167 km/h
3106 03-12-2019 10:00:00 4.61667 C 6.43 g/m*3 3.46 C 5.49167 km/h
3107 03-12-2019 11:00:00 5.11667 C 6.64 g/m*3 5.12 C 3.2 km/h
3108 03-12-2019 12:00:00 5.6 C 6.86 g/m*3 5.6 C 3.46667 km/h
3109 03-12-2019 13:00:00 6.06667 C 7 g/m*3 6.07 C 4.26667 km/h
3110 03-12-2019 14:00:00 6.51667 C 7.13 g/m*3 6.52 C 1.06667 km/h
3111 03-12-2019 15:00:00 6.675 C 7.13 g/m*3 6.68 C 0 km/h
3112 03-12-2019 16:00:00 6.46667 C 7.07 g/m*3 6.47 C 0 km/h
3113 03-12-2019 17:00:00 5.98333 C 6.89 g/m*3 5.98 C 0 km/h
3114 03-12-2019 18:00:00 5.56667 C 6.71 g/m*3 5.57 C 0 km/h
3115 03-12-2019 19:00:00 5.29167 C 6.62 g/m*3 5.29 C 0.66667 km/h
3116 03-12-2019 20:00:00 4.93333 C 6.48 g/m*3 4.93 C 0 km/h
3117 03-12-2019 21:00:00 4.6 C 6.34 g/m*3 4.6 C 0 km/h
3118 03-12-2019 22:00:00 4.00833 C 6.09 g/m*3 4.01 C 2.4 km/h
3119 03-12-2019 23:00:00 3.46667 C 5.87 g/m*3 3.47 C 2.93333 km/h
3120 04-12-2019 00:00:00 2.41667 C 5.43 g/m*3 2.42 C 0.4 km/h
3121 04-12-2019 01:00:00 1.24167 C 5.04 g/m*3 1.24 C 0 km/h
3122 04-12-2019 02:00:00 0.90833 C 4.95 g/m*3 0.91 C 0 km/h
3123 04-12-2019 03:00:00 1.64167 C 5.26 g/m*3 1.64 C 0 km/h
3124 04-12-2019 04:00:00 1.74167 C 5.3 g/m*3 1.74 C 0 km/h
3125 04-12-2019 05:00:00 1.74167 C 5.3 g/m*3 1.74 C 0 km/h
Sensor: Nr:Datum:Temp:Abs-Feuchte:Windchill:Wind:
Aussen-T/F 3126 04-12-2019 06:00:00 1.93333 C 5.37 g/m*3 1.93 C 0.26667 km/h
3127 04-12-2019 07:00:00 1.81667 C 5.32 g/m*3 1.82 C 0.26667 km/h
3128 04-12-2019 08:00:00 1.725 C 5.29 g/m*3 1.73 C 0.13333 km/h
3129 04-12-2019 09:00:00 1.8 C 5.32 g/m*3 1.8 C 1.06667 km/h
3130 04-12-2019 10:00:00 1.83333 C 5.33 g/m*3 1.83 C 1.33333 km/h
3131 04-12-2019 11:00:00 1.83333 C 5.32 g/m*3 1.83 C 0 km/h
3132 04-12-2019 12:00:00 2.15 C 5.45 g/m*3 2.15 C 0.4 km/h
3133 04-12-2019 13:00:00 2.51667 C 5.58 g/m*3 2.52 C 1.46667 km/h
3134 04-12-2019 14:00:00 2.825 C 5.68 g/m*3 2.83 C 2.26667 km/h
3135 04-12-2019 15:00:00 2.58333 C 5.55 g/m*3 2.58 C 0 km/h
3136 04-12-2019 16:00:00 2.025 C 5.32 g/m*3 2.03 C 1.06667 km/h
3137 04-12-2019 17:00:00 1.43333 C 5.12 g/m*3 1.43 C 0 km/h
3138 04-12-2019 18:00:00 1.10833 C 5.01 g/m*3 1.11 C 0 km/h
3139 04-12-2019 19:00:00 0.41667 C 4.77 g/m*3 0.42 C 0 km/h
3140 04-12-2019 20:00:00 -0.08333 C 4.62 g/m*3 -0.08 C 0.4 km/h
3141 04-12-2019 21:00:00 -0.58333 C 4.47 g/m*3 -0.58 C 0.26667 km/h
3142 04-12-2019 22:00:00 -1.23333 C 4.27 g/m*3 -1.23 C 0 km/h
3143 04-12-2019 23:00:00 -1.54167 C 4.18 g/m*3 -1.54 C 0 km/h
3144 05-12-2019 00:00:00 -1.775 C 4.11 g/m*3 -1.78 C 0.13333 km/h
3145 05-12-2019 01:00:00 -1.78333 C 4.13 g/m*3 -1.78 C 0.13333 km/h
3146 05-12-2019 02:00:00 -1.86667 C 4.12 g/m*3 -1.87 C 0 km/h
3147 05-12-2019 03:00:00 -2.225 C 4 g/m*3 -2.23 C 0.66667 km/h
3148 05-12-2019 04:00:00 -1.84167 C 4.13 g/m*3 -1.84 C 1.06667 km/h
3149 05-12-2019 05:00:00 -1.75833 C 4.16 g/m*3 -1.76 C 0.4 km/h
3150 05-12-2019 06:00:00 -1.833